[[{"header":{"parameterUnit":"m.s-1","parameterCategory":1,"la1":30.6,"la2":28.766,"lo1":-90.7593,"lo2":-88.6598,"dy":0.0162,"dx":0.0183,"nx":116,"ny":114,"refTime":"2023-06-23T12:00:00:Z","depth":0,"parameterNumber":2,"parameterNumberName":"U-component_of_WINDS"},"data":[0.0,0.0,0.0,0.0,0.0,0.0,0.0,0.0,0.0,0.0,0.0,0.0,0.0,0.0,0.0,0.0,0.0,0.0,0.0,0.0,0.0,0.0,0.0,0.0,0.0,0.0,0.0,0.0,0.0,0.0,0.0,0.0,0.0,0.0,0.0,0.0,0.0,0.0,0.0,0.0,0.0,0.0,0.0,0.0,0.0,0.0,0.0,0.0,0.0,0.0,0.0,0.0,0.0,0.0,0.0,0.0,0.0,0.0,0.0,0.0,0.0,0.0,0.0,0.0,0.0,0.0,0.0,0.0,0.0,0.0,0.0,0.0,0.0,0.0,0.0,0.0,0.0,0.0,0.0,0.0,0.0,0.0,0.0,0.0,0.0,0.0,0.0,0.0,0.0,0.0,0.0,0.0,0.0,0.0,0.0,0.0,0.0,0.0,0.0,0.0,0.0,0.0,0.0,0.0,0.0,0.0,0.0,0.0,0.0,0.0,0.0,0.0,0.0,0.0,0.0,0.0,0.0,0.0,0.0,0.0,0.0,0.0,0.0,0.0,0.0,0.0,0.0,0.0,0.0,0.0,0.0,0.0,0.0,0.0,0.0,0.0,0.0,0.0,0.0,0.0,0.0,0.0,0.0,0.0,0.0,0.0,0.0,0.0,0.0,0.0,0.0,0.0,0.0,0.0,0.0,0.0,0.0,0.0,0.0,0.0,0.0,0.0,0.0,0.0,0.0,0.0,0.0,0.0,0.0,0.0,0.0,0.0,0.0,0.0,0.0,0.0,0.0,0.0,0.0,0.0,0.0,0.0,0.0,0.0,0.0,0.0,0.0,0.0,0.0,0.0,0.0,0.0,0.0,0.0,0.0,0.0,0.0,0.0,0.0,0.0,0.0,0.0,0.0,0.0,0.0,0.0,0.0,0.0,0.0,0.0,0.0,0.0,0.0,0.0,0.0,0.0,0.0,0.0,0.0,0.0,0.0,0.0,0.0,0.0,0.0,0.0,0.0,0.0,0.0,0.0,0.0,0.0,0.0,0.0,0.0,0.0,0.0,0.0,0.0,0.0,0.0,0.0,0.0,0.0,0.0,0.0,0.0,0.0,0.0,0.0,0.0,0.0,0.0,0.0,0.0,0.0,0.0,0.0,0.0,0.0,0.0,0.0,0.0,0.0,0.0,0.0,0.0,0.0,0.0,0.0,0.0,0.0,0.0,0.0,0.0,0.0,0.0,0.0,0.0,0.0,0.0,0.0,0.0,0.0,0.0,0.0,0.0,0.0,0.0,0.0,0.0,0.0,0.0,0.0,0.0,0.0,0.0,0.0,0.0,0.0,0.0,0.0,0.0,0.0,0.0,0.0,0.0,0.0,0.0,0.0,0.0,0.0,0.0,0.0,0.0,0.0,0.0,0.0,0.0,0.0,0.0,0.0,0.0,0.0,0.0,0.0,0.0,0.0,0.0,0.0,0.0,0.0,0.0,0.0,0.0,0.0,0.0,0.0,0.0,0.0,0.0,0.0,0.0,0.0,0.0,0.0,0.0,0.0,0.0,0.0,0.0,0.0,0.0,0.0,0.0,0.0,0.0,0.0,0.0,0.0,0.0,0.0,0.0,0.0,0.0,0.0,0.0,0.0,0.0,0.0,0.0,0.0,0.0,0.0,0.0,0.0,0.0,0.0,0.0,0.0,0.0,0.0,0.0,0.0,0.0,0.0,0.0,0.0,0.0,0.0,0.0,0.0,0.0,0.0,0.0,0.0,0.0,0.0,0.0,0.0,0.0,0.0,0.0,0.0,0.0,0.0,0.0,0.0,0.0,0.0,0.0,0.0,0.0,0.0,0.0,0.0,0.0,0.0,0.0,0.0,0.0,0.0,0.0,0.0,0.0,0.0,0.0,0.0,0.0,0.0,0.0,0.0,0.0,0.0,0.0,0.0,0.0,0.0,0.0,0.0,0.0,0.0,0.0,0.0,0.0,0.0,0.0,0.0,0.0,0.0,0.0,0.0,0.0,0.0,0.0,0.0,0.0,0.0,0.0,0.0,0.0,0.0,0.0,0.0,0.0,0.0,0.0,0.0,0.0,0.0,0.0,0.0,0.0,0.0,0.0,0.0,0.0,0.0,0.0,0.0,0.0,0.0,0.0,0.0,0.0,0.0,0.0,0.0,0.0,0.0,0.0,0.0,0.0,0.0,0.0,0.0,0.0,0.0,0.0,0.0,0.0,0.0,0.0,0.0,0.0,0.0,0.0,0.0,0.0,0.0,0.0,0.0,0.0,0.0,0.0,0.0,0.0,0.0,0.0,0.0,0.0,0.0,0.0,0.0,0.0,0.0,0.0,0.0,0.0,0.0,0.0,0.0,0.0,0.0,0.0,0.0,0.0,0.0,0.0,0.0,0.0,0.0,0.0,0.0,0.0,0.0,0.0,0.0,0.0,0.0,0.0,0.0,0.0,0.0,0.0,0.0,0.0,0.0,0.0,0.0,0.0,0.0,0.0,0.0,0.0,0.0,0.0,0.0,0.0,0.0,0.0,0.0,0.0,0.0,0.0,0.0,0.0,0.0,0.0,0.0,0.0,0.0,0.0,0.0,0.0,0.0,0.0,0.0,0.0,0.0,0.0,0.0,0.0,0.0,0.0,0.0,0.0,0.0,0.0,0.0,0.0,0.0,0.0,0.0,0.0,0.0,0.0,0.0,0.0,0.0,0.0,0.0,0.0,0.0,0.0,0.0,0.0,0.0,0.0,0.0,0.0,0.0,0.0,0.0,0.0,0.0,0.0,0.0,0.0,0.0,0.0,0.0,0.0,0.0,0.0,0.0,0.0,0.0,0.0,0.0,0.0,0.0,0.0,0.0,0.0,0.0,0.0,0.0,0.0,0.0,0.0,0.0,0.0,0.0,0.0,0.0,0.0,0.0,0.0,0.0,0.0,0.0,0.0,0.0,0.0,0.0,0.0,0.0,0.0,0.0,0.0,0.0,0.0,0.0,0.0,0.0,0.0,0.0,0.0,0.0,0.0,0.0,0.0,0.0,0.0,0.0,0.0,0.0,0.0,0.0,0.0,0.0,0.0,0.0,0.0,0.0,0.0,0.0,0.0,0.0,0.0,0.0,0.0,0.0,0.0,0.0,0.0,0.0,0.0,0.0,0.0,0.0,0.0,0.0,0.0,0.0,0.0,0.0,0.0,0.0,0.0,0.0,0.0,0.0,0.0,0.0,0.0,0.0,0.0,0.0,0.0,0.0,0.0,0.0,0.0,0.0,0.0,0.0,0.0,0.0,0.0,0.0,0.0,0.0,0.0,0.0,0.0,0.0,0.0,0.0,0.0,0.0,0.0,0.0,0.0,0.0,0.0,0.0,0.0,0.0,0.0,0.0,0.0,0.0,0.0,0.0,0.0,0.0,0.0,0.0,0.0,0.0,0.0,0.0,0.0,0.0,0.0,0.0,0.0,0.0,0.0,0.0,0.0,0.0,0.0,0.0,0.0,0.0,0.0,0.0,0.0,0.0,0.0,0.0,0.0,0.0,0.0,0.0,0.0,0.0,0.0,0.0,0.0,0.0,0.0,0.0,0.0,0.0,0.0,0.0,0.0,0.0,0.0,0.0,0.0,0.0,0.0,0.0,0.0,0.0,0.0,0.0,0.0,0.0,0.0,0.0,0.0,0.0,0.0,0.0,0.0,0.0,0.0,0.0,0.0,0.0,0.0,0.0,0.0,0.0,0.0,0.0,0.0,0.0,0.0,0.0,0.0,0.0,0.0,0.0,0.0,0.0,0.0,0.0,0.0,0.0,0.0,0.0,0.0,0.0,0.0,0.0,0.0,0.0,0.0,0.0,0.0,0.0,0.0,0.0,0.0,0.0,0.0,0.0,0.0,0.0,0.0,0.0,0.0,0.0,0.0,0.0,0.0,0.0,0.0,0.0,0.0,0.0,0.0,0.0,0.0,0.0,0.0,0.0,0.0,0.0,0.0,0.0,0.0,0.0,0.0,0.0,0.0,0.0,0.0,0.0,0.0,0.0,0.0,0.0,0.0,0.0,0.0,0.0,0.0,0.0,0.0,0.0,0.0,0.0,0.0,0.0,0.0,0.0,0.0,0.0,0.0,0.0,0.0,0.0,0.0,0.0,0.0,0.0,0.0,0.0,0.0,0.0,0.0,0.0,0.0,0.0,0.0,0.0,0.0,0.0,0.0,0.0,0.0,0.0,0.0,0.0,0.0,0.0,0.0,0.0,0.0,0.0,0.0,0.0,0.0,0.0,0.0,0.0,0.0,0.0,0.0,0.0,0.0,0.0,0.0,0.0,0.0,0.0,0.0,0.0,0.0,0.0,0.0,0.0,0.0,0.0,0.0,0.0,0.0,0.0,0.0,0.0,0.0,0.0,0.0,0.0,0.0,0.0,0.0,0.0,0.0,0.0,0.0,0.0,0.0,0.0,0.0,0.0,0.0,0.0,0.0,0.0,0.0,0.0,0.0,0.0,0.0,0.0,0.0,0.0,0.0,0.0,0.0,0.0,0.0,0.0,0.0,0.0,0.0,0.0,0.0,0.0,0.0,0.0,0.0,0.0,0.0,0.0,0.0,0.0,0.0,0.0,0.0,0.0,0.0,0.0,0.0,0.0,0.0,0.0,0.0,0.0,0.0,0.0,0.0,0.0,0.0,0.0,0.0,0.0,0.0,0.0,0.0,0.0,0.0,0.0,0.0,0.0,0.0,0.0,0.0,0.0,0.0,0.0,0.0,0.0,0.0,0.0,0.0,0.0,0.0,0.0,0.0,0.0,0.0,0.0,0.0,0.0,0.0,0.0,0.0,0.0,0.0,0.0,0.0,0.0,0.0,0.0,0.0,0.0,0.0,0.0,0.0,0.0,0.0,0.0,0.0,0.0,0.0,0.0,0.0,0.0,0.0,0.0,0.0,0.0,0.0,0.0,0.0,0.0,0.0,0.0,0.0,0.0,0.0,0.0,0.0,0.0,0.0,0.0,0.0,0.0,0.0,0.0,0.0,0.0,0.0,0.0,0.0,0.0,0.0,0.0,0.0,0.0,0.0,0.0,0.0,0.0,0.0,0.0,0.0,0.0,0.0,0.0,0.0,0.0,0.0,0.0,0.0,0.0,0.0,0.0,0.0,0.0,0.0,0.0,0.0,0.0,0.0,0.0,0.0,0.0,0.0,0.0,0.0,0.0,0.0,0.0,0.0,0.0,0.0,0.0,0.0,0.0,0.0,0.0,0.0,0.0,0.0,0.0,0.0,0.0,0.0,0.0,0.0,0.0,0.0,0.0,0.0,0.0,0.0,0.0,0.0,0.0,0.0,0.0,0.0,0.0,0.0,0.0,0.0,0.0,0.0,0.0,0.0,0.0,0.0,0.0,0.0,0.0,0.0,0.0,0.0,0.0,0.0,0.0,0.0,0.0,0.0,0.0,0.0,0.0,0.0,0.0,0.0,0.0,0.0,0.0,0.0,0.0,0.0,0.0,0.0,0.0,0.0,0.0,0.0,0.0,0.0,0.0,0.0,0.0,0.0,0.0,0.0,0.0,0.0,0.0,0.0,0.0,0.0,0.0,0.0,0.0,0.0,0.0,0.0,0.0,0.0,0.0,0.0,0.0,0.0,0.0,0.0,0.0,0.0,0.0,0.0,0.0,0.0,0.0,0.0,0.0,0.0,0.0,0.0,0.0,0.0,0.0,0.0,0.0,0.0,0.0,0.0,0.0,0.0,0.0,0.0,0.0,0.0,0.0,0.0,0.0,0.0,0.0,0.0,0.0,0.0,0.0,0.0,0.0,0.0,0.0,0.0,0.0,0.0,0.0,0.0,0.0,0.0,0.0,0.0,0.0,0.0,0.0,0.0,0.0,0.0,0.0,0.0,0.0,0.0,0.0,0.0,0.0,0.0,0.0,0.0,0.0,0.0,0.0,0.0,0.0,0.0,0.0,0.0,0.0,0.0,0.0,0.0,0.0,0.0,0.0,0.0,0.0,0.0,0.0,0.0,0.0,0.0,0.0,0.0,0.0,0.0,0.0,0.0,0.0,0.0,0.0,0.0,0.0,0.0,0.0,0.0,0.0,0.0,0.0,0.0,0.0,0.0,0.0,0.0,0.0,-3.5691,0.0,0.0,0.0,0.0,0.0,0.0,0.0,0.0,0.0,0.0,0.0,0.0,0.0,0.0,0.0,0.0,0.0,0.0,0.0,0.0,0.0,0.0,0.0,0.0,0.0,0.0,0.0,0.0,0.0,0.0,0.0,0.0,0.0,0.0,0.0,0.0,0.0,0.0,0.0,0.0,0.0,0.0,0.0,0.0,0.0,0.0,0.0,0.0,0.0,0.0,0.0,0.0,0.0,0.0,0.0,0.0,0.0,0.0,0.0,0.0,0.0,0.0,0.0,0.0,0.0,0.0,0.0,0.0,0.0,0.0,0.0,0.0,0.0,0.0,0.0,0.0,0.0,0.0,0.0,0.0,0.0,0.0,0.0,0.0,0.0,0.0,0.0,0.0,0.0,0.0,0.0,0.0,0.0,0.0,0.0,0.0,0.0,0.0,0.0,0.0,0.0,0.0,0.0,0.0,0.0,0.0,0.0,0.0,0.0,0.0,0.0,0.0,0.0,0.0,0.0,0.0,-3.6541,0.0,0.0,0.0,0.0,0.0,0.0,0.0,0.0,0.0,0.0,0.0,0.0,0.0,0.0,0.0,0.0,0.0,0.0,0.0,0.0,0.0,0.0,0.0,0.0,0.0,0.0,0.0,0.0,0.0,0.0,0.0,0.0,0.0,0.0,0.0,0.0,0.0,0.0,0.0,0.0,0.0,0.0,0.0,0.0,0.0,0.0,0.0,0.0,0.0,0.0,0.0,0.0,0.0,0.0,0.0,0.0,0.0,0.0,0.0,0.0,0.0,0.0,0.0,0.0,0.0,0.0,0.0,0.0,0.0,0.0,0.0,0.0,0.0,0.0,0.0,0.0,0.0,0.0,0.0,0.0,0.0,0.0,0.0,0.0,0.0,0.0,0.0,0.0,0.0,0.0,0.0,0.0,0.0,0.0,0.0,0.0,0.0,0.0,0.0,0.0,0.0,0.0,0.0,0.0,0.0,0.0,0.0,0.0,-3.5234,-3.5594,-3.5968,-3.6691,-3.719,-3.7266,-3.7192,-3.7155,-3.7194,0.0,0.0,0.0,0.0,0.0,0.0,0.0,0.0,0.0,0.0,0.0,0.0,0.0,0.0,0.0,0.0,0.0,0.0,0.0,0.0,0.0,0.0,0.0,0.0,0.0,0.0,0.0,0.0,0.0,0.0,0.0,0.0,0.0,0.0,0.0,0.0,0.0,0.0,0.0,0.0,0.0,0.0,0.0,0.0,0.0,0.0,0.0,0.0,0.0,0.0,0.0,0.0,0.0,0.0,0.0,0.0,0.0,0.0,0.0,0.0,0.0,0.0,0.0,0.0,0.0,0.0,0.0,0.0,0.0,0.0,0.0,0.0,0.0,0.0,0.0,0.0,0.0,0.0,0.0,0.0,0.0,0.0,0.0,0.0,0.0,0.0,0.0,-3.9985,-3.8149,0.0,0.0,0.0,0.0,0.0,0.0,0.0,0.0,0.0,0.0,0.0,0.0,0.0,-3.4173,-3.499,-3.4104,-3.4271,-3.5508,-3.5561,-3.5766,-3.6105,-3.6977,-3.7395,-3.7408,-3.7883,0.0,-3.7795,-3.7874,0.0,0.0,0.0,0.0,0.0,0.0,0.0,0.0,0.0,0.0,0.0,0.0,0.0,0.0,0.0,0.0,0.0,0.0,0.0,0.0,0.0,0.0,0.0,0.0,0.0,0.0,0.0,0.0,0.0,0.0,0.0,0.0,0.0,0.0,0.0,0.0,0.0,0.0,0.0,0.0,0.0,0.0,0.0,0.0,-2.8429,-2.8211,0.0,0.0,0.0,0.0,0.0,0.0,0.0,0.0,0.0,0.0,0.0,0.0,0.0,0.0,0.0,0.0,0.0,0.0,0.0,0.0,0.0,0.0,0.0,0.0,0.0,0.0,0.0,0.0,0.0,0.0,0.0,0.0,0.0,0.0,0.0,0.0,0.0,0.0,0.0,-3.998,-3.9748,-3.8351,-3.8871,-3.8974,0.0,0.0,0.0,0.0,0.0,0.0,0.0,0.0,0.0,-3.3152,-3.2767,-3.2669,-3.3152,-3.3253,-3.3814,-3.4658,-3.5538,-3.6257,-3.6823,-3.749,-3.7947,-3.8063,-3.8302,-3.833,-3.8344,-3.8408,-3.8472,-3.8652,0.0,0.0,0.0,0.0,-3.8304,-3.8213,0.0,0.0,0.0,0.0,0.0,0.0,0.0,0.0,0.0,0.0,0.0,0.0,0.0,0.0,0.0,0.0,0.0,0.0,0.0,0.0,0.0,0.0,0.0,0.0,0.0,0.0,0.0,0.0,0.0,0.0,0.0,0.0,0.0,0.0,0.0,0.0,0.0,-2.8757,-2.8757,0.0,0.0,0.0,0.0,0.0,0.0,0.0,0.0,0.0,0.0,0.0,0.0,0.0,0.0,0.0,0.0,0.0,0.0,0.0,0.0,0.0,0.0,0.0,0.0,0.0,0.0,0.0,0.0,0.0,0.0,0.0,0.0,0.0,0.0,0.0,0.0,0.0,0.0,-3.9308,-3.9424,-3.8635,-3.8846,-3.8767,0.0,0.0,0.0,0.0,0.0,0.0,-3.2882,-3.2091,-3.1653,-3.1816,-3.1653,-3.1649,-3.1781,-3.2548,-3.3338,-3.4095,-3.5181,-3.6314,-3.744,-3.773,-3.82,-3.8679,-3.8679,-3.8679,-3.8769,-3.8845,-3.8819,-3.8908,-3.9114,-3.9114,-3.9011,-3.8769,-3.8498,-3.8304,0.0,0.0,0.0,0.0,0.0,0.0,0.0,0.0,0.0,0.0,0.0,0.0,0.0,0.0,0.0,0.0,0.0,0.0,0.0,0.0,0.0,0.0,0.0,0.0,0.0,0.0,0.0,0.0,0.0,0.0,0.0,0.0,0.0,0.0,0.0,0.0,0.0,0.0,-2.8757,-2.8757,0.0,0.0,0.0,0.0,0.0,0.0,0.0,0.0,0.0,0.0,0.0,0.0,0.0,0.0,0.0,0.0,0.0,0.0,0.0,0.0,0.0,0.0,0.0,0.0,0.0,0.0,0.0,0.0,0.0,0.0,0.0,0.0,0.0,0.0,0.0,0.0,0.0,0.0,0.0,-3.8918,-3.8432,0.0,0.0,0.0,0.0,-3.3322,-3.3066,-3.2636,-3.1753,-3.1665,-3.1577,-3.1577,-3.1577,-3.1817,-3.2244,-3.2268,-3.3162,-3.4649,-3.4499,-3.5475,-3.7466,-3.723,-3.7769,-3.8908,-3.8908,-3.9011,-3.9216,-3.8769,-3.8756,-3.8908,-3.8908,-3.91,-3.9203,-3.8997,-3.8756,-3.8602,0.0,0.0,0.0,0.0,0.0,0.0,0.0,0.0,0.0,0.0,0.0,0.0,0.0,0.0,0.0,0.0,0.0,0.0,0.0,0.0,0.0,0.0,0.0,0.0,0.0,0.0,0.0,0.0,0.0,0.0,0.0,0.0,0.0,0.0,0.0,0.0,0.0,0.0,0.0,-2.8757,-2.8664,-2.8664,0.0,0.0,0.0,0.0,0.0,0.0,0.0,0.0,0.0,0.0,0.0,0.0,0.0,0.0,0.0,0.0,0.0,0.0,0.0,0.0,0.0,0.0,0.0,0.0,0.0,0.0,0.0,0.0,0.0,0.0,0.0,0.0,0.0,0.0,0.0,0.0,0.0,-3.739,-3.7181,0.0,-3.6105,-3.5251,-3.4254,-3.2953,-3.1804,-3.1199,-3.1178,-3.0571,-3.036,-3.0687,-3.0699,-3.0789,-3.0959,-3.1575,-3.2579,-3.3815,-3.433,-3.5647,-3.7505,-3.7533,-3.7978,-3.8908,-3.91,-3.9203,-3.9305,-3.9127,-3.9114,-3.9203,-3.9203,-3.91,-3.9011,-3.8908,-3.8742,-3.8602,0.0,0.0,0.0,0.0,0.0,0.0,0.0,0.0,0.0,0.0,0.0,0.0,0.0,0.0,0.0,0.0,0.0,0.0,0.0,0.0,0.0,0.0,0.0,0.0,0.0,0.0,0.0,0.0,0.0,0.0,0.0,0.0,0.0,0.0,0.0,0.0,0.0,0.0,0.0,0.0,0.0,-2.8757,-2.8664,0.0,0.0,0.0,0.0,0.0,0.0,0.0,0.0,0.0,0.0,0.0,0.0,0.0,0.0,0.0,0.0,0.0,0.0,0.0,0.0,0.0,0.0,0.0,0.0,0.0,0.0,0.0,0.0,0.0,0.0,0.0,0.0,0.0,0.0,0.0,-3.6425,-3.6102,-3.5678,-3.5157,-3.4669,-3.3882,-3.3054,-3.225,-3.1102,-3.056,-3.0887,-3.0186,-2.9967,-3.0491,-3.0307,-3.0286,-3.0439,-3.1053,-3.198,-3.3024,-3.3632,-3.5054,-3.7095,-3.7243,-3.7887,-3.9024,-3.9419,-3.959,-3.9617,-3.9834,-3.9916,-3.9902,-3.9685,-3.9622,-3.9617,-3.9617,-3.9406,-3.8946,0.0,0.0,0.0,0.0,0.0,0.0,0.0,0.0,0.0,0.0,0.0,0.0,0.0,0.0,0.0,0.0,0.0,0.0,0.0,0.0,0.0,0.0,0.0,0.0,0.0,0.0,0.0,0.0,0.0,0.0,0.0,0.0,0.0,0.0,0.0,0.0,0.0,0.0,0.0,0.0,0.0,0.0,-2.8395,0.0,0.0,0.0,0.0,0.0,0.0,0.0,0.0,0.0,0.0,0.0,0.0,0.0,0.0,0.0,0.0,0.0,0.0,0.0,0.0,0.0,0.0,0.0,0.0,0.0,0.0,0.0,0.0,0.0,0.0,0.0,0.0,0.0,-3.6887,-3.5699,-3.4794,-3.4975,-3.3835,-3.2882,-3.2757,-3.2079,-3.1407,-3.0916,-3.0869,-3.091,-3.0953,-3.0513,-3.0427,-3.1009,-3.0535,-3.0472,-3.0908,-3.0919,-3.145,-3.242,-3.2409,-3.3761,-3.627,-3.6389,-3.7441,-3.9359,-3.9956,-4.0214,-4.0255,-4.0865,-4.1123,-4.1082,-4.0458,-4.0594,-4.1123,-4.1123,-4.0559,-3.9677,0.0,0.0,0.0,0.0,0.0,0.0,0.0,0.0,0.0,0.0,0.0,0.0,0.0,0.0,0.0,0.0,0.0,0.0,0.0,0.0,0.0,0.0,0.0,0.0,0.0,0.0,0.0,0.0,0.0,0.0,0.0,0.0,0.0,0.0,0.0,0.0,0.0,0.0,0.0,0.0,0.0,0.0,-2.8664,0.0,0.0,0.0,0.0,0.0,0.0,0.0,0.0,0.0,0.0,0.0,0.0,0.0,0.0,0.0,0.0,0.0,0.0,0.0,0.0,0.0,0.0,0.0,0.0,0.0,0.0,0.0,0.0,0.0,0.0,0.0,0.0,-3.5613,-3.5024,-3.4206,-3.3534,-3.3148,-3.2586,-3.2076,-3.1486,-3.1495,-3.1235,-3.0463,-3.0378,-3.0588,-3.0877,-3.08,-3.0965,-3.1416,-3.1628,-3.1884,-3.2007,-3.2007,-3.2487,-3.3534,-3.3135,-3.4299,-3.6615,-3.721,-3.8342,-3.9712,-4.0502,-4.0865,-4.0879,-4.1042,-4.1381,-4.1693,-4.1096,-4.0974,-4.1123,-4.1123,-4.0815,-4.0441,0.0,0.0,0.0,0.0,0.0,0.0,0.0,0.0,0.0,0.0,0.0,0.0,0.0,0.0,0.0,0.0,0.0,0.0,0.0,0.0,0.0,0.0,0.0,0.0,0.0,0.0,0.0,0.0,0.0,0.0,0.0,0.0,0.0,0.0,0.0,0.0,0.0,0.0,0.0,0.0,0.0,0.0,-2.8269,-2.8092,-2.7998,-2.8081,-2.8538,-2.936,-3.0351,-3.1258,0.0,0.0,0.0,0.0,0.0,0.0,0.0,0.0,0.0,0.0,0.0,0.0,0.0,0.0,0.0,0.0,0.0,0.0,0.0,0.0,0.0,0.0,0.0,0.0,-3.5535,-3.4781,-3.4149,-3.3462,-3.2797,-3.2115,-3.1757,-3.1436,-3.0706,-3.0881,-3.0849,-3.0482,-3.0493,-3.08,-3.1461,-3.1293,-3.1537,-3.2229,-3.2319,-3.2409,-3.2409,-3.2622,-3.2935,-3.3335,-3.4041,-3.5308,-3.6969,-3.8208,-3.944,0.0,-4.1138,-4.1489,-4.1517,-4.1761,-4.2059,0.0,0.0,0.0,0.0,0.0,-4.1382,-4.1234,0.0,0.0,0.0,0.0,0.0,0.0,0.0,0.0,0.0,0.0,0.0,0.0,0.0,0.0,0.0,0.0,0.0,0.0,0.0,0.0,0.0,0.0,0.0,0.0,0.0,0.0,0.0,0.0,0.0,0.0,0.0,0.0,0.0,0.0,0.0,0.0,0.0,0.0,0.0,0.0,0.0,0.0,-2.76,-2.7893,-2.7987,-2.7998,-2.8351,-2.9268,-3.0351,-3.1169,0.0,0.0,0.0,0.0,0.0,0.0,0.0,0.0,0.0,0.0,0.0,0.0,0.0,0.0,0.0,0.0,0.0,0.0,0.0,0.0,0.0,0.0,0.0,0.0,-3.4942,-3.4335,-3.3997,-3.3159,-3.2369,-3.1679,-3.135,-3.0912,-3.0286,-3.0341,-3.0537,-3.0952,-3.0974,-3.1361,-3.2286,0.0,0.0,0.0,0.0,-3.2532,-3.2679,-3.3106,-3.3206,-3.2982,-3.5127,-3.664,-3.7539,-3.9268,-4.0521,-4.1259,-4.1842,-4.21,-4.2141,-4.267,-4.2887,-4.2833,-4.2304,-4.2426,-4.2833,-4.2304,-4.21,-4.2019,0.0,0.0,0.0,0.0,0.0,0.0,0.0,0.0,0.0,0.0,0.0,0.0,0.0,0.0,0.0,0.0,0.0,0.0,0.0,0.0,0.0,0.0,0.0,0.0,0.0,0.0,0.0,0.0,0.0,0.0,0.0,0.0,0.0,0.0,0.0,0.0,0.0,0.0,0.0,0.0,0.0,0.0,-2.7326,-2.7799,-2.7904,-2.7631,-2.7631,-2.8724,-3.026,-3.0441,-3.2734,-3.5601,-3.5559,0.0,0.0,0.0,0.0,0.0,0.0,0.0,0.0,0.0,0.0,0.0,0.0,0.0,0.0,0.0,0.0,0.0,0.0,0.0,0.0,-3.5661,-3.5312,-3.4762,-3.4048,-3.3059,-3.2283,-3.1937,-3.1113,-3.0556,-3.0478,-3.1026,-3.1389,-3.1476,-3.1487,-3.152,-3.171,-3.1629,0.0,-3.2531,-3.2842,-3.3434,-3.4348,-3.4463,-3.516,-3.6563,0.0,0.0,-3.9485,-4.0377,-4.1149,-4.1869,-4.2453,-4.2724,-4.2724,-4.2833,-4.2887,-4.2873,-4.2765,-4.2792,-4.2873,-4.2765,-4.2724,-4.2697,0.0,0.0,0.0,0.0,0.0,0.0,0.0,0.0,0.0,0.0,0.0,0.0,0.0,0.0,0.0,0.0,0.0,0.0,0.0,0.0,0.0,0.0,0.0,0.0,0.0,0.0,0.0,0.0,0.0,0.0,0.0,0.0,0.0,0.0,0.0,0.0,0.0,0.0,0.0,0.0,0.0,0.0,-2.6562,-2.7231,-2.7526,-2.7536,-2.7357,-2.8538,-3.017,-3.017,-3.2327,-3.5087,-3.5467,-3.6669,-3.8033,0.0,0.0,0.0,0.0,0.0,0.0,0.0,0.0,0.0,0.0,0.0,0.0,0.0,0.0,-3.8994,0.0,0.0,-3.635,-3.553,-3.5174,-3.4717,-3.4016,-3.309,-3.2448,-3.2555,-3.1451,-3.0772,-3.1066,-3.1374,-3.1618,-3.1618,-3.1618,-3.1618,-3.1618,-3.1859,-3.2225,-3.2778,-3.3336,-3.378,-3.4343,-3.535,-3.6171,-3.6767,-3.8228,-3.9367,-4.0499,-4.1483,-4.2054,-4.2466,-4.2765,-4.2887,-4.2887,-4.2887,-4.2887,-4.2887,-4.2887,-4.2887,-4.2887,-4.2887,-4.2887,-4.2887,0.0,0.0,0.0,0.0,0.0,0.0,0.0,0.0,0.0,0.0,0.0,0.0,0.0,0.0,0.0,0.0,0.0,0.0,0.0,0.0,0.0,0.0,0.0,0.0,0.0,0.0,0.0,0.0,0.0,0.0,0.0,0.0,0.0,0.0,0.0,0.0,0.0,0.0,0.0,0.0,0.0,0.0,-2.5499,-2.6264,-2.6945,-2.7536,-2.7357,-2.8538,-3.017,-3.017,-3.2103,-3.4551,-3.5305,-3.6267,-3.7309,-3.8708,-3.9508,0.0,0.0,0.0,0.0,0.0,0.0,0.0,0.0,0.0,-4.1241,-4.0715,-4.0237,-3.9499,-3.8063,-3.7171,-3.6381,-3.5536,-3.5098,-3.4661,-3.4123,-3.3215,-3.269,-3.2885,-3.1682,-3.1034,-3.1527,-3.1516,-3.1618,-3.1618,-3.1618,-3.1662,-3.1771,-3.2164,-3.2669,-3.3265,-3.3654,-3.4123,-3.4627,-3.6161,-3.6969,-3.7161,-3.9754,-4.1095,-4.1316,-4.2366,-4.2887,-4.2887,-4.2887,-4.2887,-4.2887,-4.2887,-4.2887,-4.2887,-4.2887,-4.2887,-4.2887,-4.2887,-4.2887,-4.2887,0.0,0.0,0.0,0.0,0.0,0.0,0.0,0.0,0.0,0.0,0.0,0.0,0.0,0.0,0.0,0.0,0.0,0.0,0.0,0.0,0.0,0.0,0.0,0.0,0.0,0.0,0.0,0.0,0.0,0.0,0.0,0.0,0.0,0.0,0.0,0.0,0.0,0.0,0.0,0.0,0.0,0.0,-2.4322,-2.4894,-2.6071,-2.7357,-2.7357,-2.8538,-3.017,-3.017,-3.2103,-3.4551,-3.5305,-3.6554,-3.7875,-3.8855,0.0,-4.0045,-4.0646,-4.1189,-4.1588,-4.139,-4.1323,-4.1323,0.0,0.0,-4.0478,-4.0115,-4.0016,-3.9532,-3.8082,-3.7524,-3.6986,-3.6053,-3.5596,-3.5084,-3.4171,-3.352,-3.2821,-3.223,-3.1289,-3.0931,-3.123,-3.1424,-3.1618,-3.1618,-3.1618,-3.1826,-3.2274,-3.2361,-3.2765,-3.3715,-3.3791,-3.487,-3.7121,-3.7334,-3.8687,-4.1089,-4.1465,-4.1999,-4.2695,-4.286,-4.2887,-4.2887,-4.2887,-4.2887,-4.2887,-4.2887,-4.2887,-4.2887,-4.2887,-4.2887,-4.2887,-4.2887,-4.2887,-4.2887,0.0,0.0,0.0,0.0,0.0,0.0,0.0,0.0,0.0,0.0,0.0,0.0,0.0,0.0,0.0,0.0,0.0,0.0,0.0,0.0,0.0,0.0,0.0,0.0,0.0,0.0,0.0,0.0,0.0,0.0,0.0,0.0,0.0,0.0,0.0,0.0,0.0,0.0,0.0,0.0,0.0,0.0,-2.5011,-2.4894,-2.5877,-2.7262,-2.7262,-2.8175,0.0,0.0,-3.1335,-3.3079,-3.4966,-3.6001,-3.671,-3.7872,-3.8782,0.0,-4.0424,-4.1039,0.0,0.0,-4.1153,-4.1205,-4.1256,-4.123,-4.0953,-4.0568,-4.0531,-3.9978,-3.7895,-3.7724,-3.7431,0.0,-3.5919,-3.5429,-3.3773,-3.336,-3.27,-3.1208,-3.0806,-3.0713,-3.1127,-3.1424,-3.1618,-3.1618,-3.1618,-3.1848,-3.2361,-3.2634,-3.3093,-3.377,-3.4701,-3.5797,-3.6954,-3.8428,-3.9892,-4.1232,-4.198,-4.2582,-4.2887,-4.2887,-4.2887,-4.2887,-4.2887,-4.2887,-4.2887,-4.2887,-4.2887,-4.2887,-4.2887,-4.2887,-4.2887,-4.2887,-4.2887,-4.2887,0.0,0.0,0.0,0.0,0.0,0.0,0.0,0.0,0.0,0.0,0.0,0.0,0.0,0.0,0.0,0.0,0.0,0.0,0.0,0.0,0.0,0.0,0.0,0.0,0.0,0.0,0.0,0.0,0.0,0.0,0.0,0.0,0.0,0.0,0.0,0.0,0.0,0.0,0.0,0.0,0.0,0.0,-2.5206,-2.4796,-2.5586,-2.687,-2.7156,-2.7904,0.0,0.0,-3.08,-3.2052,-3.4376,-3.5305,-3.5642,-3.6794,-3.7886,-3.8914,-3.9834,0.0,0.0,-4.1018,-4.0954,-4.1009,-4.1199,-4.1152,-4.1064,-4.0917,-4.1009,-4.035,-3.81,-3.8165,-3.7945,-3.6033,-3.6094,-3.5763,-3.3895,-3.34,-3.26,-3.0888,-3.0495,-3.0599,-3.0909,-3.1322,-3.1527,-3.1618,-3.1618,-3.1902,-3.2536,-3.2885,-3.3559,-3.4394,-3.5613,-3.6642,-3.7678,-3.9353,-4.0617,-4.1319,-4.2262,-4.2693,-4.279,-4.2887,-4.2887,-4.2887,-4.2887,-4.2887,-4.2887,-4.2887,-4.2887,-4.2887,-4.2887,-4.2887,-4.2887,-4.2887,-4.2887,-4.2887,0.0,0.0,0.0,0.0,0.0,0.0,0.0,0.0,0.0,0.0,0.0,0.0,0.0,0.0,0.0,0.0,0.0,0.0,0.0,0.0,0.0,0.0,0.0,0.0,0.0,0.0,0.0,0.0,0.0,0.0,0.0,0.0,0.0,0.0,0.0,0.0,0.0,0.0,0.0,0.0,0.0,0.0,-2.4134,-2.4097,-2.4786,-2.5887,-2.6965,0.0,0.0,0.0,-3.08,-3.1877,-3.3564,-3.4498,0.0,-3.583,-3.6908,0.0,0.0,0.0,-4.0115,-4.0646,-4.0634,-4.0658,-4.1081,-4.0606,-4.0217,-4.0852,-4.1087,-4.0545,-3.8646,-3.8776,-3.8559,-3.6696,-3.6358,-3.5966,-3.4884,-3.3895,-3.2789,-3.1677,-3.0888,-3.0391,0.0,-3.092,-3.1322,-3.1618,-3.1618,-3.2044,-3.2994,-3.306,-3.4026,-3.6077,-3.6111,-3.7489,-4.03,-4.0084,-4.0818,-4.24,-4.219,-4.2289,-4.2511,-4.279,-4.2887,-4.2887,-4.2887,-4.2887,-4.2887,-4.2887,-4.2887,-4.2887,-4.2887,-4.2887,-4.2887,-4.2887,-4.2887,-4.2887,0.0,0.0,0.0,0.0,0.0,0.0,0.0,0.0,0.0,0.0,0.0,0.0,0.0,0.0,0.0,0.0,0.0,0.0,0.0,0.0,0.0,0.0,0.0,0.0,0.0,0.0,0.0,0.0,0.0,0.0,0.0,0.0,0.0,0.0,0.0,0.0,0.0,0.0,0.0,0.0,0.0,0.0,-2.3628,-2.3998,-2.4796,-2.579,0.0,0.0,0.0,0.0,-3.0441,-3.1057,-3.3297,0.0,0.0,-3.6336,-3.7,-3.7587,0.0,0.0,-3.9996,-4.1023,-4.1087,-4.097,-4.1675,-4.1443,-4.1219,-4.1533,-4.1682,-4.1136,-3.9262,-3.9061,-3.8585,-3.6722,-3.6358,-3.6061,-3.4981,-3.3895,-3.2789,-3.1779,-3.0681,0.0,0.0,0.0,0.0,-3.1322,-3.1843,-3.2405,-3.3038,-3.4095,-3.5103,-3.622,-3.7713,-3.8963,-4.0096,-4.0831,-4.1571,-4.2511,-4.2595,-4.2693,-4.279,-4.2887,-4.2887,-4.2887,-4.2887,-4.2887,-4.2887,-4.2887,-4.2887,-4.2887,-4.2887,-4.2887,-4.2887,-4.2887,-4.2887,-4.2887,0.0,0.0,0.0,0.0,0.0,0.0,0.0,0.0,0.0,0.0,0.0,0.0,0.0,0.0,0.0,0.0,0.0,0.0,0.0,0.0,0.0,0.0,0.0,0.0,0.0,0.0,0.0,0.0,0.0,0.0,0.0,0.0,0.0,0.0,0.0,0.0,0.0,0.0,0.0,0.0,0.0,0.0,-2.3329,-2.3511,-2.4393,0.0,0.0,0.0,0.0,0.0,0.0,-3.0429,-3.2722,-3.394,-3.4786,-3.5843,-3.6387,-3.6908,-3.8219,-3.8737,-3.9372,-4.0918,-4.0919,-4.0736,-4.1746,-4.1391,-4.09,-4.1462,-4.1587,-4.0955,-3.9248,-3.9061,-3.8585,-3.6722,-3.6358,-3.6156,-3.5475,-3.4483,-3.3388,-3.2286,-3.1187,-3.0692,0.0,0.0,0.0,-3.1467,-3.2383,-3.3265,-3.391,-3.529,-3.6544,-3.7382,-3.8871,-3.9905,-4.0617,-4.1272,-4.171,-4.2119,-4.2484,-4.2582,-4.2582,-4.279,-4.3009,-4.3199,-4.3199,-4.3335,-4.3538,-4.3538,-4.3402,-4.3199,-4.3199,-4.3077,-4.2887,-4.2887,-4.2887,-4.2887,0.0,0.0,0.0,0.0,0.0,0.0,0.0,0.0,0.0,0.0,0.0,0.0,0.0,0.0,0.0,0.0,0.0,0.0,0.0,0.0,0.0,0.0,0.0,0.0,0.0,0.0,0.0,0.0,0.0,0.0,0.0,0.0,0.0,0.0,0.0,0.0,0.0,0.0,0.0,0.0,0.0,0.0,-2.3129,-2.2627,0.0,0.0,0.0,0.0,0.0,0.0,0.0,0.0,0.0,-3.297,-3.3797,-3.4468,-3.5127,-3.6017,-3.7615,-3.7919,-3.8325,-4.0397,-4.0246,-4.0023,-4.1346,-4.0371,-3.9564,-4.0809,-4.0838,-4.0067,0.0,0.0,-3.8496,-3.6628,-3.6358,-3.6358,-3.6358,-3.5475,-3.4385,0.0,0.0,0.0,0.0,0.0,0.0,-3.2173,0.0,-3.4682,-3.5523,-3.6647,-3.8032,-3.9584,-3.9712,-4.0338,-4.1696,-4.1411,-4.1311,-4.1311,-4.1921,-4.2119,-4.2119,-4.276,-4.328,-4.3823,-4.3823,-4.4149,-4.4705,-4.4705,-4.4352,-4.3823,-4.3823,-4.3484,-4.2982,-4.2941,-4.2941,-4.2928,0.0,0.0,0.0,0.0,0.0,0.0,0.0,0.0,0.0,0.0,0.0,0.0,0.0,0.0,0.0,0.0,0.0,0.0,0.0,0.0,0.0,0.0,0.0,0.0,0.0,0.0,0.0,0.0,0.0,0.0,0.0,0.0,0.0,0.0,0.0,0.0,0.0,0.0,0.0,0.0,0.0,0.0,-2.1623,0.0,0.0,0.0,0.0,0.0,0.0,0.0,0.0,0.0,0.0,-3.3215,-3.3797,-3.4468,-3.5127,-3.6047,-3.7484,-3.7882,-3.83,-4.0342,-4.0516,-4.0316,-4.1216,-4.111,-4.0802,-4.0802,-4.0985,-4.052,0.0,0.0,0.0,-3.6073,-3.6003,0.0,-3.6098,-3.5391,0.0,-3.4385,0.0,-3.2948,-3.3311,-3.3765,0.0,0.0,-3.5701,-3.6339,-3.6716,-3.813,-3.915,-3.9597,-4.0453,-4.0997,-4.1411,-4.1511,-4.1597,-4.161,-4.2345,-4.2758,-4.2771,-4.3513,-4.3997,-4.4132,-4.436,-4.4556,-4.4705,-4.4705,-4.461,-4.4474,-4.4474,-4.4379,-4.4189,-4.3715,-4.3552,-4.3484,0.0,0.0,0.0,0.0,0.0,0.0,0.0,0.0,0.0,0.0,0.0,0.0,0.0,0.0,0.0,0.0,0.0,0.0,0.0,0.0,0.0,0.0,0.0,0.0,0.0,0.0,0.0,0.0,0.0,0.0,0.0,0.0,0.0,0.0,0.0,0.0,0.0,0.0,0.0,0.0,0.0,0.0,0.0,0.0,0.0,0.0,0.0,0.0,0.0,0.0,0.0,-3.0902,-3.2077,-3.3031,-3.3797,-3.4134,0.0,-3.6334,-3.7526,-3.7933,-3.8518,-4.0167,-4.0236,-4.0054,-4.0831,-4.0548,-4.0124,-4.028,-4.0365,0.0,0.0,0.0,0.0,0.0,0.0,0.0,-3.6015,-3.5692,-3.5453,0.0,-3.4631,0.0,-3.5051,-3.5423,-3.6212,0.0,-3.7467,-3.7667,-3.8014,-3.9548,-4.0351,-4.0351,-4.0997,-4.1442,-4.169,-4.1878,-4.201,-4.2259,-4.2893,-4.3154,-4.3167,-4.3806,-4.4202,-4.4443,0.0,-4.5016,-4.5259,-4.5478,-4.5329,-4.5085,-4.5085,-4.4936,-4.4664,-4.4312,-4.4176,-4.3995,0.0,0.0,0.0,0.0,0.0,0.0,0.0,0.0,0.0,0.0,0.0,0.0,0.0,0.0,0.0,0.0,0.0,0.0,0.0,0.0,0.0,0.0,0.0,0.0,0.0,0.0,0.0,0.0,0.0,0.0,0.0,0.0,0.0,0.0,0.0,0.0,0.0,0.0,0.0,0.0,0.0,0.0,0.0,0.0,0.0,0.0,0.0,0.0,0.0,0.0,-2.9932,-3.0543,-3.1383,-3.2525,-3.3543,-3.3628,-3.5042,-3.6688,-3.756,-3.8033,-3.8683,-3.9886,-3.974,-3.9482,-4.0343,-3.9509,-3.8778,-3.9521,0.0,-3.8792,-3.7527,0.0,-3.7428,-3.5886,0.0,-3.592,-3.592,-3.6243,-3.6251,-3.5818,-3.584,-3.6081,-3.6727,-3.7212,-3.8054,-3.9285,-3.8944,-3.8928,-3.9403,-4.058,-4.135,-4.1428,-4.1428,-4.1703,-4.2278,-4.2278,-4.2526,-4.3023,-4.3297,-4.3427,-4.344,-4.3844,-4.4266,-4.4744,-4.5045,0.0,-4.602,-4.6245,-4.6066,-4.5606,-4.5606,-4.5294,-4.4834,-4.4753,-4.4712,-4.4631,0.0,0.0,0.0,0.0,0.0,0.0,0.0,0.0,0.0,0.0,0.0,0.0,0.0,0.0,0.0,0.0,0.0,0.0,0.0,0.0,0.0,0.0,0.0,0.0,0.0,0.0,0.0,0.0,0.0,0.0,0.0,0.0,0.0,0.0,0.0,0.0,0.0,0.0,0.0,0.0,0.0,0.0,0.0,0.0,0.0,0.0,0.0,0.0,0.0,0.0,-2.9577,-2.9932,-3.1294,-3.2276,-3.297,-3.3556,-3.4705,-3.6018,-3.7216,-3.7966,-3.8532,-3.927,-3.9387,-3.9305,-3.9482,-3.9664,0.0,0.0,0.0,-3.9455,-3.8026,-3.75,0.0,-3.5795,0.0,0.0,0.0,0.0,-3.6771,0.0,0.0,0.0,0.0,0.0,0.0,0.0,0.0,-4.0287,-4.0567,-4.0997,-4.1533,-4.2004,-4.2017,-4.2291,-4.2866,-4.2879,-4.2918,-4.3036,-4.3599,-4.3821,-4.3848,-4.4652,-4.5049,-4.5142,-4.5449,0.0,-4.5702,-4.5702,-4.5648,-4.5568,-4.5568,-4.5502,-4.5355,-4.4861,-4.4895,-4.4904,0.0,0.0,0.0,0.0,0.0,0.0,0.0,0.0,0.0,0.0,0.0,0.0,0.0,0.0,0.0,0.0,0.0,0.0,0.0,0.0,0.0,0.0,0.0,0.0,0.0,0.0,0.0,0.0,0.0,0.0,0.0,0.0,0.0,0.0,0.0,0.0,0.0,0.0,0.0,0.0,0.0,0.0,0.0,0.0,0.0,0.0,0.0,0.0,0.0,0.0,-2.929,-2.992,-3.1294,-3.2189,-3.2797,-3.3043,-3.4573,-3.6174,-3.681,-3.7906,-3.8952,-3.9237,-3.9305,-3.9305,-3.9305,0.0,0.0,0.0,0.0,-3.92,-3.8093,0.0,0.0,0.0,0.0,0.0,0.0,0.0,0.0,0.0,0.0,0.0,0.0,0.0,0.0,0.0,0.0,-4.0696,-4.0707,-4.1383,-4.2017,-4.2592,-4.2618,-4.2892,-4.3454,-4.3467,-4.3611,-4.3912,-4.4186,-4.4317,-4.433,-4.4725,-4.4951,-4.4951,-4.5287,0.0,-4.5395,-4.5502,-4.5595,-4.5595,-4.5595,-4.5595,-4.5555,-4.5289,-4.5288,-4.5194,0.0,0.0,0.0,0.0,0.0,0.0,0.0,0.0,0.0,0.0,0.0,0.0,0.0,0.0,0.0,0.0,0.0,0.0,0.0,0.0,0.0,0.0,0.0,0.0,0.0,0.0,0.0,0.0,0.0,0.0,0.0,0.0,0.0,0.0,0.0,0.0,0.0,0.0,0.0,0.0,0.0,0.0,0.0,0.0,0.0,0.0,0.0,0.0,0.0,0.0,-2.891,-2.9897,-3.1104,-3.1913,-3.2537,-3.2711,-3.4331,-3.6187,-3.6405,-3.7651,-3.8863,-3.8997,-3.8935,-3.8832,-3.8832,-3.9029,0.0,0.0,-3.9215,-3.9013,-3.8383,0.0,0.0,0.0,0.0,0.0,0.0,0.0,0.0,0.0,0.0,0.0,0.0,0.0,0.0,0.0,0.0,0.0,-4.0991,-4.1904,-4.2605,-4.3193,-4.3206,-4.348,-4.4055,-4.4055,-4.4278,-4.4722,-4.4722,-4.4722,-4.4722,-4.4722,-4.4722,-4.4722,-4.4964,0.0,0.0,-4.5274,-4.5381,-4.5381,-4.5381,-4.5381,-4.5381,-4.5381,-4.5488,-4.5435,0.0,0.0,0.0,0.0,0.0,0.0,0.0,0.0,0.0,0.0,0.0,0.0,0.0,0.0,0.0,0.0,0.0,0.0,0.0,0.0,0.0,0.0,0.0,0.0,0.0,0.0,0.0,0.0,0.0,0.0,0.0,0.0,0.0,0.0,0.0,0.0,0.0,0.0,0.0,0.0,0.0,0.0,0.0,0.0,0.0,0.0,0.0,0.0,0.0,0.0,0.0,-2.959,-3.0351,-3.1282,-3.2201,-3.2785,0.0,0.0,-3.62,-3.7008,-3.7643,-3.8158,-3.7821,-3.7348,-3.7348,0.0,0.0,-3.9084,-3.9453,-3.9721,-3.9475,-3.7912,0.0,0.0,0.0,0.0,0.0,0.0,0.0,0.0,0.0,0.0,0.0,0.0,0.0,0.0,0.0,0.0,-4.2357,-4.271,-4.3206,-4.3781,-4.3794,-4.4068,-4.4643,-4.4657,-4.467,-4.4722,-4.4722,-4.4722,-4.4722,-4.4722,-4.4722,-4.4722,-4.4722,0.0,0.0,-4.4735,-4.4735,-4.4735,-4.4735,-4.4735,-4.4735,-4.4735,-4.4951,-4.5167,0.0,0.0,0.0,0.0,0.0,0.0,0.0,0.0,0.0,0.0,0.0,0.0,0.0,0.0,0.0,0.0,0.0,0.0,0.0,0.0,0.0,0.0,0.0,0.0,0.0,0.0,0.0,0.0,0.0,0.0,0.0,0.0,0.0,0.0,0.0,0.0,0.0,0.0,0.0,0.0,0.0,0.0,0.0,0.0,0.0,0.0,0.0,0.0,0.0,0.0,0.0,0.0,-3.0699,-3.1548,0.0,0.0,-3.3171,-3.4161,-3.4971,-3.5981,-3.6832,-3.739,-3.7526,-3.7595,-3.7595,0.0,0.0,-3.8921,-3.9278,-3.9548,-3.8982,-3.7579,-3.6436,0.0,0.0,0.0,0.0,0.0,0.0,0.0,0.0,0.0,0.0,0.0,0.0,0.0,0.0,0.0,-4.3061,-4.317,-4.3568,-4.4369,-4.4382,-4.45,-4.4722,-4.4722,-4.4722,-4.4722,-4.5101,-4.5271,-4.5271,-4.5624,-4.5597,-4.5271,-4.5271,0.0,0.0,-4.4722,-4.4722,-4.4722,-4.4722,-4.4722,-4.4722,-4.4722,-4.4735,-4.4843,0.0,0.0,0.0,0.0,0.0,0.0,0.0,0.0,0.0,0.0,0.0,0.0,0.0,0.0,0.0,0.0,0.0,0.0,0.0,0.0,0.0,0.0,0.0,0.0,0.0,0.0,0.0,0.0,0.0,0.0,0.0,0.0,0.0,0.0,0.0,0.0,0.0,0.0,0.0,0.0,0.0,0.0,0.0,0.0,0.0,0.0,0.0,0.0,0.0,0.0,0.0,0.0,0.0,0.0,0.0,0.0,-3.2757,-3.3769,-3.4479,-3.542,-3.637,-3.7001,-3.7303,-3.7425,0.0,0.0,0.0,-3.8736,-3.9081,-3.926,-3.8649,-3.7368,-3.6459,0.0,0.0,-3.5777,0.0,0.0,0.0,0.0,0.0,0.0,0.0,0.0,0.0,0.0,0.0,0.0,0.0,-4.3618,-4.4041,-4.4505,-4.4796,-4.4996,-4.4996,-4.5153,-4.5245,-4.5258,-4.5676,-4.5885,-4.5898,-4.6303,-4.6264,-4.5872,-4.5702,0.0,0.0,-4.48,-4.4722,-4.4722,-4.4722,-4.4722,-4.4722,-4.4722,-4.4722,-4.4722,0.0,0.0,0.0,0.0,0.0,0.0,0.0,0.0,0.0,0.0,0.0,0.0,0.0,0.0,0.0,0.0,0.0,0.0,0.0,0.0,0.0,0.0,0.0,0.0,0.0,0.0,0.0,0.0,0.0,0.0,0.0,0.0,0.0,0.0,0.0,0.0,0.0,0.0,0.0,0.0,0.0,0.0,0.0,0.0,0.0,0.0,0.0,0.0,0.0,0.0,0.0,0.0,0.0,0.0,0.0,0.0,-3.2668,-3.3767,-3.4848,-3.5543,-3.6118,-3.727,-3.6969,-3.6398,0.0,0.0,0.0,-3.8401,-3.8835,-3.9208,-3.9208,-3.7624,-3.6579,-3.7096,-3.6302,0.0,0.0,0.0,0.0,0.0,0.0,0.0,0.0,0.0,0.0,0.0,0.0,0.0,0.0,-4.4262,-4.4536,-4.4326,-4.509,-4.5624,-4.5624,-4.6173,-4.646,-4.646,-4.6473,-4.6473,-4.6473,-4.6473,-4.6473,0.0,0.0,0.0,0.0,-4.497,-4.4722,-4.4722,-4.4722,-4.4722,-4.4722,-4.4722,-4.4722,-4.4722,0.0,0.0,0.0,0.0,0.0,0.0,0.0,0.0,0.0,0.0,0.0,0.0,0.0,0.0,0.0,0.0,0.0,0.0,0.0,0.0,0.0,0.0,0.0,0.0,0.0,0.0,0.0,0.0,0.0,0.0,0.0,0.0,0.0,0.0,0.0,0.0,0.0,0.0,0.0,0.0,0.0,0.0,0.0,0.0,0.0,0.0,0.0,0.0,0.0,0.0,0.0,0.0,0.0,0.0,0.0,0.0,0.0,0.0,-3.4676,-3.5345,-3.583,-3.6621,-3.6867,-3.694,-3.694,0.0,0.0,-3.8246,-3.8398,-3.8469,-3.7953,-3.7073,-3.6459,-3.6627,-3.6675,-3.6862,0.0,0.0,0.0,0.0,0.0,0.0,0.0,0.0,0.0,0.0,0.0,0.0,0.0,-4.4726,-4.4914,-4.4908,-4.5787,-4.6212,-4.6212,-4.6382,-4.6473,-4.6486,-4.6878,-4.7061,-4.7074,-4.7466,-4.7427,0.0,0.0,0.0,0.0,-4.6003,-4.5924,-4.5885,-4.5493,-4.5349,-4.5297,-4.4879,-4.4722,-4.4787,0.0,0.0,0.0,0.0,0.0,0.0,0.0,0.0,0.0,0.0,0.0,0.0,0.0,0.0,0.0,0.0,0.0,0.0,0.0,0.0,0.0,0.0,0.0,0.0,0.0,0.0,0.0,0.0,0.0,0.0,0.0,0.0,0.0,0.0,0.0,0.0,0.0,0.0,0.0,0.0,0.0,0.0,-2.4748,0.0,0.0,0.0,0.0,0.0,0.0,0.0,0.0,0.0,0.0,0.0,0.0,0.0,-3.4006,0.0,0.0,-3.5653,-3.6338,-3.6867,-3.724,0.0,0.0,0.0,0.0,0.0,-3.7825,-3.78,-3.7296,-3.6928,-3.6771,-3.6964,-3.7108,0.0,0.0,0.0,0.0,0.0,0.0,0.0,0.0,0.0,0.0,0.0,0.0,0.0,0.0,-4.5065,-4.5361,-4.5461,-4.6277,-4.6586,-4.6459,-4.6781,-4.6885,-4.677,-4.712,-4.7289,-4.7302,-4.7652,-4.7743,0.0,0.0,0.0,0.0,-4.6565,-4.6473,-4.6447,-4.6094,-4.595,-4.5898,-4.5532,-4.5258,-4.5153,0.0,0.0,0.0,0.0,0.0,0.0,0.0,0.0,0.0,0.0,0.0,0.0,0.0,0.0,0.0,0.0,0.0,0.0,0.0,0.0,0.0,0.0,0.0,0.0,0.0,0.0,0.0,0.0,-2.3014,-2.3014,-2.3014,0.0,0.0,0.0,0.0,0.0,0.0,0.0,0.0,0.0,0.0,0.0,0.0,0.0,0.0,0.0,0.0,0.0,0.0,0.0,0.0,0.0,0.0,0.0,0.0,0.0,0.0,0.0,0.0,0.0,0.0,0.0,0.0,0.0,0.0,0.0,0.0,0.0,0.0,0.0,-3.7192,-3.7192,-3.7348,-3.7841,-3.7553,0.0,0.0,0.0,0.0,0.0,0.0,0.0,0.0,0.0,0.0,0.0,0.0,0.0,0.0,-4.5468,-4.5876,-4.5876,-4.6592,-4.6721,-4.6462,-4.7315,-4.756,-4.7205,-4.7205,-4.7205,-4.7205,-4.7205,-4.7324,0.0,0.0,0.0,0.0,-4.6813,-4.6604,-4.6591,-4.6552,-4.6538,-4.6538,-4.6486,-4.6146,-4.5767,0.0,0.0,0.0,0.0,0.0,0.0,0.0,0.0,0.0,0.0,0.0,0.0,0.0,0.0,0.0,0.0,0.0,0.0,0.0,0.0,0.0,0.0,0.0,0.0,0.0,0.0,0.0,-2.3014,-2.3014,-2.3014,-2.3014,-2.3014,0.0,0.0,0.0,0.0,0.0,0.0,0.0,0.0,0.0,0.0,0.0,0.0,0.0,0.0,-2.7703,-2.7409,0.0,0.0,0.0,0.0,0.0,0.0,0.0,0.0,-3.5809,-3.6314,-3.6711,0.0,-3.7829,-3.795,-3.7673,0.0,0.0,0.0,0.0,0.0,0.0,0.0,0.0,0.0,0.0,0.0,0.0,0.0,0.0,0.0,0.0,0.0,0.0,0.0,0.0,0.0,0.0,0.0,0.0,0.0,0.0,-4.6037,-4.6232,-4.6232,-4.6603,-4.6933,-4.7013,-4.726,-4.7324,-4.7205,-4.7205,-4.7205,-4.7205,-4.7205,-4.7205,0.0,0.0,0.0,-4.7236,-4.7354,-4.7419,-4.738,-4.7182,-4.7127,-4.7074,-4.6643,-4.6395,-4.6355,0.0,0.0,0.0,0.0,0.0,0.0,0.0,0.0,0.0,0.0,0.0,0.0,0.0,0.0,0.0,0.0,0.0,0.0,0.0,0.0,0.0,0.0,0.0,0.0,0.0,0.0,0.0,0.0,0.0,-2.3014,0.0,0.0,0.0,0.0,0.0,0.0,0.0,0.0,0.0,0.0,-2.6286,0.0,0.0,0.0,0.0,0.0,-2.8107,-2.791,0.0,-2.9684,-3.0662,-3.1527,0.0,0.0,0.0,0.0,-3.6543,-3.6879,-3.7409,-3.7757,-3.7986,-3.7986,-3.7769,-3.7625,0.0,0.0,0.0,0.0,0.0,0.0,0.0,0.0,0.0,0.0,0.0,0.0,0.0,0.0,0.0,0.0,0.0,0.0,0.0,0.0,0.0,0.0,0.0,0.0,0.0,-4.6313,-4.6313,-4.6313,-4.6434,-4.6661,-4.6755,-4.6993,-4.6993,-4.6755,-4.6755,-4.6755,-4.6755,-4.6755,-4.6874,0.0,0.0,0.0,-4.7205,-4.7442,-4.7442,-4.7416,-4.7354,-4.7237,-4.7199,-4.7132,-4.6859,-4.6729,0.0,0.0,0.0,0.0,0.0,0.0,0.0,0.0,0.0,0.0,0.0,0.0,0.0,0.0,0.0,0.0,0.0,0.0,0.0,0.0,0.0,0.0,0.0,0.0,0.0,0.0,0.0,0.0,0.0,0.0,0.0,0.0,0.0,0.0,0.0,0.0,0.0,0.0,0.0,0.0,-2.7365,0.0,0.0,0.0,0.0,0.0,0.0,0.0,0.0,-2.9802,-3.0862,-3.2064,-3.3618,0.0,0.0,0.0,0.0,0.0,-3.7841,-3.7986,-3.7986,-3.7986,-3.7926,-3.7878,0.0,0.0,0.0,0.0,0.0,0.0,0.0,0.0,0.0,0.0,0.0,0.0,0.0,0.0,0.0,0.0,0.0,0.0,0.0,0.0,0.0,0.0,0.0,0.0,0.0,-4.6313,-4.6313,-4.6313,-4.6313,-4.6313,-4.6313,-4.6554,-4.6554,-4.6313,-4.6313,-4.6313,-4.6313,-4.6313,-4.6434,-4.6673,0.0,0.0,-4.7087,-4.7087,-4.71,-4.7087,-4.7205,-4.7205,-4.7205,-4.756,-4.7289,-4.7082,0.0,0.0,0.0,0.0,0.0,0.0,0.0,0.0,0.0,0.0,0.0,0.0,0.0,0.0,0.0,0.0,0.0,0.0,0.0,0.0,0.0,0.0,0.0,0.0,0.0,0.0,0.0,0.0,0.0,0.0,-2.3014,-2.3014,-2.3014,0.0,0.0,0.0,0.0,-2.4667,-2.5854,-2.7688,-2.7814,0.0,0.0,0.0,0.0,0.0,0.0,0.0,0.0,-3.0513,-3.1816,-3.2999,-3.4128,0.0,0.0,0.0,0.0,0.0,-3.7841,-3.7986,-3.7986,-3.7986,-3.7649,-3.7433,0.0,0.0,0.0,0.0,0.0,0.0,0.0,0.0,0.0,0.0,0.0,0.0,0.0,0.0,0.0,0.0,0.0,0.0,0.0,0.0,0.0,0.0,0.0,0.0,0.0,-4.6313,-4.6313,-4.6313,-4.6313,-4.6313,-4.6313,-4.6313,-4.6313,-4.6313,-4.6313,-4.6313,-4.6313,-4.6313,-4.6313,-4.6434,0.0,-4.6434,-4.6421,-4.678,-4.6913,-4.69,-4.71,-4.7205,-4.7205,-4.7205,-4.7272,-4.7221,0.0,0.0,0.0,0.0,0.0,0.0,0.0,0.0,0.0,0.0,0.0,0.0,0.0,0.0,0.0,0.0,0.0,0.0,0.0,0.0,0.0,0.0,0.0,0.0,0.0,0.0,0.0,0.0,0.0,-2.3014,-2.3014,-2.3014,-2.3014,-2.3014,0.0,0.0,0.0,-2.5415,-2.6617,-2.8028,0.0,0.0,0.0,0.0,0.0,0.0,0.0,0.0,0.0,0.0,-3.2028,-3.3241,-3.4581,0.0,0.0,0.0,0.0,0.0,-3.7914,-3.7986,-3.7986,-3.7986,-3.7793,-3.7685,-3.7926,0.0,0.0,0.0,0.0,0.0,0.0,0.0,0.0,0.0,0.0,0.0,0.0,0.0,0.0,0.0,0.0,0.0,0.0,0.0,0.0,0.0,0.0,0.0,0.0,0.0,-4.6313,-4.6313,-4.6313,-4.6313,-4.6313,-4.6313,-4.6313,-4.6313,-4.6313,-4.6313,-4.6313,-4.6313,-4.6313,-4.6313,0.0,-4.6313,-4.6313,-4.6434,-4.6554,-4.6554,-4.6648,-4.6755,-4.6768,-4.6887,-4.7112,-4.7205,0.0,0.0,0.0,0.0,0.0,0.0,0.0,0.0,0.0,0.0,0.0,0.0,0.0,0.0,0.0,0.0,0.0,0.0,0.0,0.0,0.0,0.0,0.0,0.0,0.0,0.0,0.0,-2.3665,-2.3387,-2.326,-2.3252,-2.3173,-2.3294,0.0,0.0,0.0,0.0,-2.6784,-2.7659,-2.8447,0.0,0.0,0.0,0.0,0.0,0.0,0.0,0.0,0.0,0.0,0.0,0.0,0.0,0.0,0.0,-3.7866,-3.7986,-3.7986,-3.7986,-3.7986,-3.7986,-3.7986,0.0,-3.7986,-3.7986,0.0,0.0,0.0,0.0,0.0,0.0,0.0,0.0,0.0,0.0,0.0,0.0,0.0,0.0,0.0,0.0,0.0,0.0,0.0,0.0,0.0,0.0,0.0,0.0,0.0,-4.6313,-4.6313,-4.6313,-4.6313,-4.6313,-4.6313,-4.6313,-4.6313,-4.6313,-4.6313,-4.6313,-4.6313,-4.6313,-4.6313,-4.6313,-4.6313,-4.6313,-4.6313,-4.6313,-4.6313,-4.6313,-4.6313,-4.6313,-4.6554,-4.6768,-4.6981,0.0,0.0,0.0,0.0,0.0,0.0,0.0,0.0,0.0,0.0,0.0,0.0,0.0,0.0,0.0,0.0,0.0,0.0,0.0,0.0,0.0,0.0,0.0,0.0,0.0,-2.4031,-2.4015,-2.4015,-2.3991,-2.3975,-2.3967,-2.3649,-2.4236,-2.5788,0.0,0.0,0.0,-2.8885,-2.9443,-3.0209,-2.961,0.0,0.0,0.0,0.0,0.0,0.0,0.0,0.0,0.0,0.0,0.0,0.0,0.0,-3.7938,-3.7974,-3.7986,-3.7986,-3.7986,-3.7986,-3.7986,-3.7986,0.0,0.0,-3.7986,-3.7986,0.0,0.0,0.0,0.0,0.0,0.0,0.0,0.0,0.0,0.0,0.0,0.0,0.0,0.0,0.0,0.0,0.0,0.0,0.0,0.0,0.0,0.0,0.0,0.0,0.0,-4.6313,-4.6313,-4.6313,-4.6313,-4.6313,-4.6313,-4.6313,-4.6313,-4.6313,-4.6313,-4.6313,-4.6313,-4.6313,-4.6313,-4.6313,-4.6313,-4.6313,-4.6313,-4.6313,-4.6313,-4.6313,-4.6313,-4.6313,-4.6313,-4.6421,0.0,0.0,0.0,0.0,0.0,0.0,0.0,0.0,0.0,0.0,0.0,0.0,0.0,0.0,0.0,0.0,0.0,0.0,0.0,0.0,0.0,0.0,0.0,-2.3271,-2.3504,-2.362,-2.384,-2.4055,-2.4055,-2.4055,-2.4047,-2.3693,0.0,0.0,0.0,0.0,0.0,-2.8182,-2.8532,-2.9311,-2.9045,-2.9026,0.0,0.0,0.0,0.0,0.0,0.0,0.0,0.0,-3.2446,0.0,0.0,0.0,-3.7986,-3.7986,-3.7986,-3.7986,-3.7986,-3.7986,-3.7986,-3.7986,0.0,0.0,0.0,0.0,0.0,0.0,0.0,0.0,0.0,0.0,0.0,0.0,0.0,0.0,0.0,0.0,0.0,0.0,0.0,0.0,0.0,0.0,0.0,0.0,0.0,0.0,0.0,0.0,0.0,-4.6313,-4.6313,-4.6313,-4.6313,-4.6313,-4.6313,-4.6313,-4.6313,-4.6313,-4.6313,-4.6313,-4.6313,-4.6313,-4.6313,-4.6313,-4.6313,-4.6313,-4.6313,-4.6313,-4.6313,-4.6313,-4.6313,-4.6313,-4.6313,-4.6313,0.0,0.0,0.0,0.0,0.0,0.0,0.0,0.0,0.0,0.0,0.0,0.0,0.0,0.0,0.0,0.0,0.0,0.0,0.0,0.0,0.0,0.0,0.0,-2.2575,-2.2813,-2.292,-2.337,-2.3819,-2.3819,-2.3819,-2.3811,0.0,0.0,0.0,0.0,0.0,0.0,0.0,-2.8573,-2.9016,-2.877,-2.8859,0.0,0.0,0.0,0.0,0.0,0.0,0.0,0.0,0.0,0.0,0.0,0.0,0.0,0.0,-3.8118,-3.8022,-3.8202,-3.825,-3.825,0.0,0.0,0.0,0.0,0.0,0.0,0.0,0.0,0.0,0.0,0.0,0.0,0.0,0.0,0.0,0.0,0.0,0.0,0.0,0.0,0.0,0.0,0.0,0.0,0.0,0.0,0.0,0.0,0.0,0.0,0.0,-4.6313,-4.6313,-4.6313,-4.6313,-4.6313,-4.6313,-4.6313,-4.6313,-4.6313,-4.6313,-4.6313,-4.6313,-4.6313,-4.6313,-4.6313,-4.6313,-4.6313,-4.6313,-4.6313,-4.6313,-4.6313,-4.6313,-4.6313,-4.6313,0.0,0.0,0.0,0.0,0.0,0.0,0.0,0.0,0.0,0.0,0.0,0.0,0.0,0.0,0.0,0.0,0.0,0.0,0.0,0.0,0.0,0.0,0.0,-2.2108,-2.2116,-2.2108,-2.2436,-2.3219,-2.3227,-2.3227,-2.3219,-2.4029,0.0,0.0,0.0,0.0,0.0,0.0,0.0,-2.9521,-2.9092,-2.918,-2.956,0.0,0.0,0.0,0.0,0.0,0.0,0.0,0.0,0.0,0.0,0.0,0.0,0.0,-3.8431,-3.8118,-3.8671,-3.8827,0.0,0.0,0.0,0.0,0.0,0.0,0.0,0.0,0.0,0.0,0.0,0.0,0.0,0.0,0.0,0.0,0.0,0.0,0.0,0.0,0.0,0.0,0.0,0.0,0.0,0.0,0.0,0.0,0.0,0.0,0.0,0.0,-4.6313,-4.6313,-4.6313,-4.6313,-4.6313,-4.6313,-4.6313,-4.6313,-4.6313,-4.6313,-4.6313,-4.6313,-4.6313,-4.6313,-4.6313,-4.6313,-4.6313,-4.6313,-4.6313,-4.6313,-4.6313,-4.6313,-4.6313,-4.6313,0.0,0.0,0.0,0.0,0.0,0.0,0.0,0.0,0.0,0.0,0.0,0.0,0.0,0.0,0.0,0.0,0.0,0.0,0.0,0.0,0.0,0.0,0.0,0.0,0.0,0.0,-2.2314,-2.4013,-2.3458,-2.3574,0.0,0.0,0.0,-2.6558,0.0,0.0,0.0,0.0,0.0,0.0,-2.8848,-2.8994,-2.918,0.0,0.0,0.0,0.0,0.0,0.0,0.0,0.0,0.0,0.0,0.0,0.0,0.0,-3.926,-3.9164,-3.932,-3.9369,0.0,0.0,0.0,0.0,0.0,0.0,0.0,0.0,0.0,0.0,0.0,0.0,0.0,0.0,0.0,0.0,0.0,0.0,0.0,0.0,0.0,0.0,0.0,0.0,0.0,0.0,0.0,0.0,0.0,0.0,0.0,0.0,-4.6313,-4.6313,-4.6313,-4.6313,-4.6313,-4.6313,-4.6313,-4.6313,-4.6313,-4.6313,-4.6313,-4.6313,-4.6313,-4.6313,-4.6313,-4.6313,-4.6313,-4.6313,-4.6313,-4.6313,-4.6313,-4.6313,-4.6313,-4.6313,0.0,0.0,0.0,0.0,0.0,0.0,0.0,0.0,0.0,0.0,0.0,0.0,0.0,0.0,0.0,0.0,0.0,0.0,0.0,0.0,0.0,0.0,0.0,0.0,0.0,-2.1987,-2.298,0.0,0.0,0.0,0.0,0.0,0.0,-2.6448,0.0,-2.7891,0.0,0.0,0.0,0.0,-2.8818,-2.9121,-2.9482,0.0,0.0,0.0,0.0,0.0,0.0,0.0,0.0,0.0,0.0,0.0,0.0,-3.9042,-3.9543,-3.9546,-3.9515,0.0,0.0,0.0,0.0,0.0,0.0,0.0,0.0,0.0,0.0,0.0,0.0,0.0,0.0,0.0,0.0,0.0,0.0,0.0,0.0,0.0,0.0,0.0,0.0,0.0,0.0,0.0,0.0,0.0,0.0,0.0,0.0,0.0,-4.6313,-4.6313,-4.6313,-4.6313,-4.6313,-4.6313,-4.6313,-4.6313,-4.6313,-4.6313,-4.6313,-4.6313,-4.6313,-4.6313,-4.6313,-4.6313,-4.6313,-4.6313,-4.6313,-4.5926,-4.5537,-4.6059,-4.5926,-4.5537,0.0,0.0,0.0,0.0,0.0,0.0,0.0,0.0,0.0,0.0,0.0,0.0,0.0,0.0,0.0,0.0,0.0,0.0,0.0,0.0,0.0,0.0,0.0,0.0,0.0,0.0,0.0,0.0,0.0,0.0,0.0,0.0,-2.6527,-2.6527,0.0,-2.8291,0.0,0.0,0.0,0.0,-2.9004,-2.9502,-3.0205,-3.0293,0.0,0.0,0.0,0.0,0.0,0.0,0.0,0.0,0.0,0.0,0.0,-3.8907,-3.9653,-3.9738,0.0,0.0,0.0,0.0,0.0,0.0,0.0,0.0,0.0,0.0,0.0,0.0,0.0,0.0,0.0,0.0,0.0,0.0,0.0,0.0,0.0,0.0,0.0,0.0,0.0,0.0,0.0,0.0,0.0,0.0,0.0,0.0,0.0,-4.6238,-4.6288,-4.6313,-4.6313,-4.6313,-4.6313,0.0,-4.6313,-4.6313,-4.6313,-4.6313,-4.6313,-4.6313,-4.6313,-4.6313,-4.6313,-4.618,-4.618,-4.6059,-4.5926,-4.5159,-4.4251,-4.5537,-4.5147,-4.4251,0.0,0.0,0.0,0.0,0.0,0.0,0.0,0.0,0.0,0.0,0.0,0.0,0.0,0.0,0.0,0.0,0.0,0.0,0.0,0.0,0.0,0.0,0.0,0.0,0.0,0.0,0.0,0.0,0.0,0.0,0.0,0.0,0.0,-2.6527,0.0,-2.8291,0.0,0.0,0.0,0.0,-2.9648,-3.0029,-3.0273,-3.0967,-3.1289,0.0,0.0,0.0,0.0,0.0,0.0,0.0,0.0,-3.7003,-3.7502,-4.0011,-4.0817,-4.0745,0.0,0.0,0.0,0.0,0.0,0.0,0.0,0.0,0.0,0.0,0.0,0.0,0.0,0.0,0.0,0.0,0.0,0.0,0.0,0.0,0.0,0.0,0.0,0.0,0.0,0.0,0.0,0.0,0.0,0.0,0.0,0.0,0.0,-4.566,-4.6087,-4.6313,-4.6313,-4.6313,-4.6313,0.0,-4.6313,-4.6313,-4.6313,-4.6313,-4.6313,-4.6313,-4.6313,-4.6313,-4.6193,-4.5147,-4.4767,-4.4632,-4.3482,-4.2855,-4.2718,-4.2981,-4.2844,-4.2718,0.0,0.0,0.0,0.0,0.0,0.0,0.0,0.0,0.0,0.0,0.0,0.0,0.0,0.0,0.0,0.0,0.0,0.0,0.0,0.0,0.0,0.0,0.0,0.0,0.0,0.0,0.0,0.0,0.0,0.0,0.0,0.0,0.0,-2.7413,0.0,-2.8594,0.0,0.0,0.0,0.0,-3.0264,-3.0654,-3.0908,-3.1572,-3.1836,-3.1885,-3.2314,0.0,0.0,0.0,0.0,0.0,0.0,0.0,-3.7779,-4.0095,-4.0942,-4.1057,0.0,0.0,0.0,0.0,0.0,0.0,0.0,0.0,0.0,0.0,0.0,0.0,0.0,0.0,0.0,0.0,0.0,0.0,0.0,0.0,0.0,0.0,0.0,0.0,0.0,0.0,0.0,0.0,0.0,0.0,0.0,-4.5171,-4.5485,-4.5485,-4.5761,-4.605,-4.6313,-4.6313,-4.6313,-4.6313,-4.6313,-4.6313,-4.6313,-4.6313,-4.5963,-4.5404,-4.5963,-4.5537,-4.4386,-4.4251,-4.3867,-4.3232,-4.2466,-4.1831,-4.1332,-4.1959,-4.1831,-4.1332,0.0,0.0,0.0,0.0,0.0,0.0,0.0,0.0,0.0,0.0,0.0,0.0,0.0,0.0,0.0,0.0,0.0,0.0,0.0,0.0,0.0,0.0,0.0,0.0,0.0,0.0,0.0,0.0,0.0,0.0,0.0,0.0,0.0,-2.8418,0.0,0.0,0.0,0.0,0.0,0.0,0.0,0.0,-3.168,-3.2109,-3.2275,-3.2334,-3.2754,-3.29,-3.2949,-3.3301,0.0,0.0,0.0,0.0,-3.7659,-3.9486,-4.0583,-4.1057,0.0,0.0,0.0,0.0,0.0,0.0,0.0,0.0,0.0,0.0,0.0,0.0,0.0,0.0,0.0,0.0,0.0,0.0,0.0,0.0,0.0,0.0,0.0,0.0,0.0,0.0,0.0,0.0,0.0,0.0,-4.4656,-4.5171,-4.5485,-4.5485,-4.5585,-4.5849,-4.6301,-4.6313,-4.618,-4.5926,-4.5671,-4.5634,-4.5585,-4.5634,-4.5098,-4.4319,-4.5208,-4.4251,-4.2213,-4.3232,-4.2855,-4.1831,-4.1576,-4.0828,-3.9953,-4.1075,-4.0828,-3.9942,0.0,0.0,0.0,0.0,0.0,0.0,0.0,0.0,0.0,0.0,0.0,0.0,0.0,0.0,0.0,0.0,0.0,0.0,-2.2125,0.0,0.0,-2.1439,-2.232,0.0,0.0,0.0,0.0,0.0,0.0,0.0,0.0,0.0,0.0,0.0,0.0,0.0,0.0,0.0,0.0,0.0,0.0,0.0,-3.2129,-3.2549,-3.2715,-3.2764,-3.3193,-3.334,-3.335,-3.3408,-3.3418,0.0,0.0,0.0,-3.7539,-3.898,-4.0199,0.0,0.0,0.0,0.0,0.0,0.0,0.0,0.0,0.0,0.0,0.0,0.0,0.0,0.0,0.0,0.0,0.0,0.0,0.0,0.0,0.0,0.0,0.0,0.0,0.0,0.0,0.0,0.0,0.0,0.0,0.0,-4.4618,-4.5171,-4.5485,-4.5485,-4.5949,-4.6238,-4.6313,-4.6313,-4.5671,-4.4509,-4.3357,-4.2704,-4.2696,-4.2716,-4.3369,-4.4287,-4.3244,-4.2592,-4.2086,-4.1215,-4.0581,-4.0322,-3.9199,-3.8559,-3.8437,-3.8692,-3.8559,-3.8437,0.0,0.0,0.0,0.0,0.0,0.0,0.0,0.0,0.0,0.0,0.0,0.0,0.0,0.0,0.0,-2.2857,-2.2608,-2.2359,-2.2198,-2.2052,-2.2245,-2.2658,-2.2665,0.0,0.0,0.0,0.0,0.0,0.0,0.0,0.0,-2.956,-2.9756,0.0,0.0,0.0,0.0,0.0,0.0,0.0,0.0,0.0,0.0,0.0,0.0,0.0,0.0,0.0,0.0,0.0,-3.3418,-3.367,-3.5005,0.0,0.0,0.0,-4.0199,0.0,0.0,0.0,0.0,0.0,0.0,0.0,0.0,0.0,0.0,0.0,0.0,0.0,0.0,0.0,0.0,0.0,0.0,0.0,0.0,0.0,0.0,0.0,0.0,0.0,0.0,0.0,0.0,0.0,0.0,-4.5434,-4.5121,-4.5347,-4.5485,-4.5485,-4.5723,-4.5999,-4.6313,-4.6313,-4.5659,-4.4251,-4.2844,-4.2259,-4.2132,-4.1392,-4.1478,-4.1972,-4.22,-4.1332,-3.9942,-4.0073,-3.9692,-3.9067,-3.8437,-3.8181,-3.8181,-3.8181,-3.8181,-3.8181,0.0,0.0,0.0,0.0,0.0,0.0,0.0,0.0,0.0,0.0,0.0,0.0,0.0,0.0,0.0,0.0,-2.2886,-2.2615,-2.2315,-2.2293,-2.2609,-2.3448,-2.264,-2.2759,-2.3905,0.0,0.0,0.0,0.0,0.0,-2.8984,-3.0345,-3.0596,0.0,-3.0869,0.0,0.0,0.0,0.0,0.0,0.0,0.0,0.0,0.0,0.0,0.0,0.0,0.0,0.0,0.0,0.0,-3.373,-3.482,-3.6081,0.0,0.0,0.0,0.0,0.0,0.0,0.0,0.0,0.0,0.0,0.0,0.0,0.0,0.0,0.0,0.0,0.0,0.0,0.0,0.0,0.0,0.0,0.0,0.0,0.0,0.0,0.0,0.0,0.0,0.0,0.0,0.0,0.0,-4.6137,-4.5711,-4.5698,-4.5567,-4.5184,-4.5184,-4.525,-4.5281,-4.4902,-4.4263,-4.3232,-4.1843,-4.1203,-4.1203,-4.0203,-3.9754,-3.98,-4.0724,-4.0073,-3.8314,-3.932,-3.9067,-3.8181,-3.8181,-3.8181,-3.8181,-3.8181,-3.8181,-3.8048,0.0,0.0,0.0,0.0,0.0,0.0,0.0,0.0,0.0,0.0,0.0,0.0,-2.2535,-2.2615,-2.2754,-2.3084,-2.3091,-2.2945,-2.2623,-2.2601,-2.2476,-2.2311,-2.2184,0.0,-2.3905,0.0,0.0,0.0,0.0,0.0,-2.7434,-2.9776,-3.1074,-3.1435,-3.1894,-3.21,-3.2129,0.0,0.0,0.0,0.0,0.0,0.0,0.0,0.0,0.0,0.0,0.0,0.0,0.0,0.0,-3.4111,-3.4632,-3.564,-3.6787,0.0,0.0,0.0,0.0,0.0,0.0,0.0,0.0,0.0,0.0,0.0,0.0,0.0,0.0,0.0,0.0,0.0,0.0,0.0,0.0,0.0,0.0,0.0,0.0,0.0,0.0,0.0,0.0,0.0,0.0,0.0,0.0,-4.6301,-4.6276,-4.6276,-4.5634,-4.4338,-4.4338,-4.3707,-4.2466,-4.1203,-4.0452,-4.0463,-3.9067,-3.8437,-3.8447,-3.8314,-3.8325,-3.8345,-3.8325,-3.8314,-3.8191,-3.8314,-3.8314,-3.8181,-3.8181,-3.8181,-3.8181,-3.8181,-3.7904,-3.7616,0.0,0.0,0.0,0.0,0.0,0.0,0.0,0.0,0.0,0.0,0.0,0.0,0.0,-2.2806,-2.2981,-2.3098,-2.3106,-2.3062,-2.2945,-2.2937,-2.2886,-2.2784,-2.2776,-2.3015,-2.3367,0.0,0.0,0.0,0.0,-2.939,-2.9568,-3.0798,-3.1377,-3.1523,-3.168,-3.1748,-3.1777,-3.2207,0.0,0.0,0.0,0.0,0.0,0.0,0.0,0.0,0.0,0.0,0.0,0.0,0.0,0.0,-3.4648,-3.5591,-3.685,-3.7731,0.0,0.0,0.0,0.0,0.0,0.0,0.0,0.0,0.0,0.0,0.0,0.0,0.0,0.0,0.0,0.0,0.0,0.0,0.0,0.0,0.0,0.0,0.0,0.0,0.0,0.0,0.0,0.0,0.0,0.0,0.0,0.0,-4.5025,-4.4127,-4.3357,-4.2695,-4.2844,-4.2718,-4.2213,-4.0828,-4.0203,-4.0203,-3.8814,-3.8181,-3.8181,-3.8181,-3.8181,-3.8181,-3.8181,-3.8181,-3.8181,-3.8181,-3.8181,-3.8181,-3.8181,-3.8181,-3.8181,-3.8181,-3.7904,-3.7616,0.0,0.0,0.0,0.0,0.0,0.0,0.0,0.0,0.0,0.0,0.0,0.0,0.0,0.0,-2.3106,-2.3106,-2.3106,-2.3106,-2.3106,-2.3106,-2.3106,-2.3106,-2.3106,-2.3355,-2.372,0.0,0.0,0.0,0.0,0.0,0.0,0.0,-3.1514,-3.1514,-3.1367,-3.1465,0.0,0.0,0.0,-3.2383,0.0,0.0,-3.2783,0.0,0.0,0.0,0.0,0.0,0.0,0.0,0.0,0.0,-3.5098,-3.5788,-3.6677,-3.8081,0.0,0.0,0.0,0.0,0.0,0.0,0.0,0.0,0.0,0.0,0.0,0.0,0.0,0.0,0.0,0.0,0.0,0.0,0.0,0.0,0.0,0.0,0.0,0.0,0.0,0.0,0.0,0.0,0.0,0.0,0.0,0.0,-4.3232,-4.2328,-4.1554,-4.0902,-4.0666,-4.0548,-4.0677,-3.9801,-3.943,-3.9572,-3.8692,-3.8181,-3.8181,-3.8181,-3.8181,-3.8181,-3.8181,-3.8181,-3.8181,-3.8181,-3.8181,-3.8181,-3.8181,-3.8181,-3.8181,-3.8048,-3.777,-3.7616,0.0,0.0,0.0,0.0,0.0,0.0,0.0,0.0,0.0,0.0,0.0,0.0,0.0,0.0,0.0,-2.3106,-2.3106,-2.3106,-2.3106,-2.3106,-2.3106,-2.3106,-2.3106,-2.3728,-2.4949,0.0,0.0,0.0,0.0,0.0,0.0,0.0,-3.1504,0.0,-3.1094,-3.1377,-3.2197,0.0,-3.2764,-3.2773,0.0,-3.2793,-3.2842,0.0,0.0,0.0,-3.3916,-3.4355,0.0,-3.4717,0.0,0.0,0.0,0.0,-3.6278,-3.7585,0.0,0.0,0.0,0.0,0.0,0.0,0.0,0.0,0.0,0.0,0.0,0.0,0.0,0.0,0.0,0.0,0.0,0.0,0.0,0.0,0.0,0.0,0.0,0.0,0.0,0.0,0.0,0.0,0.0,0.0,0.0,-4.1181,-4.1181,-4.1052,-4.0397,-3.9103,-3.7709,-3.7213,-3.7616,-3.7616,-3.776,-3.8181,-3.8181,-3.8181,-3.8181,-3.8181,-3.8181,-3.8181,-3.8181,-3.8181,-3.8181,-3.8181,-3.8181,-3.8181,-3.8181,-3.8181,-3.8181,-3.776,-3.7616,-3.7482,0.0,0.0,0.0,0.0,0.0,0.0,0.0,0.0,0.0,0.0,0.0,0.0,0.0,-2.3106,-2.3106,-2.3106,-2.3106,-2.3106,-2.3106,-2.3106,-2.3106,-2.3106,-2.3106,-2.323,-2.3596,0.0,0.0,0.0,0.0,0.0,0.0,0.0,0.0,0.0,-3.1396,-3.165,-3.2158,-3.1953,0.0,0.0,-3.2676,-3.2793,0.0,0.0,0.0,0.0,0.0,-3.456,-3.5205,0.0,-3.5488,-3.5869,0.0,0.0,-3.6016,0.0,0.0,0.0,-3.8855,0.0,0.0,0.0,0.0,0.0,0.0,0.0,0.0,0.0,0.0,0.0,0.0,0.0,0.0,0.0,0.0,0.0,0.0,0.0,0.0,0.0,0.0,0.0,0.0,0.0,0.0,0.0,-4.0526,-3.9616,-3.9616,-3.8455,-3.7698,-3.7719,-3.7059,-3.6934,-3.7616,-3.7616,-3.776,-3.8181,-3.8181,-3.8181,-3.8181,-3.8181,-3.8181,-3.8181,-3.8181,-3.8181,-3.8181,-3.8181,-3.8181,-3.8181,-3.8181,-3.8181,-3.8191,-3.8048,-3.777,-3.7213,0.0,0.0,0.0,0.0,0.0,0.0,0.0,0.0,0.0,0.0,0.0,0.0,0.0,-2.3106,-2.3106,-2.3106,-2.3106,-2.3106,-2.3106,-2.3106,-2.3106,-2.3106,-2.3106,-2.3355,-2.3969,0.0,0.0,0.0,0.0,0.0,0.0,0.0,0.0,0.0,0.0,0.0,0.0,0.0,0.0,0.0,-3.2959,0.0,0.0,-3.3857,-3.4228,0.0,0.0,0.0,-3.5625,-3.5449,-3.5674,0.0,0.0,0.0,0.0,0.0,0.0,0.0,-3.7986,0.0,0.0,0.0,0.0,0.0,0.0,-4.1122,0.0,0.0,0.0,0.0,0.0,0.0,0.0,0.0,0.0,0.0,0.0,0.0,0.0,0.0,0.0,0.0,0.0,0.0,0.0,-3.9834,-3.8597,-3.7822,-3.7822,-3.6779,-3.6403,-3.6684,-3.6403,-3.6529,-3.7203,-3.7348,-3.7626,-3.7904,-3.8181,-3.8181,-3.8181,-3.8181,-3.8181,-3.8181,-3.8181,-3.8181,-3.8181,-3.8181,-3.8181,-3.8181,-3.8181,-3.8181,-3.8181,-3.8037,-3.7626,-3.7213,0.0,0.0,0.0,0.0,0.0,0.0,0.0,0.0,0.0,0.0,0.0,0.0,0.0,-2.3106,-2.3106,-2.3106,-2.3106,-2.3106,-2.3106,-2.3106,-2.3106,-2.3106,-2.3106,-2.3596,-2.4826,0.0,0.0,0.0,0.0,0.0,0.0,0.0,0.0,0.0,0.0,0.0,0.0,0.0,0.0,-3.3643,-3.3643,-3.4062,0.0,0.0,-3.5039,-3.5391,-3.5391,-3.5664,-3.5967,-3.5586,-3.5713,0.0,0.0,0.0,0.0,0.0,-3.6016,0.0,0.0,-3.7305,-3.7072,0.0,0.0,0.0,-3.9242,-3.8763,-3.8109,0.0,0.0,0.0,0.0,0.0,0.0,0.0,0.0,0.0,0.0,0.0,0.0,0.0,0.0,0.0,0.0,-3.6547,-3.6917,-3.778,-3.6674,-3.6016,-3.6016,-3.6016,-3.6016,-3.6016,-3.6016,-3.6142,-3.6519,-3.6934,-3.7213,-3.7616,-3.8048,-3.8181,-3.8181,-3.8181,-3.8181,-3.8181,-3.8181,-3.8181,-3.8181,-3.8181,-3.8181,-3.8181,-3.8181,-3.8181,-3.8181,-3.776,-3.7616,-3.7482,-2.1325,0.0,0.0,0.0,0.0,0.0,0.0,0.0,0.0,0.0,0.0,0.0,0.0,0.0,-2.3106,-2.3106,-2.3106,-2.3106,-2.3106,-2.3106,-2.3106,-2.3106,-2.3106,-2.323,-2.3479,-2.4271,0.0,0.0,0.0,0.0,0.0,0.0,0.0,0.0,0.0,0.0,0.0,0.0,0.0,-3.501,-3.501,0.0,-3.4736,-3.5117,-3.5312,-3.5391,-3.5391,-3.5664,-3.6006,-3.5928,-3.5957,-3.6016,0.0,0.0,0.0,-3.6016,0.0,0.0,0.0,0.0,0.0,0.0,0.0,0.0,-3.8827,-3.8518,-3.8109,0.0,0.0,0.0,0.0,0.0,0.0,0.0,0.0,0.0,0.0,0.0,0.0,0.0,0.0,0.0,0.0,-3.5643,-3.586,-3.6374,-3.6152,-3.6016,-3.6016,-3.6016,-3.6016,-3.6016,-3.6016,-3.6142,-3.6519,-3.6934,-3.7213,-3.7616,-3.8048,-3.8181,-3.8181,-3.8181,-3.8181,-3.8181,-3.8181,-3.8181,-3.8181,-3.8181,-3.8181,-3.8181,-3.8181,-3.8181,-3.8181,-3.8048,-3.776,-3.7213,-2.1211,0.0,0.0,0.0,0.0,0.0,0.0,0.0,0.0,0.0,0.0,0.0,0.0,0.0,0.0,-2.3106,-2.3106,-2.3106,-2.3106,-2.3106,-2.3106,-2.3106,-2.3106,-2.3106,-2.3106,-2.372,-2.4092,0.0,0.0,0.0,0.0,0.0,0.0,0.0,0.0,0.0,0.0,0.0,-3.5176,-3.5371,-3.5137,0.0,-3.5361,-3.5391,-3.5527,-3.5674,-3.5469,-3.5527,-3.5742,-3.5947,-3.6016,0.0,0.0,-3.6016,-3.6016,0.0,-3.6016,-3.6016,0.0,0.0,0.0,-3.6073,0.0,0.0,0.0,-3.7095,-3.7069,0.0,0.0,0.0,0.0,0.0,0.0,0.0,0.0,0.0,0.0,0.0,0.0,0.0,0.0,0.0,0.0,-3.5391,-3.5566,-3.5986,-3.6016,-3.6016,-3.6016,-3.6016,-3.6016,-3.6016,-3.6016,-3.6016,-3.6268,-3.6809,-3.7213,-3.7348,-3.7904,-3.8181,-3.8181,-3.8181,-3.8181,-3.8181,-3.8181,-3.8181,-3.8181,-3.8181,-3.8181,-3.8181,-3.8181,-3.8181,-3.8181,-3.7904,-3.7626,-3.7079,-2.1211,0.0,0.0,0.0,0.0,0.0,0.0,0.0,0.0,0.0,0.0,0.0,0.0,0.0,0.0,0.0,-2.3106,-2.3106,-2.3106,-2.3106,-2.3106,-2.3106,-2.3106,-2.3106,-2.3106,-2.3171,-2.3693,0.0,0.0,0.0,0.0,0.0,0.0,0.0,0.0,0.0,0.0,0.0,0.0,-3.5478,0.0,-3.5381,-3.5976,-3.5557,-3.5605,-3.584,-3.541,-3.5322,-3.5449,-3.5781,-3.5957,-3.6016,-3.6016,-3.6016,0.0,0.0,0.0,0.0,0.0,0.0,0.0,0.0,0.0,-3.5391,0.0,0.0,0.0,0.0,0.0,0.0,0.0,0.0,0.0,0.0,0.0,0.0,0.0,0.0,0.0,0.0,0.0,0.0,0.0,-3.5517,-3.5654,-3.5996,-3.6016,-3.6016,-3.6016,-3.6016,-3.6016,-3.6016,-3.6016,-3.6016,-3.6016,-3.6684,-3.7079,-3.7079,-3.7904,-3.8181,-3.8181,-3.8088,-3.8057,-3.8046,-3.7964,-3.7922,-3.7922,-3.7922,-3.7974,-3.8057,-3.815,-3.8181,-3.8181,-3.7904,-3.7482,-3.7069,-2.1211,-2.1211,0.0,0.0,0.0,0.0,0.0,0.0,0.0,0.0,0.0,0.0,0.0,0.0,0.0,0.0,0.0,0.0,-2.3106,0.0,-2.3106,-2.3106,-2.3106,-2.3106,-2.3106,-2.3391,-2.3664,-2.3791,0.0,0.0,0.0,0.0,0.0,0.0,-3.4033,0.0,0.0,0.0,-3.5615,0.0,-3.5889,-3.5928,0.0,-3.5557,-3.542,-3.54,-3.4941,-3.5039,-3.54,0.0,-3.5713,-3.6016,0.0,-3.6016,-3.6016,-3.6016,0.0,0.0,0.0,0.0,0.0,0.0,-3.5391,0.0,0.0,0.0,0.0,0.0,0.0,0.0,0.0,0.0,0.0,0.0,0.0,0.0,0.0,0.0,0.0,0.0,0.0,0.0,0.0,0.0,-3.5967,-3.6016,-3.6016,-3.6016,-3.6016,-3.6016,-3.6016,-3.6016,-3.6016,-3.6016,-3.6016,-3.6684,-3.7079,-3.7079,-3.7904,-3.8181,-3.8171,-3.7757,-3.757,-3.755,-3.7136,-3.696,-3.696,-3.696,-3.7208,-3.7612,-3.8026,-3.8181,-3.8181,-3.8181,-3.7626,-3.7018,-2.1211,-2.1211,0.0,0.0,0.0,0.0,0.0,0.0,0.0,0.0,0.0,0.0,0.0,0.0,0.0,0.0,0.0,-2.3106,0.0,0.0,-2.3106,-2.3106,-2.3288,-2.3391,-2.3391,-2.3713,-2.3881,-2.3881,-2.6118,0.0,0.0,0.0,0.0,0.0,-3.4326,0.0,-3.501,0.0,0.0,0.0,0.0,0.0,0.0,-3.5361,-3.5078,-3.4639,-3.4687,-3.4668,-3.4668,0.0,-3.5293,0.0,0.0,0.0,0.0,0.0,0.0,0.0,0.0,0.0,0.0,0.0,0.0,0.0,-3.5762,0.0,-3.5947,0.0,0.0,0.0,0.0,0.0,0.0,0.0,0.0,0.0,0.0,0.0,0.0,0.0,0.0,0.0,0.0,0.0,0.0,0.0,0.0,-3.6016,-3.6016,-3.6016,-3.6016,-3.6016,-3.6016,-3.6016,-3.6016,-3.6539,-3.6799,-3.7079,-3.7361,-3.7503,-3.7767,-3.7301,-3.7094,-3.7084,-3.6887,-3.6804,-3.6804,-3.6804,-3.6918,-3.7115,-3.7301,-3.7715,-3.8181,-3.7904,-3.7319,-3.6666,-2.1211,0.0,0.0,0.0,0.0,0.0,0.0,0.0,0.0,0.0,0.0,0.0,-2.323,-2.3245,0.0,0.0,-2.3376,-2.3376,0.0,0.0,-2.3245,0.0,0.0,0.0,-2.3596,-2.4005,-2.4218,-2.4218,0.0,0.0,0.0,0.0,0.0,0.0,0.0,-3.4454,-3.4518,0.0,0.0,-3.4222,-3.4575,-3.4525,-3.456,-3.4902,-3.456,-3.3935,-3.4238,-3.4228,-3.4121,-3.4424,-3.4834,0.0,-3.5205,0.0,0.0,0.0,0.0,0.0,-3.5879,0.0,0.0,0.0,0.0,0.0,0.0,0.0,0.0,0.0,0.0,0.0,0.0,0.0,0.0,0.0,0.0,0.0,0.0,0.0,0.0,0.0,0.0,0.0,0.0,0.0,0.0,0.0,-3.5771,-3.585,-3.585,-3.5957,-3.6016,-3.6016,-3.6016,-3.5967,-3.585,-3.6226,-3.6425,-3.6583,-3.6648,-3.69,-3.7161,-3.6825,-3.6618,-3.6608,-3.6473,-3.6432,-3.6432,-3.6432,-3.6504,-3.649,-3.6608,-3.6975,-3.7544,-3.7391,-3.6983,-3.6374,-2.1211,-2.1211,0.0,0.0,0.0,0.0,0.0,0.0,0.0,0.0,0.0,0.0,0.0,0.0,0.0,0.0,0.0,-2.4049,-2.4049,0.0,-2.3581,0.0,0.0,-2.3596,0.0,-2.4225,-2.4554,-2.4554,0.0,0.0,0.0,0.0,0.0,0.0,0.0,-3.3984,-3.3817,-3.3044,-3.2933,-3.3111,-3.286,-3.3265,-3.4092,0.0,-3.3838,-3.3447,-3.3457,0.0,0.0,-3.4092,-3.4375,0.0,0.0,0.0,0.0,0.0,0.0,0.0,0.0,0.0,0.0,-3.4853,0.0,0.0,0.0,0.0,-3.4863,0.0,0.0,0.0,0.0,0.0,-3.3955,-3.3535,0.0,0.0,0.0,0.0,0.0,0.0,0.0,0.0,0.0,0.0,0.0,-3.4736,-3.5156,-3.542,-3.542,-3.5801,-3.6016,-3.6016,-3.6016,-3.583,-3.542,-3.5781,-3.5696,-3.542,-3.6051,-3.6309,-3.6289,-3.6222,-3.6132,-3.6111,-3.5656,-3.5469,-3.5469,-3.5469,-3.5478,-3.5626,-3.6005,-3.6039,-3.5931,-3.6588,-3.6585,-3.6284,0.0,0.0,0.0,0.0,0.0,0.0,0.0,-2.271,0.0,0.0,0.0,0.0,0.0,0.0,-2.3962,0.0,0.0,-2.4086,-2.4086,-2.3984,0.0,0.0,0.0,-2.424,0.0,0.0,0.0,0.0,0.0,0.0,0.0,0.0,0.0,0.0,0.0,-3.3137,0.0,0.0,0.0,0.0,0.0,-3.3376,-3.3643,0.0,0.0,-3.3418,-3.3418,-3.3516,0.0,-3.3643,-3.3926,-3.4287,-3.4287,-3.458,-3.4941,-3.4941,-3.5029,0.0,0.0,0.0,-3.4892,-3.4736,0.0,0.0,0.0,0.0,0.0,0.0,0.0,0.0,0.0,0.0,-3.3935,-3.3496,-3.3418,-3.3369,0.0,0.0,0.0,0.0,0.0,0.0,0.0,0.0,0.0,-3.4697,-3.4844,-3.4941,0.0,-3.5068,-3.5146,-3.5146,-3.5146,-3.5078,-3.4941,-3.5054,-3.5117,-3.524,-3.5459,-3.5574,-3.582,-3.5737,-3.5656,-3.5645,-3.549,-3.5418,-3.5418,-3.517,-3.5138,-3.5156,-3.5021,-3.5179,-3.5487,-3.6177,-3.5929,-3.5062,-2.1211,0.0,0.0,0.0,0.0,0.0,0.0,0.0,0.0,0.0,-2.3464,0.0,-2.3918,0.0,-2.4305,0.0,-2.443,-2.443,-2.443,-2.432,0.0,-2.4254,-2.4459,0.0,0.0,0.0,0.0,0.0,0.0,-2.5846,0.0,0.0,0.0,0.0,0.0,0.0,0.0,0.0,-3.0828,0.0,0.0,-3.1863,0.0,0.0,-3.2511,-3.3418,0.0,-3.3525,-3.3652,-3.3652,-3.3935,-3.4297,-3.4297,-3.4482,-3.4697,-3.4697,-3.4697,-3.4668,-3.4521,-3.4482,0.0,-3.4287,-3.4248,0.0,-3.4248,0.0,0.0,0.0,0.0,0.0,0.0,0.0,-3.3975,-3.3701,-3.3525,-3.3418,0.0,-3.3418,0.0,0.0,0.0,0.0,0.0,0.0,-3.4248,-3.4248,-3.4385,-3.4482,0.0,0.0,-3.4697,-3.4697,-3.4697,-3.4629,-3.4482,-3.4482,-3.4534,-3.4645,-3.4742,-3.4982,-3.5224,-3.5304,-3.5418,-3.5418,-3.5418,-3.5294,-3.517,-3.5046,-3.4797,-3.4548,-3.4423,-3.4478,-3.4642,-3.5305,-3.5097,-3.4308,0.0,0.0,0.0,0.0,-2.1796,0.0,0.0,0.0,-2.3245,0.0,-2.3625,-2.3881,-2.4503,-2.4583,-2.4723,-2.503,-2.5059,0.0,-2.5059,-2.4766,0.0,0.0,-2.4591,-2.4591,-2.4591,0.0,0.0,0.0,0.0,0.0,0.0,0.0,0.0,0.0,-3.0063,0.0,-2.8363,-2.8332,-2.7971,-2.7621,-2.8734,-2.9248,-2.9248,-2.9248,-3.0825,-3.3194,-3.3321,-3.373,-3.4101,-3.4101,-3.4365,-3.4697,-3.4697,-3.4697,-3.4697,-3.4697,-3.4697,-3.4609,-3.4189,-3.4072,-3.3965,-3.3525,0.0,0.0,0.0,0.0,-3.3545,0.0,0.0,0.0,0.0,0.0,0.0,-3.4053,-3.3691,-3.3418,-3.3418,0.0,0.0,0.0,0.0,0.0,0.0,-3.3418,-3.3418,-3.3418,-3.3809,0.0,0.0,0.0,-3.4639,-3.4639,-3.4639,-3.4443,-3.4043,-3.4043,-3.3828,-3.3428,-3.4047,-3.4423,-3.4423,-3.5046,-3.5294,-3.5294,-3.5294,-3.517,-3.4922,-3.4797,-3.4423,-3.3922,-3.4173,-3.3922,-3.3418,-3.4173,-3.4173,-3.3796,-2.1211,-2.1408,-2.1715,0.0,-2.2396,-2.2535,0.0,0.0,0.0,0.0,-2.402,-2.4386,-2.4547,-2.4781,-2.4964,-2.5052,-2.5059,0.0,0.0,0.0,0.0,-2.4927,-2.4927,-2.4927,-2.4927,-2.5015,-2.5059,-2.5059,0.0,0.0,-2.5577,0.0,0.0,0.0,0.0,0.0,-2.8699,-2.8172,-2.7606,-2.7272,-2.8633,-2.9248,0.0,0.0,-2.9822,-3.0864,-3.193,-3.3253,-3.4541,-3.4541,-3.4609,-3.4697,-3.4697,-3.4697,-3.4697,-3.4697,-3.4697,-3.4609,-3.4189,-3.4072,-3.3965,-3.3525,-3.3418,-3.3418,0.0,0.0,0.0,0.0,0.0,0.0,0.0,0.0,0.0,-3.3691,-3.3496,-3.3418,0.0,0.0,0.0,-3.3418,0.0,0.0,-3.3418,-3.3418,-3.3418,-3.3418,-3.3525,0.0,0.0,0.0,0.0,-3.375,-3.375,-3.3691,-3.3584,-3.3584,-3.3535,-3.3428,-3.3796,-3.4047,-3.4047,-3.4423,-3.4673,-3.4673,-3.4673,-3.4548,-3.4548,-3.4298,-3.4047,-3.3922,-3.367,-3.3544,-3.3418,-3.3544,-3.3544,-3.3544,-2.1635,0.0,0.0,-2.2564,0.0,0.0,-2.2835,0.0,0.0,-2.3793,-2.4254,0.0,-2.4766,-2.4949,-2.5059,-2.5059,-2.5059,0.0,-2.5059,0.0,0.0,-2.5059,-2.5059,-2.5059,-2.5059,-2.5059,0.0,-2.5059,0.0,0.0,-2.5059,0.0,0.0,0.0,0.0,-2.6947,0.0,-2.6901,-2.654,-2.6234,-2.7028,0.0,0.0,-2.7419,-2.8134,-2.926,-3.0069,-3.1523,-3.3077,-3.3077,-3.3197,-3.3336,-3.3336,-3.3629,-3.4032,-3.4032,-3.4306,-3.4648,-3.4404,-3.4209,-3.4014,-3.3769,-3.3564,-3.3418,-3.3418,-3.3418,-3.3418,0.0,0.0,0.0,0.0,0.0,0.0,0.0,0.0,0.0,0.0,0.0,0.0,0.0,-3.3418,0.0,-3.3418,-3.3418,-3.3418,-3.3418,0.0,0.0,0.0,0.0,0.0,-3.3418,-3.3418,-3.3418,-3.3418,-3.3418,-3.3418,-3.3418,-3.3796,-3.3922,-3.3922,-3.4298,-3.4423,-3.4423,-3.4423,-3.4298,-3.4173,-3.3922,-3.3796,-3.367,-3.3418,-3.3418,-3.3418,-3.3418,-3.3418,-3.3418,0.0,0.0,0.0,0.0,0.0,0.0,0.0,-2.3449,0.0,-2.4101,0.0,-2.4744,-2.5022,-2.5059,-2.5059,-2.5059,0.0,-2.5059,-2.5059,-2.5059,-2.5059,-2.5059,-2.5059,-2.5059,-2.5059,-2.5059,-2.5059,0.0,0.0,0.0,0.0,0.0,0.0,0.0,0.0,0.0,0.0,-2.5557,-2.5388,0.0,-2.5059,-2.5059,-2.5059,-2.5103,-2.6299,-2.7933,-2.8118,-2.9331,-3.1028,-3.1028,-3.1242,-3.1508,-3.1508,-3.2122,-3.2829,-3.2829,-3.3532,-3.4316,-3.439,-3.425,-3.396,-3.416,-3.369,-3.3252,-3.3252,-3.3067,-3.2902,-3.2902,-3.3029,-3.3272,0.0,0.0,0.0,0.0,0.0,0.0,0.0,0.0,0.0,0.0,0.0,0.0,-3.3078,-3.3262,-3.3418,0.0,0.0,0.0,0.0,0.0,0.0,-3.3418,-3.3418,0.0,-3.3418,0.0,-3.3418,-3.3418,-3.367,-3.3796,-3.3796,-3.4173,-3.4298,-3.4298,-3.4298,-3.4047,-3.3796,-3.3796,-3.367,-3.3418,-3.3418,-3.3418,-3.3418,-3.3418,-3.3418,-3.3418,0.0,0.0,0.0,0.0,0.0,-2.3201,-2.3471,-2.3786,-2.4115,-2.4437,-2.4766,-2.4993,-2.5052,-2.5059,-2.5059,-2.5059,-2.5059,0.0,0.0,0.0,0.0,-2.5059,-2.5059,-2.5059,-2.5059,-2.5059,-2.5059,-2.5059,-2.5059,-2.5059,0.0,0.0,0.0,0.0,0.0,0.0,-2.5176,-2.571,0.0,-2.5059,-2.5059,-2.5059,-2.5081,-2.5352,-2.582,-2.6461,-2.6736,-2.8719,-3.1414,-3.1414,-3.1448,-3.1508,-3.1508,-3.1597,-3.1826,-3.1826,-3.1914,-3.2217,-3.3138,-3.328,-3.3545,-3.4415,-3.3478,-3.2255,-3.2255,-3.106,-2.99,-2.99,-3.0807,-3.1726,-3.18,0.0,0.0,0.0,0.0,0.0,0.0,0.0,0.0,0.0,0.0,-3.1577,0.0,0.0,0.0,0.0,0.0,0.0,0.0,0.0,0.0,0.0,-3.3418,0.0,0.0,0.0,-3.3418,-3.3418,-3.3418,-3.3544,-3.3544,-3.3544,-3.3544,-3.3544,-3.3544,-3.3544,-3.3544,-3.3544,-3.3418,-3.3418,-3.3418,-3.3418,-3.3418,-3.3418,-3.3418,-3.3418,0.0,0.0,0.0,0.0,0.0,0.0,0.0,-2.345,0.0,-2.4525,-2.4854,-2.5059,-2.5059,-2.5059,-2.5059,-2.5059,-2.5059,-2.5059,-2.5059,-2.5059,-2.5059,-2.5059,-2.5059,0.0,-2.5059,-2.5059,-2.5059,-2.5059,-2.5059,-2.5059,-2.5059,0.0,0.0,0.0,0.0,-2.5213,0.0,0.0,0.0,-2.5059,-2.5059,-2.5059,-2.5074,-2.5227,-2.5593,-2.6039,-2.6193,-2.7545,-2.9107,-2.9107,-2.9107,-2.9107,-2.9107,-2.9671,-3.0376,-3.0376,-3.0943,-3.1606,-3.2122,-3.2076,-3.2147,-3.2638,-3.1872,-3.099,-3.0804,-3.0082,-2.9355,-2.9299,-2.977,-3.0352,-3.0547,-3.091,0.0,0.0,0.0,0.0,0.0,0.0,0.0,0.0,0.0,0.0,0.0,0.0,0.0,0.0,0.0,0.0,0.0,0.0,0.0,0.0,0.0,0.0,0.0,0.0,0.0,-3.3418,-3.3418,-3.3418,-3.3418,-3.3418,-3.3418,-3.3418,-3.3418,-3.3418,-3.3418,-3.3418,-3.3418,-3.3418,-3.3418,-3.3418,-3.3418,-3.3418,-3.3418,-3.3418,0.0,-2.2724,0.0,0.0,-2.2781,0.0,-2.1995,-2.2932,-2.3897,-2.4214,-2.4756,-2.5059,-2.5059,-2.5059,-2.5059,-2.5059,-2.5059,-2.5059,-2.5059,-2.5059,-2.5059,-2.5059,-2.5059,-2.5059,-2.5059,-2.5059,-2.5059,0.0,-2.5059,-2.5022,-2.4957,0.0,0.0,0.0,0.0,0.0,0.0,0.0,-2.5352,-2.5059,-2.5059,-2.5059,-2.5066,-2.5132,-2.5513,-2.6025,-2.6091,-2.6493,-2.6991,-2.6991,-2.6991,-2.6991,-2.6991,-2.784,-2.8676,-2.8676,-2.9528,-3.066,-3.0943,-3.0733,-3.0654,-3.0932,-3.0496,-2.9841,-2.9488,-2.9077,-2.8784,-2.8411,-2.86,-2.8947,-2.9641,-2.9741,0.0,0.0,0.0,0.0,0.0,0.0,0.0,0.0,0.0,0.0,-2.8238,0.0,0.0,0.0,0.0,0.0,0.0,0.0,0.0,0.0,0.0,-3.2604,-3.2892,0.0,-3.3418,0.0,-3.3418,-3.3418,-3.3418,-3.3418,-3.3418,-3.3418,-3.3418,-3.3418,-3.3418,-3.3418,-3.3418,-3.3418,-3.3418,-3.3418,-3.3418,-3.3418,-3.3418,-3.3418,0.0,0.0,0.0,0.0,0.0,0.0,0.0,-2.2304,-2.2721,-2.2882,-2.4196,-2.5059,-2.5059,-2.5059,-2.5059,-2.5059,-2.5059,-2.5059,-2.5059,-2.5059,-2.5059,-2.5059,-2.5059,-2.5059,-2.5059,-2.5059,-2.5059,0.0,0.0,-2.4905,-2.462,-2.492,0.0,0.0,0.0,0.0,0.0,-2.5396,-2.5352,-2.5059,-2.5059,-2.5059,-2.5088,-2.5374,-2.5703,-2.6054,-2.6354,-2.6683,-2.6991,-2.6991,-2.6991,-2.6991,-2.6991,-2.7129,-2.7274,-2.7274,-2.7274,-2.7695,-2.9107,-2.9361,-2.9757,-3.1025,-3.0194,-2.8863,-2.851,-2.7092,-2.5844,-2.5517,-2.6501,-2.7684,-2.9036,-2.8551,-2.8259,0.0,0.0,0.0,0.0,0.0,0.0,-2.7286,0.0,0.0,0.0,-2.6416,0.0,0.0,0.0,0.0,0.0,0.0,0.0,-2.9203,0.0,-3.1172,-3.1442,-3.2756,-3.3418,-3.3418,-3.3418,-3.3418,-3.3418,-3.3418,-3.3418,-3.3418,-3.3418,-3.3418,-3.3418,-3.3418,-3.3418,-3.3418,-3.3418,-3.3418,-3.3418,-3.3418,-3.3418,-3.3418,0.0,0.0,0.0,0.0,0.0,0.0,0.0,-2.0319,-2.086,-2.0166,-2.2271,-2.4074,-2.5052,-2.5059,-2.5059,-2.5059,-2.5059,-2.5059,-2.5059,-2.5059,-2.5059,-2.5059,-2.5059,-2.5059,-2.5059,-2.5059,-2.5059,0.0,0.0,-2.4993,-2.4869,-2.4993,0.0,0.0,0.0,-2.5176,-2.5066,-2.5191,-2.5169,-2.5059,-2.5059,-2.5059,-2.5074,-2.5198,-2.5447,-2.5769,-2.6091,-2.642,-2.6727,-2.6925,-2.6991,-2.6991,-2.6991,-2.6991,-2.6991,-2.6991,-2.6991,-2.7136,-2.7695,-2.7833,-2.7977,-2.8683,-2.8149,-2.7393,-2.7051,-2.6171,-2.544,-2.5125,-2.5584,-2.6107,-2.6635,-2.651,-2.6466,0.0,0.0,0.0,0.0,0.0,0.0,0.0,0.0,-2.5791,0.0,0.0,0.0,0.0,0.0,0.0,0.0,0.0,0.0,-2.834,0.0,-2.9533,-3.0021,-3.146,-3.21,-3.211,-3.3029,-3.3418,-3.3418,-3.3418,-3.3418,-3.3418,-3.3418,-3.3418,-3.3418,-3.3418,-3.3418,-3.3418,-3.3418,-3.3418,-3.3418,-3.3418,-3.3418,-3.3418,-1.8518,0.0,-1.8396,0.0,-1.8664,-1.8547,-1.7792,-1.8766,-1.9318,-1.8525,-2.0201,-2.2271,-2.4217,-2.436,-2.4631,-2.5052,-2.5059,-2.5059,-2.5059,-2.5059,-2.5059,-2.5059,-2.5059,0.0,-2.5059,-2.5059,-2.5059,-2.5059,-2.5059,-2.5008,-2.4913,0.0,0.0,0.0,-2.5059,-2.5059,-2.5059,-2.5059,-2.5059,-2.5059,-2.5059,-2.5059,-2.5059,-2.5059,-2.5257,-2.5557,-2.5791,-2.6083,-2.6413,-2.6742,-2.6844,-2.6866,-2.6961,-2.6991,-2.6991,-2.6991,-2.6991,-2.6991,-2.6991,-2.6991,-2.6991,-2.6991,-2.6749,-2.642,-2.6091,-2.5761,-2.544,-2.5125,-2.5059,-2.5059,-2.5059,-2.5235,-2.5418,-2.5513,0.0,0.0,0.0,0.0,0.0,0.0,-2.5059,-2.4927,-2.4598,0.0,0.0,0.0,0.0,0.0,0.0,0.0,0.0,0.0,0.0,0.0,0.0,-3.0021,-3.0669,-3.0669,-3.211,-3.2765,-3.2765,-3.3165,-3.3418,-3.3418,-3.3418,-3.3418,-3.3418,-3.3418,-3.3418,-3.3418,-3.3418,-3.3418,-3.3418,-3.3418,-3.3418,-3.3418,-1.7232,-1.6974,-1.6974,-1.6974,-1.7505,-1.7825,-1.7685,-1.8094,-1.8406,-1.8406,-1.8406,-1.9512,-2.2545,-2.2819,-2.3379,-2.4916,-2.5059,-2.5059,-2.5059,-2.5059,-2.5059,0.0,0.0,-2.5059,-2.5059,-2.5059,-2.5059,-2.5059,0.0,0.0,-2.4576,0.0,-2.4744,-2.5059,-2.5059,-2.5059,-2.5059,-2.5059,-2.5059,-2.5059,-2.5059,-2.5059,-2.5059,-2.5059,-2.5257,-2.5527,-2.5535,-2.5747,-2.6076,-2.6398,-2.6508,-2.6566,-2.6888,-2.6991,-2.6991,-2.6991,-2.6991,-2.6991,-2.6991,-2.6991,-2.6991,-2.6991,-2.6749,-2.642,-2.6091,-2.5761,-2.544,-2.5125,-2.5059,-2.5059,-2.5059,-2.5059,-2.5162,-2.5476,0.0,0.0,0.0,0.0,0.0,-2.5059,-2.5059,-2.4927,-2.4598,0.0,0.0,0.0,0.0,0.0,0.0,0.0,0.0,-2.4194,-2.5479,0.0,-2.7145,-2.846,-2.9256,-2.9248,-3.0669,-3.1313,-3.1313,-3.2765,-3.3418,-3.3418,-3.3418,-3.3418,-3.3418,-3.3418,-3.3418,-3.3418,-3.3418,-3.3418,-3.3418,-3.3418,-3.3418,-3.3418,-1.5699,-1.5574,-1.5574,-1.5574,-1.5805,-1.6047,-1.6205,-1.6466,-1.6703,-1.6861,-1.688,-1.757,-1.9652,-2.0749,-2.1433,0.0,-2.2963,-2.3515,0.0,-2.4495,-2.5059,-2.5059,-2.5059,-2.5059,-2.5059,-2.5059,-2.5059,-2.5059,0.0,0.0,0.0,-2.4905,-2.4957,-2.5059,-2.5059,-2.5059,-2.5059,-2.5059,-2.5059,-2.5059,-2.5059,-2.5059,-2.5059,-2.5059,-2.5118,-2.5235,-2.5447,-2.5593,-2.5732,-2.6061,-2.6171,-2.6193,-2.6296,-2.6632,-2.6991,-2.6991,-2.6991,-2.6991,-2.6991,-2.683,-2.6661,-2.6661,-2.6244,-2.5813,-2.571,-2.544,-2.5176,-2.5074,-2.5059,-2.5059,-2.5059,-2.5059,-2.5088,-2.5191,-2.5308,0.0,0.0,0.0,0.0,-2.5081,-2.5059,-2.5015,0.0,-2.4701,0.0,0.0,0.0,0.0,0.0,0.0,0.0,0.0,-2.459,0.0,-2.5704,-2.7153,-2.7808,-2.7816,-2.9248,-2.99,-2.99,-3.1322,-3.1973,-3.1973,-3.3029,-3.3418,-3.3418,-3.3418,-3.3418,-3.3418,-3.3418,-3.3418,-3.3418,-3.3418,-3.3418,-3.3418,-1.4931,-1.4931,-1.4931,-1.4931,-1.5101,-1.5276,-1.5418,-1.5616,-1.5824,-1.6032,-1.606,-1.6506,-1.7424,-1.8396,0.0,-2.0461,-2.1433,-2.1984,-2.1984,-2.2826,-2.3659,-2.4217,-2.4217,-2.4495,-2.5052,0.0,0.0,-2.5059,-2.5059,-2.5059,-2.5059,-2.5059,-2.5059,-2.5059,-2.5059,-2.5059,-2.5059,-2.5059,-2.5059,-2.5059,-2.5059,-2.5059,-2.5059,-2.5059,-2.5059,-2.5081,-2.5279,-2.5352,-2.5403,-2.5725,-2.5835,-2.5857,-2.5974,-2.6296,-2.6625,-2.6625,-2.6625,-2.6625,-2.6625,-2.6478,-2.6318,-2.6318,-2.5922,-2.5498,-2.5381,-2.5198,-2.5059,-2.5059,-2.5059,-2.5059,-2.5059,-2.5059,-2.5059,-2.5059,-2.522,-2.5279,-2.5081,0.0,0.0,0.0,0.0,0.0,0.0,-2.4876,-2.4701,0.0,0.0,0.0,0.0,0.0,0.0,-2.4064,-2.4086,0.0,-2.5052,-2.5973,-2.6368,-2.6375,-2.7816,-2.8723,-2.9248,-3.0151,-3.054,-3.054,-3.146,-3.1854,-3.1854,-3.1854,-3.1854,-3.1854,-3.1854,-3.1854,-3.1854,-3.1854,-3.1854,-3.1854,-1.4931,-1.4931,0.0,0.0,-1.5087,0.0,-1.5229,-1.5408,-1.5611,-1.581,-1.5838,-1.5923,-1.6136,-1.616,-1.7273,-2.0045,0.0,0.0,0.0,-2.0599,-2.1158,-2.2545,-2.2682,-2.3372,-2.4774,-2.4916,-2.5052,-2.5059,-2.5059,-2.5059,-2.5059,-2.5059,-2.5059,-2.5059,-2.5059,-2.5059,-2.5059,-2.5059,-2.5059,-2.5059,-2.5059,-2.5059,-2.5059,-2.5059,-2.5059,-2.5059,-2.5059,-2.5059,-2.5103,-2.5396,-2.5498,-2.5549,-2.5857,-2.5952,-2.5959,-2.6003,-2.6018,-2.6018,-2.6018,-2.6003,-2.5981,-2.5981,-2.574,-2.5418,-2.5125,-2.5059,-2.5059,-2.5059,-2.5059,-2.5059,-2.5059,-2.5059,-2.5059,-2.5059,-2.5059,-2.5059,-2.5059,0.0,0.0,0.0,0.0,0.0,0.0,-2.5059,-2.4927,0.0,0.0,0.0,0.0,0.0,-2.3801,-2.4108,-2.4115,-2.4423,-2.5052,-2.5059,-2.5059,-2.5059,-2.6368,-2.7676,-2.8863,-2.8986,-2.8986,-2.9125,-2.9125,-2.9248,-2.9248,-2.9248,-2.9248,-2.9248,-2.9248,-2.9248,-2.9248,-2.9248,-2.9248,-2.9248,0.0,0.0,-1.4931,-1.4931,-1.4974,-1.5054,-1.521,-1.5276,-1.5385,-1.5602,-1.563,-1.5711,-1.5914,-1.5938,-1.6279,-1.7137,-1.8266,-1.8955,-1.8955,-1.9918,-2.0737,-2.1158,-2.1152,-2.1296,-2.1709,-2.2819,-2.3938,-2.5059,-2.5059,-2.5059,-2.5059,-2.5059,-2.5059,-2.5059,-2.5059,-2.5059,-2.5059,-2.5059,-2.5059,-2.5059,-2.5059,-2.5059,-2.5059,-2.5059,-2.5059,-2.5059,-2.5059,-2.5059,-2.5066,-2.514,-2.5169,-2.5183,-2.5264,-2.5286,-2.5381,-2.5871,-2.6018,-2.6018,-2.6018,-2.5835,-2.5644,-2.5644,-2.5403,-2.5147,-2.5074,-2.5059,-2.5059,-2.5059,-2.5059,-2.5059,-2.5059,-2.5059,-2.5059,-2.5059,-2.5059,-2.5059,-2.5059,-2.5059,0.0,0.0,-2.5059,-2.5059,-2.5059,-2.5059,-2.5022,0.0,0.0,0.0,0.0,-2.4386,-2.4371,-2.4452,-2.4459,-2.4649,-2.5052,-2.5059,-2.5059,-2.5059,-2.545,-2.5712,-2.6107,-2.7153,-2.7543,-2.7676,-2.8723,-2.9248,-2.9248,-2.9248,-2.9248,-2.9248,-2.9248,-2.9248,-2.9248,-2.9248,-2.9248,-2.9248,-1.4931,-1.4931,-1.4931,-1.4931,-1.4931,-1.4969,-1.5078,-1.5096,-1.5172,-1.5385,-1.5413,-1.5489,-1.5701,-1.572,-1.5772,-1.589,-1.6762,-1.7434,-1.7434,-1.8121,-1.8949,-1.9507,-1.9646,-1.9918,-2.0599,-2.1433,-2.2265,-2.3099,-2.3659,-2.4074,-2.4074,-2.4774,-2.5059,-2.5059,-2.5059,-2.5059,-2.5059,-2.5059,-2.5059,-2.5059,-2.5059,-2.5059,-2.5059,-2.5059,-2.5059,-2.5059,-2.5059,-2.5059,-2.5059,-2.5059,-2.5059,-2.5059,-2.5059,-2.5059,-2.5125,-2.5476,-2.5579,-2.5579,-2.5579,-2.5447,-2.5315,-2.5315,-2.5183,-2.5059,-2.5059,-2.5059,-2.5059,-2.5059,-2.5059,-2.5059,-2.5059,-2.5059,-2.5059,-2.5059,-2.5059,-2.5059,-2.5059,-2.5059,0.0,-2.5059,-2.5059,-2.5059,-2.5059,-2.5059,-2.5059,-2.5059,-2.5059,0.0,-2.4803,-2.4649,-2.4569,-2.4569,-2.4569,-2.473,-2.5052,-2.4913,-2.4759,-2.4613,-2.4613,-2.4613,-2.4613,-2.5385,-2.5773,-2.5766,-2.6545,-2.6937,-2.6937,-2.6937,-2.6937,-2.6937,-2.6937,-2.6937,-2.6937,-2.6937,-2.6937,-2.6937,-1.4931,-1.4931,-1.4931,-1.4931,-1.4931,-1.4931,-1.4931,-1.4931,-1.4997,-1.5163,-1.5186,-1.5271,-1.5489,-1.5512,-1.5526,-1.556,-1.5886,-1.6089,-1.6089,-1.6089,-1.6641,-1.7886,-1.8057,-1.8626,-1.9854,-2.0166,-2.0328,-2.0599,-2.1846,-2.2402,-2.2545,-2.3802,-2.4495,-2.4774,-2.4774,-2.4916,-2.5059,-2.5059,-2.5059,-2.5059,-2.5059,-2.5059,-2.5059,-2.5059,-2.5059,-2.5059,-2.5059,-2.5059,-2.5059,-2.5059,-2.5059,-2.5059,-2.5059,-2.5059,-2.5059,-2.5059,-2.5059,-2.5059,-2.5059,-2.5059,-2.5059,-2.5059,-2.5059,-2.5059,-2.5059,-2.5059,-2.5059,-2.5059,-2.5059,-2.5059,-2.5059,-2.5059,-2.5059,-2.5059,-2.5059,-2.5059,-2.5059,0.0,-2.5059,-2.5059,-2.5059,-2.5059,-2.5059,-2.5059,-2.5059,-2.5059,-2.5059,-2.5037,-2.4986,-2.4723,-2.4547,-2.4496,-2.4496,-2.4627,-2.4905,-2.4635,-2.4357,-2.4086,-2.4086,-2.4086,-2.4086,-2.4086,-2.4086,-2.4086,-2.4086,-2.4086,-2.4086,-2.4086,-2.4086,-2.4086,-2.4086,-2.4086,-2.4086,-2.4086,-2.4086,-2.4086,-1.4931,-1.4931,-1.4931,-1.4931,-1.4931,-1.4931,-1.4931,-1.4931,-1.4941,-1.4974,-1.4978,-1.5059,-1.5262,-1.5281,-1.5356,-1.5545,-1.5621,-1.5659,-1.5659,-1.5659,-1.5796,-1.606,-1.6229,-1.6456,-1.6589,-1.802,-1.9367,-2.0599,-2.0876,-2.0876,-2.1014,-2.1158,-2.1984,-2.3099,-2.3099,-2.3931,-2.5059,-2.5059,-2.5059,-2.5059,-2.5059,-2.5059,-2.5059,-2.5059,-2.5059,-2.5059,-2.5059,-2.5059,-2.5059,-2.5059,-2.5059,-2.5059,-2.5059,-2.5059,-2.5059,-2.5059,-2.5059,-2.5059,-2.5059,-2.5059,-2.5059,-2.5059,-2.5059,-2.5059,-2.5059,-2.5059,-2.5059,-2.5059,-2.5059,-2.5059,-2.5059,-2.5059,-2.5059,-2.5059,-2.5059,-2.5059,-2.5059,0.0,-2.5059,-2.5059,-2.5059,-2.5059,-2.5059,-2.5059,-2.5059,-2.5059,-2.5059,-2.4935,-2.4657,-2.4598,-2.4444,-2.4166,-2.4159,-2.4181,-2.4232,-2.4181,-2.413,-2.4086,-2.4086,-2.4086,-2.4086,-2.4086,-2.4086,-2.4086,-2.4086,-2.4086,-2.4086,-2.4086,-2.4086,-2.4086,-2.4086,-2.4086,-2.4086,-2.4086,-2.4086,-2.4086,-1.4931,-1.4931,-1.4931,-1.4931,-1.4931,-1.4931,-1.4931,-1.4931,-1.4931,-1.4931,-1.4931,-1.4969,-1.5059,-1.5068,-1.5111,-1.5215,-1.5219,-1.5219,-1.5219,-1.5437,-1.556,-1.556,-1.5649,-1.5697,-1.5697,-1.6476,-1.7205,-1.7882,-1.8697,-1.9101,-1.9107,-2.0054,-2.0804,-2.1499,-2.1508,-2.199,-2.2682,-2.2682,-2.3099,-2.3802,-2.3802,-2.436,-2.5059,-2.5059,-2.5059,-2.5059,-2.5059,-2.5059,-2.5059,-2.5059,-2.5059,-2.5059,-2.5059,-2.5059,-2.5059,-2.5059,-2.5059,-2.5059,-2.5059,-2.5059,-2.5059,-2.5059,-2.5059,-2.5059,-2.5059,-2.5059,-2.5059,-2.5059,-2.5059,-2.5059,-2.5059,-2.5059,-2.5059,-2.5059,-2.5059,0.0,0.0,-2.5059,-2.5059,-2.5059,-2.5059,-2.5059,-2.5059,-2.5059,-2.5059,-2.5059,-2.4891,-2.473,-2.4576,-2.424,-2.3976,-2.383,-2.3991,-2.3998,-2.3823,-2.3823,-2.3735,-2.3559,-2.3559,-2.3559,-2.3559,-2.3559,-2.3559,-2.3559,-2.3559,-2.3559,-2.3559,-2.3559,-2.3559,-2.3559,-2.3559,-2.3559,-2.3559,-2.3559,-2.3559,-2.3559,-1.4931,-1.4931,-1.4931,-1.4931,-1.4931,-1.4931,-1.4931,-1.4931,-1.4931,-1.4931,-1.4931,-1.4931,-1.4931,-1.4931,-1.4931,-1.4931,-1.4931,-1.4931,-1.4931,-1.5233,-1.5413,-1.5413,-1.546,-1.5508,-1.556,-1.556,-1.556,-1.556,-1.6766,-1.7302,-1.7307,-1.8558,-1.9451,-1.9734,-1.9923,-2.0144,-2.0424,-2.0484,-2.1202,-2.2173,-2.2239,-2.2963,-2.4074,-2.4488,-2.4631,-2.4631,-2.4916,-2.5059,-2.5059,-2.5059,-2.5059,-2.5059,-2.5059,-2.5059,-2.5059,-2.5059,-2.5059,-2.5059,-2.5059,-2.5059,-2.5059,-2.5059,-2.5059,-2.5059,-2.5059,-2.5059,-2.5059,-2.5059,-2.5059,-2.5059,-2.5059,-2.5059,-2.5059,-2.5059,0.0,0.0,0.0,-2.5059,-2.5059,-2.5059,-2.5059,-2.5059,-2.5059,-2.5059,-2.5022,-2.4949,-2.4715,-2.4503,-2.4349,-2.3866,-2.3559,-2.3486,-2.3727,-2.3735,-2.3486,-2.3479,-2.3354,-2.3106,-2.3106,-2.3106,-2.3106,-2.3106,-2.3106,-2.3106,-2.3106,-2.3106,-2.3106,-2.3106,-2.3106,-2.3106,-2.3106,-2.3106,-2.3106,-2.3106,-2.3106,-2.3106,-1.4931,-1.4931,-1.4931,-1.4931,-1.4931,-1.4931,-1.4931,-1.4931,-1.4931,-1.4931,-1.4931,-1.4931,-1.4931,-1.4931,-1.4931,-1.4931,-1.4931,-1.4931,-1.4931,-1.4964,-1.4978,-1.4978,-1.5158,-1.5352,-1.5555,-1.556,-1.556,-1.556,-1.5696,-1.5696,-1.5696,-1.5841,-1.6656,-1.7992,-1.8014,-1.8821,-2.0045,-2.0282,-2.0385,-2.0539,-2.0646,-2.0876,-2.102,-2.2402,-2.2956,-2.3099,-2.4638,-2.5059,-2.5059,-2.5059,-2.5059,-2.5059,-2.5059,-2.5059,-2.5059,-2.5059,-2.5059,-2.5059,-2.5059,-2.5059,-2.5059,-2.5059,-2.5059,-2.5059,-2.5059,-2.5059,-2.5059,-2.5059,-2.5059,-2.5059,-2.5059,-2.5059,-2.5059,-2.5059,0.0,0.0,-2.5059,-2.5059,-2.5059,-2.5059,-2.5059,-2.5059,-2.5059,-2.5059,-2.4927,-2.4627,-2.4583,-2.4305,-2.3698,-2.3618,-2.3457,-2.3157,-2.3171,-2.3171,-2.3142,-2.3142,-2.3135,-2.3106,-2.3106,-2.3106,-2.3106,-2.3106,-2.3106,-2.3106,-2.3106,-2.3106,-2.3106,-2.3106,-2.3106,-2.3106,-2.3106,-2.3106,-2.3106,-2.3106,-2.3106,-2.3106,-1.4931,-1.4931,-1.4931,-1.4931,-1.4931,-1.4931,-1.4931,-1.4931,-1.4931,-1.4931,-1.4931,-1.4931,-1.4931,-1.4931,-1.4931,-1.4931,-1.4931,-1.4931,-1.4931,-1.4931,-1.4931,-1.4931,-1.5007,-1.5087,-1.5167,-1.5172,-1.5172,-1.5172,-1.5172,-1.5172,-1.5172,-1.53,-1.562,-1.6156,-1.63,-1.6766,-1.7307,-1.7391,-1.7966,-1.8783,-1.8868,-1.9451,-2.0263,-2.0803,-2.1179,-2.1325,-2.1875,-2.2257,-2.2408,-2.3379,-2.3652,-2.3795,-2.4774,-2.5059,-2.5059,-2.5059,-2.5059,-2.5059,-2.5059,-2.5059,-2.5059,-2.5059,-2.5059,-2.5059,-2.5059,-2.5059,-2.5059,-2.5059,-2.5059,-2.5059,-2.5059,-2.5059,-2.5059,-2.5059,0.0,-2.5059,-2.5059,-2.5059,-2.5059,-2.5059,-2.5059,-2.5059,-2.5059,-2.4876,-2.4701,-2.4576,-2.4196,-2.3859,-2.361,-2.3406,-2.3237,-2.3113,-2.3106,-2.3106,-2.3106,-2.3106,-2.3106,-2.3106,-2.3106,-2.3106,-2.3106,-2.3106,-2.3106,-2.3106,-2.3106,-2.3106,-2.3106,-2.3106,-2.3106,-2.3106,-2.3106,-2.3106,-2.3106,-2.3106,-2.3106,-2.3106,-1.4931,-1.4931,-1.4931,-1.4931,-1.4931,-1.4931,-1.4931,-1.4931,-1.4931,-1.4931,-1.4931,-1.4931,-1.4931,-1.4931,-1.4931,-1.4931,-1.4931,-1.4931,-1.4931,-1.4931,-1.4931,-1.4931,-1.4931,-1.4931,-1.4931,-1.4931,-1.4931,-1.4931,-1.4931,-1.4931,-1.4936,-1.5073,-1.5139,-1.5144,-1.5295,-1.5361,-1.5366,-1.5432,-1.6126,-1.6928,-1.7136,-1.7701,-1.8636,-1.9171,-1.9411,-1.9558,-2.0098,-2.0348,-2.0637,-2.159,-2.1927,-2.2134,-2.3242,-2.3589,-2.3659,-2.3659,-2.4074,-2.4353,-2.4353,-2.4774,-2.5059,-2.5059,-2.5059,-2.5059,-2.5059,-2.5059,-2.5059,-2.5059,-2.5059,-2.5059,-2.5059,-2.5059,-2.5059,-2.5059,-2.5059,-2.5059,-2.5059,-2.5059,-2.5059,-2.5059,-2.4964,-2.4905,-2.4905,-2.4613,-2.4371,-2.4276,-2.3845,-2.3552,-2.3449,-2.323,-2.3106,-2.3106,-2.3106,-2.3106,-2.3106,-2.3106,-2.3106,-2.3106,-2.3106,-2.3106,-2.3106,-2.3106,-2.3106,-2.3106,-2.3106,-2.3106,-2.3106,-2.3106,-2.3106,-2.3106,-2.3106,-2.3106,-2.3106,-2.3106,-2.3106,-2.3106,-1.4931,-1.4931,-1.4931,-1.4931,-1.4931,-1.4931,-1.4931,-1.4931,-1.4931,-1.4931,-1.4931,-1.4931,-1.4931,-1.4931,-1.4931,-1.4931,-1.4931,-1.4931,-1.4931,-1.4931,-1.4931,-1.4931,-1.4931,-1.4931,-1.4931,-1.4931,-1.4931,-1.4931,-1.4931,-1.4931,-1.4931,-1.4931,-1.4931,-1.4931,-1.4931,-1.4931,-1.4945,-1.5144,-1.5229,-1.5248,-1.5465,-1.5555,-1.5691,-1.7162,-1.783,-1.7965,-1.9433,-1.9972,-1.9972,-1.9972,-2.0142,-2.0219,-2.0348,-2.0388,-2.0593,-2.0593,-2.1565,-2.2812,-2.2812,-2.3931,-2.5052,-2.5052,-2.5059,-2.5059,-2.5059,-2.5059,-2.5059,-2.5059,-2.5059,-2.5059,-2.5059,-2.5059,-2.5059,-2.5059,-2.5059,-2.5059,-2.5059,-2.5052,-2.5052,-2.5052,-2.4766,-2.4569,-2.4569,-2.4269,-2.3947,-2.3618,-2.3596,-2.3449,-2.3128,-2.3106,-2.3106,-2.3106,-2.3106,-2.3106,-2.3106,-2.3106,-2.3106,-2.3106,-2.3106,-2.3106,-2.3106,-2.3106,-2.3106,-2.3106,-2.3106,-2.3106,-2.3106,-2.3106,-2.3106,-2.3106,-2.3106,-2.3106,-2.3106,-2.3106,-2.3106,-2.3106,-1.4931,-1.4931,-1.4931,-1.4931,-1.4931,-1.4931,-1.4931,-1.4931,-1.4931,-1.4931,-1.4931,-1.4931,-1.4931,-1.4931,-1.4931,-1.4931,-1.4931,-1.4931,-1.4931,-1.4931,-1.4931,-1.4931,-1.4931,-1.4931,-1.4931,-1.4931,-1.4931,-1.4931,-1.4931,-1.4931,-1.4931,-1.4931,-1.4931,-1.4931,-1.4931,-1.4931,-1.4936,-1.4997,-1.5021,-1.5026,-1.5092,-1.512,-1.512,-1.5639,-1.5865,-1.5988,-1.6517,-1.6758,-1.7032,-1.8099,-1.8553,-1.8744,-1.9813,-2.0136,-2.0203,-2.0203,-2.0472,-2.0875,-2.0875,-2.1283,-2.2301,-2.4581,-2.5059,-2.5059,-2.5059,-2.5059,-2.5059,-2.5059,-2.5059,-2.5059,-2.5059,-2.5059,-2.5059,-2.5059,-2.5059,-2.5059,-2.5059,-2.4862,-2.4715,-2.4715,-2.443,-2.4232,-2.4232,-2.3932,-2.3698,-2.3603,-2.3384,-2.3208,-2.3113,-2.3106,-2.3106,-2.3106,-2.3106,-2.3106,-2.3106,-2.3106,-2.3106,-2.3106,-2.3106,-2.3106,-2.3106,-2.3106,-2.3106,-2.3106,-2.3106,-2.3106,-2.3106,-2.3106,-2.3106,-2.3106,-2.3106,-2.3106,-2.3106,-2.3106,-2.3106,-2.3106,-1.4931,-1.4931,-1.4931,-1.4931,-1.4931,-1.4931,-1.4931,-1.4931,-1.4931,-1.4931,-1.4931,-1.4931,-1.4931,-1.4931,-1.4931,-1.4931,-1.4931,-1.4931,-1.4931,-1.4931,-1.4931,-1.4931,-1.4931,-1.4931,-1.4931,-1.4931,-1.4931,-1.4931,-1.4931,-1.4931,-1.4931,-1.4931,-1.4931,-1.4931,-1.4931,-1.4931,-1.4931,-1.4931,-1.4931,-1.4931,-1.4931,-1.4931,-1.4931,-1.4931,-1.5007,-1.5115,-1.5115,-1.52,-1.5443,-1.6363,-1.6686,-1.6908,-1.7937,-1.8234,-1.8234,-1.8234,-1.8636,-1.9171,-1.9171,-1.9679,-2.065,-2.258,-2.3208,-2.3522,-2.4074,-2.4217,-2.4353,-2.4916,-2.5059,-2.5059,-2.5059,-2.5059,-2.5059,-2.5059,-2.4949,-2.4869,-2.4869,-2.4583,-2.4379,-2.4379,-2.4093,-2.3888,-2.3888,-2.3596,-2.3406,-2.3406,-2.3215,-2.3106,-2.3106,-2.3106,-2.3106,-2.3106,-2.3106,-2.3106,-2.3106,-2.3106,-2.3106,-2.3106,-2.3106,-2.3106,-2.3106,-2.3106,-2.3106,-2.3106,-2.3106,-2.3106,-2.3106,-2.3106,-2.3106,-2.3106,-2.3106,-2.3106,-2.3106,-2.3106,-2.3106,-2.3106,-1.4931,-1.4931,-1.4931,-1.4931,-1.4931,-1.4931,-1.4931,-1.4931,-1.4931,-1.4931,-1.4931,-1.4931,-1.4931,-1.4931,-1.4931,-1.4931,-1.4931,-1.4931,-1.4931,-1.4931,-1.4931,-1.4931,-1.4931,-1.4931,-1.4931,-1.4931,-1.4931,-1.4931,-1.4931,-1.4931,-1.4931,-1.4931,-1.4931,-1.4931,-1.4931,-1.4931,-1.4931,-1.4931,-1.4931,-1.4931,-1.4931,-1.4931,-1.4931,-1.4931,-1.4931,-1.4931,-1.4931,-1.4931,-1.4931,-1.4931,-1.5054,-1.5238,-1.5441,-1.5508,-1.5508,-1.5508,-1.6435,-1.7502,-1.7502,-1.8585,-1.953,-1.953,-1.9899,-2.0533,-2.2186,-2.2603,-2.2889,-2.4409,-2.4694,-2.4694,-2.4694,-2.4694,-2.4694,-2.4694,-2.4448,-2.4392,-2.4392,-2.4247,-2.4042,-2.4042,-2.3749,-2.3552,-2.3552,-2.3281,-2.3106,-2.3106,-2.3106,-2.3106,-2.3106,-2.3106,-2.3106,-2.3106,-2.3106,-2.3106,-2.3106,-2.3106,-2.3106,-2.3106,-2.3106,-2.3106,-2.3106,-2.3106,-2.3106,-2.3106,-2.3106,-2.3106,-2.3106,-2.3106,-2.3106,-2.3106,-2.3106,-2.3106,-2.3106,-2.3106,-2.3106,-2.3106,-1.4931,-1.4931,-1.4931,-1.4931,-1.4931,-1.4931,-1.4931,-1.4931,-1.4931,-1.4931,-1.4931,-1.4931,-1.4931,-1.4931,-1.4931,-1.4931,-1.4931,-1.4931,-1.4931,-1.4931,-1.4931,-1.4931,-1.4931,-1.4931,-1.4931,-1.4931,-1.4931,-1.4931,-1.4931,-1.4931,-1.4931,-1.4931,-1.4931,-1.4931,-1.4931,-1.4931,-1.4931,-1.4931,-1.4931,-1.4931,-1.4931,-1.4931,-1.4931,-1.4931,-1.4931,-1.4931,-1.4931,-1.4931,-1.4931,-1.4931,-1.4964,-1.5007,-1.5054,-1.5068,-1.5068,-1.5068,-1.5327,-1.559,-1.559,-1.5835,-1.6225,-1.6225,-1.643,-1.7308,-2.0002,-2.0678,-2.0678,-2.1079,-2.1086,-2.1086,-2.1086,-2.1086,-2.1086,-2.1086,-2.1959,-2.2586,-2.2586,-2.3242,-2.3698,-2.3698,-2.3413,-2.3215,-2.3215,-2.3149,-2.3106,-2.3106,-2.3106,-2.3106,-2.3106,-2.3106,-2.3106,-2.3106,-2.3106,-2.3106,-2.3106,-2.3106,-2.3106,-2.3106,-2.3106,-2.3106,-2.3106,-2.3106,-2.3106,-2.3106,-2.3106,-2.3106,-2.3106,-2.3106,-2.3106,-2.3106,-2.3106,-2.3106,-2.3106,-2.3106,-2.3106,-2.3106,-1.4931,-1.4931,-1.4931,-1.4931,-1.4931,-1.4931,-1.4931,-1.4931,-1.4931,-1.4931,-1.4931,-1.4931,-1.4931,-1.4931,-1.4931,-1.4931,-1.4931,-1.4931,-1.4931,-1.4931,-1.4931,-1.4931,-1.4931,-1.4931,-1.4931,-1.4931,-1.4931,-1.4931,-1.4931,-1.4931,-1.4931,-1.4931,-1.4931,-1.4931,-1.4931,-1.4931,-1.4931,-1.4931,-1.4931,-1.4931,-1.4931,-1.4931,-1.4931,-1.4931,-1.48,-1.467,-1.48,-1.4931,-1.4931,-1.467,-1.48,-1.4931,-1.467,-1.467,-1.467,-1.48,-1.48,-1.467,-1.48,-1.5011,-1.5092,-1.5092,-1.5177,-1.5973,-1.8446,-1.8904,-1.9171,-1.9839,-1.9972,-1.9972,-1.9972,-1.9972,-1.9972,-1.9972,-2.105,-2.175,-2.175,-2.2659,-2.3362,-2.3362,-2.3215,-2.3106,-2.3106,-2.3106,-2.3106,-2.3106,-2.3106,-2.3106,-2.3106,-2.3106,-2.3106,-2.3106,-2.3106,-2.3106,-2.3106,-2.3106,-2.3106,-2.3106,-2.3106,-2.3106,-2.3106,-2.3106,-2.3106,-2.3106,-2.3106,-2.3106,-2.3106,-2.3106,-2.3106,-2.3106,-2.3106,-2.3106,-2.3106,-2.3106,-2.3106,-2.3106,-1.4931,-1.4931,-1.4931,-1.4931,-1.4931,-1.4931,-1.4931,-1.4931,-1.4931,-1.4931,-1.4931,-1.4931,-1.4931,-1.4931,-1.4931,-1.4931,-1.4931,-1.4931,-1.4931,-1.4931,-1.4931,-1.4931,-1.4931,-1.4931,-1.4931,-1.4931,-1.4931,-1.4931,-1.4931,-1.4931,-1.4931,-1.4931,-1.4931,-1.4931,-1.4931,-1.4931,-1.4931,-1.4931,-1.4931,-1.4931,-1.4931,-1.4931,-1.4931,-1.4931,-1.467,-1.4539,-1.48,-1.4931,-1.48,-1.4534,-1.467,-1.48,-1.4539,-1.4534,-1.4534,-1.48,-1.467,-1.4539,-1.48,-1.4931,-1.4931,-1.4931,-1.4931,-1.5279,-1.6958,-1.7315,-1.7711,-1.8904,-1.917,-1.917,-1.917,-1.917,-1.917,-1.917,-2.0036,-2.0922,-2.1179,-2.2124,-2.2856,-2.3106,-2.3106,-2.3106,-2.3106,-2.3106,-2.3106,-2.3106,-2.3106,-2.3106,-2.3106,-2.3106,-2.3106,-2.3106,-2.3106,-2.3106,-2.3106,-2.3106,-2.3106,-2.3106,-2.3106,-2.3106,-2.3106,-2.3106,-2.3106,-2.3106,-2.3106,-2.3106,-2.3106,-2.3106,-2.3106,-2.3106,-2.3106,-2.3106,-2.3106,-2.3106,-2.3106,-2.3106,-1.4931,-1.4931,-1.4931,-1.4931,-1.4931,-1.4931,-1.4931,-1.4931,-1.4931,-1.4931,-1.4931,-1.4931,-1.4931,-1.4931,-1.4931,-1.4931,-1.4931,-1.4931,-1.4931,-1.4931,-1.4931,-1.4931,-1.4931,-1.4931,-1.4931,-1.4931,-1.4931,-1.4931,-1.4931,-1.4931,-1.4931,-1.4931,-1.4931,-1.4931,-1.4931,-1.4931,-1.4931,-1.4931,-1.4931,-1.4931,-1.4931,-1.4931,-1.4931,-1.4931,-1.4931,-1.48,-1.4931,-1.4931,-1.4931,-1.48,-1.48,-1.4931,-1.48,-1.48,-1.48,-1.4931,-1.4931,-1.48,-1.4931,-1.4931,-1.4931,-1.4931,-1.4931,-1.4945,-1.5264,-1.5274,-1.5405,-1.5531,-1.5531,-1.5531,-1.5531,-1.5531,-1.5531,-1.5531,-1.679,-1.8056,-1.9218,-2.0462,-2.1839,-2.2981,-2.3106,-2.3106,-2.3106,-2.3106,-2.3106,-2.3106,-2.3106,-2.3106,-2.3106,-2.3106,-2.3106,-2.3106,-2.3106,-2.3106,-2.3106,-2.3106,-2.3106,-2.3106,-2.3106,-2.3106,-2.3106,-2.3106,-2.3106,-2.3106,-2.3106,-2.3106,-2.3106,-2.3106,-2.3106,-2.3106,-2.3106,-2.3106,-2.3106,-2.3106,-2.3106,-2.3106,-1.4931,-1.4931,-1.4931,-1.4931,-1.4931,-1.4931,-1.4931,-1.4931,-1.4931,-1.4931,-1.4931,-1.4931,-1.4931,-1.4931,-1.4931,-1.4931,-1.4931,-1.4931,-1.4931,-1.4931,-1.4931,-1.4931,-1.4931,-1.4931,-1.4931,-1.4931,-1.4931,-1.4931,-1.4931,-1.4931,-1.4931,-1.4931,-1.48,-1.467,-1.467,-1.4539,-1.4403,-1.4403,-1.4403,-1.467,-1.467,-1.467,-1.4931,-1.4931,-1.48,-1.467,-1.467,-1.48,-1.4931,-1.467,-1.48,-1.4931,-1.467,-1.467,-1.467,-1.48,-1.48,-1.467,-1.48,-1.4931,-1.4931,-1.4931,-1.4931,-1.4931,-1.4931,-1.48,-1.467,-1.48,-1.4931,-1.4931,-1.4931,-1.4931,-1.4931,-1.4931,-1.6084,-1.7238,-1.7748,-1.903,-2.0436,-2.1839,-2.2598,-2.3106,-2.3106,-2.3106,-2.3106,-2.3106,-2.3106,-2.3106,-2.3106,-2.3106,-2.3106,-2.3106,-2.3106,-2.3106,-2.3106,-2.3106,-2.3106,-2.3106,-2.3106,-2.3106,-2.3106,-2.3106,-2.3106,-2.3106,-2.3106,-2.3106,-2.3106,-2.3106,-2.3106,-2.3106,-2.3106,-2.3106,-2.3106,-2.3106,-2.3106,-2.3106]},{"header":{"parameterUnit":"m.s-1","parameterCategory":1,"la1":30.6,"la2":28.766,"lo1":-90.7593,"lo2":-88.6598,"dy":0.0162,"dx":0.0183,"nx":116,"ny":114,"refTime":"2023-06-23T12:00:00:Z","depth":0,"parameterNumber":3,"parameterNumberName":"V-component_of_WINDS"},"data":[0.0,0.0,0.0,0.0,0.0,0.0,0.0,0.0,0.0,0.0,0.0,0.0,0.0,0.0,0.0,0.0,0.0,0.0,0.0,0.0,0.0,0.0,0.0,0.0,0.0,0.0,0.0,0.0,0.0,0.0,0.0,0.0,0.0,0.0,0.0,0.0,0.0,0.0,0.0,0.0,0.0,0.0,0.0,0.0,0.0,0.0,0.0,0.0,0.0,0.0,0.0,0.0,0.0,0.0,0.0,0.0,0.0,0.0,0.0,0.0,0.0,0.0,0.0,0.0,0.0,0.0,0.0,0.0,0.0,0.0,0.0,0.0,0.0,0.0,0.0,0.0,0.0,0.0,0.0,0.0,0.0,0.0,0.0,0.0,0.0,0.0,0.0,0.0,0.0,0.0,0.0,0.0,0.0,0.0,0.0,0.0,0.0,0.0,0.0,0.0,0.0,0.0,0.0,0.0,0.0,0.0,0.0,0.0,0.0,0.0,0.0,0.0,0.0,0.0,0.0,0.0,0.0,0.0,0.0,0.0,0.0,0.0,0.0,0.0,0.0,0.0,0.0,0.0,0.0,0.0,0.0,0.0,0.0,0.0,0.0,0.0,0.0,0.0,0.0,0.0,0.0,0.0,0.0,0.0,0.0,0.0,0.0,0.0,0.0,0.0,0.0,0.0,0.0,0.0,0.0,0.0,0.0,0.0,0.0,0.0,0.0,0.0,0.0,0.0,0.0,0.0,0.0,0.0,0.0,0.0,0.0,0.0,0.0,0.0,0.0,0.0,0.0,0.0,0.0,0.0,0.0,0.0,0.0,0.0,0.0,0.0,0.0,0.0,0.0,0.0,0.0,0.0,0.0,0.0,0.0,0.0,0.0,0.0,0.0,0.0,0.0,0.0,0.0,0.0,0.0,0.0,0.0,0.0,0.0,0.0,0.0,0.0,0.0,0.0,0.0,0.0,0.0,0.0,0.0,0.0,0.0,0.0,0.0,0.0,0.0,0.0,0.0,0.0,0.0,0.0,0.0,0.0,0.0,0.0,0.0,0.0,0.0,0.0,0.0,0.0,0.0,0.0,0.0,0.0,0.0,0.0,0.0,0.0,0.0,0.0,0.0,0.0,0.0,0.0,0.0,0.0,0.0,0.0,0.0,0.0,0.0,0.0,0.0,0.0,0.0,0.0,0.0,0.0,0.0,0.0,0.0,0.0,0.0,0.0,0.0,0.0,0.0,0.0,0.0,0.0,0.0,0.0,0.0,0.0,0.0,0.0,0.0,0.0,0.0,0.0,0.0,0.0,0.0,0.0,0.0,0.0,0.0,0.0,0.0,0.0,0.0,0.0,0.0,0.0,0.0,0.0,0.0,0.0,0.0,0.0,0.0,0.0,0.0,0.0,0.0,0.0,0.0,0.0,0.0,0.0,0.0,0.0,0.0,0.0,0.0,0.0,0.0,0.0,0.0,0.0,0.0,0.0,0.0,0.0,0.0,0.0,0.0,0.0,0.0,0.0,0.0,0.0,0.0,0.0,0.0,0.0,0.0,0.0,0.0,0.0,0.0,0.0,0.0,0.0,0.0,0.0,0.0,0.0,0.0,0.0,0.0,0.0,0.0,0.0,0.0,0.0,0.0,0.0,0.0,0.0,0.0,0.0,0.0,0.0,0.0,0.0,0.0,0.0,0.0,0.0,0.0,0.0,0.0,0.0,0.0,0.0,0.0,0.0,0.0,0.0,0.0,0.0,0.0,0.0,0.0,0.0,0.0,0.0,0.0,0.0,0.0,0.0,0.0,0.0,0.0,0.0,0.0,0.0,0.0,0.0,0.0,0.0,0.0,0.0,0.0,0.0,0.0,0.0,0.0,0.0,0.0,0.0,0.0,0.0,0.0,0.0,0.0,0.0,0.0,0.0,0.0,0.0,0.0,0.0,0.0,0.0,0.0,0.0,0.0,0.0,0.0,0.0,0.0,0.0,0.0,0.0,0.0,0.0,0.0,0.0,0.0,0.0,0.0,0.0,0.0,0.0,0.0,0.0,0.0,0.0,0.0,0.0,0.0,0.0,0.0,0.0,0.0,0.0,0.0,0.0,0.0,0.0,0.0,0.0,0.0,0.0,0.0,0.0,0.0,0.0,0.0,0.0,0.0,0.0,0.0,0.0,0.0,0.0,0.0,0.0,0.0,0.0,0.0,0.0,0.0,0.0,0.0,0.0,0.0,0.0,0.0,0.0,0.0,0.0,0.0,0.0,0.0,0.0,0.0,0.0,0.0,0.0,0.0,0.0,0.0,0.0,0.0,0.0,0.0,0.0,0.0,0.0,0.0,0.0,0.0,0.0,0.0,0.0,0.0,0.0,0.0,0.0,0.0,0.0,0.0,0.0,0.0,0.0,0.0,0.0,0.0,0.0,0.0,0.0,0.0,0.0,0.0,0.0,0.0,0.0,0.0,0.0,0.0,0.0,0.0,0.0,0.0,0.0,0.0,0.0,0.0,0.0,0.0,0.0,0.0,0.0,0.0,0.0,0.0,0.0,0.0,0.0,0.0,0.0,0.0,0.0,0.0,0.0,0.0,0.0,0.0,0.0,0.0,0.0,0.0,0.0,0.0,0.0,0.0,0.0,0.0,0.0,0.0,0.0,0.0,0.0,0.0,0.0,0.0,0.0,0.0,0.0,0.0,0.0,0.0,0.0,0.0,0.0,0.0,0.0,0.0,0.0,0.0,0.0,0.0,0.0,0.0,0.0,0.0,0.0,0.0,0.0,0.0,0.0,0.0,0.0,0.0,0.0,0.0,0.0,0.0,0.0,0.0,0.0,0.0,0.0,0.0,0.0,0.0,0.0,0.0,0.0,0.0,0.0,0.0,0.0,0.0,0.0,0.0,0.0,0.0,0.0,0.0,0.0,0.0,0.0,0.0,0.0,0.0,0.0,0.0,0.0,0.0,0.0,0.0,0.0,0.0,0.0,0.0,0.0,0.0,0.0,0.0,0.0,0.0,0.0,0.0,0.0,0.0,0.0,0.0,0.0,0.0,0.0,0.0,0.0,0.0,0.0,0.0,0.0,0.0,0.0,0.0,0.0,0.0,0.0,0.0,0.0,0.0,0.0,0.0,0.0,0.0,0.0,0.0,0.0,0.0,0.0,0.0,0.0,0.0,0.0,0.0,0.0,0.0,0.0,0.0,0.0,0.0,0.0,0.0,0.0,0.0,0.0,0.0,0.0,0.0,0.0,0.0,0.0,0.0,0.0,0.0,0.0,0.0,0.0,0.0,0.0,0.0,0.0,0.0,0.0,0.0,0.0,0.0,0.0,0.0,0.0,0.0,0.0,0.0,0.0,0.0,0.0,0.0,0.0,0.0,0.0,0.0,0.0,0.0,0.0,0.0,0.0,0.0,0.0,0.0,0.0,0.0,0.0,0.0,0.0,0.0,0.0,0.0,0.0,0.0,0.0,0.0,0.0,0.0,0.0,0.0,0.0,0.0,0.0,0.0,0.0,0.0,0.0,0.0,0.0,0.0,0.0,0.0,0.0,0.0,0.0,0.0,0.0,0.0,0.0,0.0,0.0,0.0,0.0,0.0,0.0,0.0,0.0,0.0,0.0,0.0,0.0,0.0,0.0,0.0,0.0,0.0,0.0,0.0,0.0,0.0,0.0,0.0,0.0,0.0,0.0,0.0,0.0,0.0,0.0,0.0,0.0,0.0,0.0,0.0,0.0,0.0,0.0,0.0,0.0,0.0,0.0,0.0,0.0,0.0,0.0,0.0,0.0,0.0,0.0,0.0,0.0,0.0,0.0,0.0,0.0,0.0,0.0,0.0,0.0,0.0,0.0,0.0,0.0,0.0,0.0,0.0,0.0,0.0,0.0,0.0,0.0,0.0,0.0,0.0,0.0,0.0,0.0,0.0,0.0,0.0,0.0,0.0,0.0,0.0,0.0,0.0,0.0,0.0,0.0,0.0,0.0,0.0,0.0,0.0,0.0,0.0,0.0,0.0,0.0,0.0,0.0,0.0,0.0,0.0,0.0,0.0,0.0,0.0,0.0,0.0,0.0,0.0,0.0,0.0,0.0,0.0,0.0,0.0,0.0,0.0,0.0,0.0,0.0,0.0,0.0,0.0,0.0,0.0,0.0,0.0,0.0,0.0,0.0,0.0,0.0,0.0,0.0,0.0,0.0,0.0,0.0,0.0,0.0,0.0,0.0,0.0,0.0,0.0,0.0,0.0,0.0,0.0,0.0,0.0,0.0,0.0,0.0,0.0,0.0,0.0,0.0,0.0,0.0,0.0,0.0,0.0,0.0,0.0,0.0,0.0,0.0,0.0,0.0,0.0,0.0,0.0,0.0,0.0,0.0,0.0,0.0,0.0,0.0,0.0,0.0,0.0,0.0,0.0,0.0,0.0,0.0,0.0,0.0,0.0,0.0,0.0,0.0,0.0,0.0,0.0,0.0,0.0,0.0,0.0,0.0,0.0,0.0,0.0,0.0,0.0,0.0,0.0,0.0,0.0,0.0,0.0,0.0,0.0,0.0,0.0,0.0,0.0,0.0,0.0,0.0,0.0,0.0,0.0,0.0,0.0,0.0,0.0,0.0,0.0,0.0,0.0,0.0,0.0,0.0,0.0,0.0,0.0,0.0,0.0,0.0,0.0,0.0,0.0,0.0,0.0,0.0,0.0,0.0,0.0,0.0,0.0,0.0,0.0,0.0,0.0,0.0,0.0,0.0,0.0,0.0,0.0,0.0,0.0,0.0,0.0,0.0,0.0,0.0,0.0,0.0,0.0,0.0,0.0,0.0,0.0,0.0,0.0,0.0,0.0,0.0,0.0,0.0,0.0,0.0,0.0,0.0,0.0,0.0,0.0,0.0,0.0,0.0,0.0,0.0,0.0,0.0,0.0,0.0,0.0,0.0,0.0,0.0,0.0,0.0,0.0,0.0,0.0,0.0,0.0,0.0,0.0,0.0,0.0,0.0,0.0,0.0,0.0,0.0,0.0,0.0,0.0,0.0,0.0,0.0,0.0,0.0,0.0,0.0,0.0,0.0,0.0,0.0,0.0,0.0,0.0,0.0,0.0,0.0,0.0,0.0,0.0,0.0,0.0,0.0,0.0,0.0,0.0,0.0,0.0,0.0,0.0,0.0,0.0,0.0,0.0,0.0,0.0,0.0,0.0,0.0,0.0,0.0,0.0,0.0,0.0,0.0,0.0,0.0,0.0,0.0,0.0,0.0,0.0,0.0,0.0,0.0,0.0,0.0,0.0,0.0,0.0,0.0,0.0,0.0,0.0,0.0,0.0,0.0,0.0,0.0,0.0,0.0,0.0,0.0,0.0,0.0,0.0,0.0,0.0,0.0,0.0,0.0,0.0,0.0,0.0,0.0,0.0,0.0,0.0,0.0,0.0,0.0,0.0,0.0,0.0,0.0,0.0,0.0,0.0,0.0,0.0,0.0,0.0,0.0,0.0,0.0,0.0,0.0,0.0,0.0,0.0,0.0,0.0,0.0,0.0,0.0,0.0,0.0,0.0,0.0,0.0,0.0,0.0,0.0,0.0,0.0,0.0,0.0,0.0,0.0,0.0,0.0,0.0,0.0,0.0,0.0,0.0,0.0,0.0,0.0,0.0,0.0,0.0,0.0,0.0,0.0,0.0,0.0,0.0,0.0,0.0,0.0,0.0,0.0,0.0,0.0,0.0,0.0,0.0,0.0,0.0,0.0,0.0,0.0,0.0,0.0,0.0,0.0,0.0,0.0,0.0,0.0,0.0,0.0,0.0,0.0,0.0,0.0,0.0,0.0,0.0,0.0,0.0,0.0,0.0,0.0,0.0,0.0,0.0,0.0,0.0,0.0,0.0,0.0,0.0,0.0,0.0,0.0,0.0,0.0,0.0,0.0,0.0,0.0,0.0,0.0,0.0,0.0,0.0,0.0,0.0,0.0,0.0,0.0,0.0,0.0,0.0,0.0,0.0,0.0,0.0,0.0,0.0,0.0,0.0,0.0,0.0,0.0,0.0,0.0,0.0,0.0,0.0,0.0,0.0,0.0,0.0,0.0,0.0,0.0,0.0,0.0,0.0,0.0,0.0,0.0,0.0,0.0,0.0,0.0,0.0,0.0,-3.9639,0.0,0.0,0.0,0.0,0.0,0.0,0.0,0.0,0.0,0.0,0.0,0.0,0.0,0.0,0.0,0.0,0.0,0.0,0.0,0.0,0.0,0.0,0.0,0.0,0.0,0.0,0.0,0.0,0.0,0.0,0.0,0.0,0.0,0.0,0.0,0.0,0.0,0.0,0.0,0.0,0.0,0.0,0.0,0.0,0.0,0.0,0.0,0.0,0.0,0.0,0.0,0.0,0.0,0.0,0.0,0.0,0.0,0.0,0.0,0.0,0.0,0.0,0.0,0.0,0.0,0.0,0.0,0.0,0.0,0.0,0.0,0.0,0.0,0.0,0.0,0.0,0.0,0.0,0.0,0.0,0.0,0.0,0.0,0.0,0.0,0.0,0.0,0.0,0.0,0.0,0.0,0.0,0.0,0.0,0.0,0.0,0.0,0.0,0.0,0.0,0.0,0.0,0.0,0.0,0.0,0.0,0.0,0.0,0.0,0.0,0.0,0.0,0.0,0.0,0.0,0.0,-4.0583,0.0,0.0,0.0,0.0,0.0,0.0,0.0,0.0,0.0,0.0,0.0,0.0,0.0,0.0,0.0,0.0,0.0,0.0,0.0,0.0,0.0,0.0,0.0,0.0,0.0,0.0,0.0,0.0,0.0,0.0,0.0,0.0,0.0,0.0,0.0,0.0,0.0,0.0,0.0,0.0,0.0,0.0,0.0,0.0,0.0,0.0,0.0,0.0,0.0,0.0,0.0,0.0,0.0,0.0,0.0,0.0,0.0,0.0,0.0,0.0,0.0,0.0,0.0,0.0,0.0,0.0,0.0,0.0,0.0,0.0,0.0,0.0,0.0,0.0,0.0,0.0,0.0,0.0,0.0,0.0,0.0,0.0,0.0,0.0,0.0,0.0,0.0,0.0,0.0,0.0,0.0,0.0,0.0,0.0,0.0,0.0,0.0,0.0,0.0,0.0,0.0,0.0,0.0,0.0,0.0,0.0,0.0,0.0,-3.8789,-3.9015,-3.891,-4.0394,-4.0943,-4.0848,-4.1126,-4.1265,-4.1308,0.0,0.0,0.0,0.0,0.0,0.0,0.0,0.0,0.0,0.0,0.0,0.0,0.0,0.0,0.0,0.0,0.0,0.0,0.0,0.0,0.0,0.0,0.0,0.0,0.0,0.0,0.0,0.0,0.0,0.0,0.0,0.0,0.0,0.0,0.0,0.0,0.0,0.0,0.0,0.0,0.0,0.0,0.0,0.0,0.0,0.0,0.0,0.0,0.0,0.0,0.0,0.0,0.0,0.0,0.0,0.0,0.0,0.0,0.0,0.0,0.0,0.0,0.0,0.0,0.0,0.0,0.0,0.0,0.0,0.0,0.0,0.0,0.0,0.0,0.0,0.0,0.0,0.0,0.0,0.0,0.0,0.0,0.0,0.0,0.0,0.0,0.0,-2.5351,-2.7972,0.0,0.0,0.0,0.0,0.0,0.0,0.0,0.0,0.0,0.0,0.0,0.0,0.0,-3.7457,-3.7687,-3.7546,-3.7895,-3.875,-3.8808,-3.9203,-3.9923,-4.053,-4.0809,-4.0824,-4.1342,0.0,-4.1976,-4.2063,0.0,0.0,0.0,0.0,0.0,0.0,0.0,0.0,0.0,0.0,0.0,0.0,0.0,0.0,0.0,0.0,0.0,0.0,0.0,0.0,0.0,0.0,0.0,0.0,0.0,0.0,0.0,0.0,0.0,0.0,0.0,0.0,0.0,0.0,0.0,0.0,0.0,0.0,0.0,0.0,0.0,0.0,0.0,0.0,-4.2148,-4.1824,0.0,0.0,0.0,0.0,0.0,0.0,0.0,0.0,0.0,0.0,0.0,0.0,0.0,0.0,0.0,0.0,0.0,0.0,0.0,0.0,0.0,0.0,0.0,0.0,0.0,0.0,0.0,0.0,0.0,0.0,0.0,0.0,0.0,0.0,0.0,0.0,0.0,0.0,0.0,-2.462,-2.5936,-2.7992,-2.9291,-3.0725,0.0,0.0,0.0,0.0,0.0,0.0,0.0,0.0,0.0,-3.916,-3.905,-3.9107,-3.916,-3.928,-3.9417,-3.9694,-4.0169,-4.0444,-4.0538,-4.1093,-4.1231,-4.1176,-4.1435,-4.1647,-4.1662,-4.1549,-4.1437,-4.1269,0.0,0.0,0.0,0.0,-4.1619,-4.1702,0.0,0.0,0.0,0.0,0.0,0.0,0.0,0.0,0.0,0.0,0.0,0.0,0.0,0.0,0.0,0.0,0.0,0.0,0.0,0.0,0.0,0.0,0.0,0.0,0.0,0.0,0.0,0.0,0.0,0.0,0.0,0.0,0.0,0.0,0.0,0.0,0.0,-4.2634,-4.2634,0.0,0.0,0.0,0.0,0.0,0.0,0.0,0.0,0.0,0.0,0.0,0.0,0.0,0.0,0.0,0.0,0.0,0.0,0.0,0.0,0.0,0.0,0.0,0.0,0.0,0.0,0.0,0.0,0.0,0.0,0.0,0.0,0.0,0.0,0.0,0.0,0.0,0.0,-2.5894,-2.6843,-2.8199,-3.035,-3.21,0.0,0.0,0.0,0.0,0.0,0.0,-3.9361,-3.9984,-4.0332,-4.0178,-4.0332,-4.0509,-4.0678,-4.0919,-4.0985,-4.0995,-4.1741,-4.1774,-4.1218,-4.172,-4.1688,-4.1297,-4.1297,-4.1297,-4.1213,-4.1114,-4.1085,-4.1001,-4.0859,-4.0859,-4.093,-4.1213,-4.1465,-4.1619,0.0,0.0,0.0,0.0,0.0,0.0,0.0,0.0,0.0,0.0,0.0,0.0,0.0,0.0,0.0,0.0,0.0,0.0,0.0,0.0,0.0,0.0,0.0,0.0,0.0,0.0,0.0,0.0,0.0,0.0,0.0,0.0,0.0,0.0,0.0,0.0,0.0,0.0,-4.2634,-4.2634,0.0,0.0,0.0,0.0,0.0,0.0,0.0,0.0,0.0,0.0,0.0,0.0,0.0,0.0,0.0,0.0,0.0,0.0,0.0,0.0,0.0,0.0,0.0,0.0,0.0,0.0,0.0,0.0,0.0,0.0,0.0,0.0,0.0,0.0,0.0,0.0,0.0,0.0,0.0,-2.9327,-3.2106,0.0,0.0,0.0,0.0,-3.9015,-3.9233,-3.9591,-4.0278,-4.0347,-4.0416,-4.0416,-4.0416,-4.0724,-4.1456,-4.1487,-4.1878,-4.2788,-4.2985,-4.2844,-4.2348,-4.2452,-4.1947,-4.1001,-4.1001,-4.093,-4.0787,-4.1213,-4.1198,-4.1001,-4.1001,-4.0845,-4.0773,-4.0916,-4.1198,-4.1396,0.0,0.0,0.0,0.0,0.0,0.0,0.0,0.0,0.0,0.0,0.0,0.0,0.0,0.0,0.0,0.0,0.0,0.0,0.0,0.0,0.0,0.0,0.0,0.0,0.0,0.0,0.0,0.0,0.0,0.0,0.0,0.0,0.0,0.0,0.0,0.0,0.0,0.0,0.0,-4.2634,-4.2696,-4.2696,0.0,0.0,0.0,0.0,0.0,0.0,0.0,0.0,0.0,0.0,0.0,0.0,0.0,0.0,0.0,0.0,0.0,0.0,0.0,0.0,0.0,0.0,0.0,0.0,0.0,0.0,0.0,0.0,0.0,0.0,0.0,0.0,0.0,0.0,0.0,0.0,0.0,-3.2217,-3.407,0.0,-3.6263,-3.7147,-3.8043,-3.9098,-4.0163,-4.1028,-4.1753,-4.2271,-4.276,-4.3221,-4.3237,-4.3365,-4.3604,-4.386,-4.3827,-4.3673,-4.3941,-4.3436,-4.2392,-4.2237,-4.1811,-4.1001,-4.0845,-4.0773,-4.0702,-4.0873,-4.0859,-4.0773,-4.0773,-4.0845,-4.093,-4.1001,-4.1184,-4.1396,0.0,0.0,0.0,0.0,0.0,0.0,0.0,0.0,0.0,0.0,0.0,0.0,0.0,0.0,0.0,0.0,0.0,0.0,0.0,0.0,0.0,0.0,0.0,0.0,0.0,0.0,0.0,0.0,0.0,0.0,0.0,0.0,0.0,0.0,0.0,0.0,0.0,0.0,0.0,0.0,0.0,-4.2634,-4.2696,0.0,0.0,0.0,0.0,0.0,0.0,0.0,0.0,0.0,0.0,0.0,0.0,0.0,0.0,0.0,0.0,0.0,0.0,0.0,0.0,0.0,0.0,0.0,0.0,0.0,0.0,0.0,0.0,0.0,0.0,0.0,0.0,0.0,0.0,0.0,-3.3967,-3.411,-3.5834,-3.721,-3.7505,-3.8296,-3.9218,-4.0182,-4.1273,-4.2256,-4.3103,-4.3716,-4.422,-4.4573,-4.4721,-4.4901,-4.5127,-4.5395,-4.525,-4.4834,-4.5039,-4.4266,-4.2673,-4.2467,-4.1893,-4.0944,-4.0998,-4.0997,-4.1025,-4.125,-4.1334,-4.132,-4.1095,-4.121,-4.1566,-4.1566,-4.1525,-4.1582,0.0,0.0,0.0,0.0,0.0,0.0,0.0,0.0,0.0,0.0,0.0,0.0,0.0,0.0,0.0,0.0,0.0,0.0,0.0,0.0,0.0,0.0,0.0,0.0,0.0,0.0,0.0,0.0,0.0,0.0,0.0,0.0,0.0,0.0,0.0,0.0,0.0,0.0,0.0,0.0,0.0,0.0,-4.2899,0.0,0.0,0.0,0.0,0.0,0.0,0.0,0.0,0.0,0.0,0.0,0.0,0.0,0.0,0.0,0.0,0.0,0.0,0.0,0.0,0.0,0.0,0.0,0.0,0.0,0.0,0.0,0.0,0.0,0.0,0.0,0.0,0.0,-3.1784,-3.4025,-3.5717,-3.5128,-3.7578,-3.9361,-3.9212,-3.9969,-4.1115,-4.2552,-4.2683,-4.3135,-4.4205,-4.4605,-4.4687,-4.4285,-4.4637,-4.5176,-4.5824,-4.584,-4.5975,-4.6301,-4.6285,-4.5211,-4.3225,-4.3175,-4.2319,-4.0758,-4.1376,-4.1643,-4.1685,-4.2317,-4.2584,-4.2542,-4.1896,-4.2036,-4.2584,-4.2584,-4.2368,-4.1994,0.0,0.0,0.0,0.0,0.0,0.0,0.0,0.0,0.0,0.0,0.0,0.0,0.0,0.0,0.0,0.0,0.0,0.0,0.0,0.0,0.0,0.0,0.0,0.0,0.0,0.0,0.0,0.0,0.0,0.0,0.0,0.0,0.0,0.0,0.0,0.0,0.0,0.0,0.0,0.0,0.0,0.0,-4.2696,0.0,0.0,0.0,0.0,0.0,0.0,0.0,0.0,0.0,0.0,0.0,0.0,0.0,0.0,0.0,0.0,0.0,0.0,0.0,0.0,0.0,0.0,0.0,0.0,0.0,0.0,0.0,0.0,0.0,0.0,0.0,0.0,-3.4845,-3.5024,-3.6842,-3.8238,-3.847,-4.0061,-4.124,-4.1595,-4.2369,-4.3189,-4.4118,-4.42,-4.4506,-4.5349,-4.5449,-4.5691,-4.614,-4.6019,-4.5961,-4.6137,-4.6137,-4.5968,-4.5526,-4.5817,-4.4902,-4.3061,-4.3375,-4.2771,-4.1665,-4.2125,-4.2317,-4.2331,-4.25,-4.2851,-4.3174,-4.2556,-4.243,-4.2584,-4.2584,-4.2636,-4.2616,0.0,0.0,0.0,0.0,0.0,0.0,0.0,0.0,0.0,0.0,0.0,0.0,0.0,0.0,0.0,0.0,0.0,0.0,0.0,0.0,0.0,0.0,0.0,0.0,0.0,0.0,0.0,0.0,0.0,0.0,0.0,0.0,0.0,0.0,0.0,0.0,0.0,0.0,0.0,0.0,0.0,0.0,-4.2912,-4.3052,-4.3113,-4.3035,-4.271,-4.2126,-4.1393,-4.0737,0.0,0.0,0.0,0.0,0.0,0.0,0.0,0.0,0.0,0.0,0.0,0.0,0.0,0.0,0.0,0.0,0.0,0.0,0.0,0.0,0.0,0.0,0.0,0.0,-3.5535,-3.6812,-3.7926,-3.9179,-4.0141,-4.0738,-4.1953,-4.2874,-4.3448,-4.3898,-4.4468,-4.5192,-4.5208,-4.5449,-4.5991,-4.6176,-4.6318,-4.6458,-4.6372,-4.6285,-4.6285,-4.6159,-4.5961,-4.5672,-4.5587,-4.4788,-4.3477,-4.3568,-4.3041,0.0,-4.2787,-4.2964,-4.2992,-4.3245,-4.3554,0.0,0.0,0.0,0.0,0.0,-4.304,-4.3074,0.0,0.0,0.0,0.0,0.0,0.0,0.0,0.0,0.0,0.0,0.0,0.0,0.0,0.0,0.0,0.0,0.0,0.0,0.0,0.0,0.0,0.0,0.0,0.0,0.0,0.0,0.0,0.0,0.0,0.0,0.0,0.0,0.0,0.0,0.0,0.0,0.0,0.0,0.0,0.0,0.0,0.0,-4.3323,-4.3157,-4.3096,-4.3113,-4.2834,-4.219,-4.1393,-4.0805,0.0,0.0,0.0,0.0,0.0,0.0,0.0,0.0,0.0,0.0,0.0,0.0,0.0,0.0,0.0,0.0,0.0,0.0,0.0,0.0,0.0,0.0,0.0,0.0,-3.6982,-3.8808,-4.0159,-4.1131,-4.1805,-4.2231,-4.3348,-4.4353,-4.4901,-4.4982,-4.5273,-4.5888,-4.5921,-4.606,-4.6324,0.0,0.0,0.0,0.0,-4.6461,-4.6454,-4.6199,-4.6126,-4.6239,-4.5572,-4.4845,-4.4147,-4.3803,-4.3264,-4.2725,-4.3329,-4.3596,-4.3638,-4.4186,-4.4411,-4.4355,-4.3807,-4.3933,-4.4355,-4.3807,-4.3596,-4.3512,0.0,0.0,0.0,0.0,0.0,0.0,0.0,0.0,0.0,0.0,0.0,0.0,0.0,0.0,0.0,0.0,0.0,0.0,0.0,0.0,0.0,0.0,0.0,0.0,0.0,0.0,0.0,0.0,0.0,0.0,0.0,0.0,0.0,0.0,0.0,0.0,0.0,0.0,0.0,0.0,0.0,0.0,-4.3519,-4.3218,-4.3174,-4.3372,-4.3372,-4.2585,-4.1459,-4.1327,-3.9358,-3.6866,-3.6662,0.0,0.0,0.0,0.0,0.0,0.0,0.0,0.0,0.0,0.0,0.0,0.0,0.0,0.0,0.0,0.0,0.0,0.0,0.0,0.0,-3.6289,-3.7867,-3.9291,-4.0219,-4.2505,-4.3827,-4.316,-4.4641,-4.5731,-4.583,-4.6215,-4.6536,-4.6666,-4.6682,-4.673,-4.6791,-4.6892,0.0,-4.7555,-4.7341,-4.7308,-4.7494,-4.7435,-4.6872,-4.5761,0.0,0.0,-4.3661,-4.4064,-4.3934,-4.3357,-4.3961,-4.4242,-4.4242,-4.4355,-4.4411,-4.4397,-4.4284,-4.4312,-4.4397,-4.4284,-4.4242,-4.4214,0.0,0.0,0.0,0.0,0.0,0.0,0.0,0.0,0.0,0.0,0.0,0.0,0.0,0.0,0.0,0.0,0.0,0.0,0.0,0.0,0.0,0.0,0.0,0.0,0.0,0.0,0.0,0.0,0.0,0.0,0.0,0.0,0.0,0.0,0.0,0.0,0.0,0.0,0.0,0.0,0.0,0.0,-4.3989,-4.3578,-4.3416,-4.3432,-4.3568,-4.271,-4.1525,-4.1525,-3.9743,-3.7462,-3.7049,-3.5411,-3.3501,0.0,0.0,0.0,0.0,0.0,0.0,0.0,0.0,0.0,0.0,0.0,0.0,0.0,0.0,-3.1577,0.0,0.0,-3.635,-3.777,-3.9237,-4.0649,-4.1819,-4.3516,-4.4457,-4.3796,-4.5548,-4.6713,-4.6494,-4.6734,-4.6876,-4.6876,-4.6876,-4.6876,-4.6876,-4.7232,-4.7551,-4.7693,-4.783,-4.8019,-4.8147,-4.734,-4.6715,-4.6223,-4.5559,-4.489,-4.4004,-4.4291,-4.4316,-4.3975,-4.4284,-4.4411,-4.4411,-4.4411,-4.4411,-4.4411,-4.4411,-4.4411,-4.4411,-4.4411,-4.4411,-4.4411,0.0,0.0,0.0,0.0,0.0,0.0,0.0,0.0,0.0,0.0,0.0,0.0,0.0,0.0,0.0,0.0,0.0,0.0,0.0,0.0,0.0,0.0,0.0,0.0,0.0,0.0,0.0,0.0,0.0,0.0,0.0,0.0,0.0,0.0,0.0,0.0,0.0,0.0,0.0,0.0,0.0,0.0,-4.4614,-4.4145,-4.3756,-4.3432,-4.3568,-4.271,-4.1525,-4.1525,-3.9999,-3.8037,-3.7204,-3.6267,-3.5251,-3.3797,-3.2859,0.0,0.0,0.0,0.0,0.0,0.0,0.0,0.0,0.0,-3.0656,-3.1383,-3.215,-3.3144,-3.4726,-3.6687,-3.8337,-3.9122,-4.0554,-4.2047,-4.3284,-4.4278,-4.4788,-4.4645,-4.6314,-4.7335,-4.6961,-4.6945,-4.6876,-4.6876,-4.6876,-4.6941,-4.7103,-4.7686,-4.7981,-4.7951,-4.8512,-4.8733,-4.8545,-4.7339,-4.6686,-4.6509,-4.5331,-4.4651,-4.45,-4.445,-4.4411,-4.4411,-4.4411,-4.4411,-4.4411,-4.4411,-4.4411,-4.4411,-4.4411,-4.4411,-4.4411,-4.4411,-4.4411,-4.4411,0.0,0.0,0.0,0.0,0.0,0.0,0.0,0.0,0.0,0.0,0.0,0.0,0.0,0.0,0.0,0.0,0.0,0.0,0.0,0.0,0.0,0.0,0.0,0.0,0.0,0.0,0.0,0.0,0.0,0.0,0.0,0.0,0.0,0.0,0.0,0.0,0.0,0.0,0.0,0.0,0.0,0.0,-4.5266,-4.491,-4.4259,-4.3568,-4.3568,-4.271,-4.1525,-4.1525,-3.9999,-3.8037,-3.7204,-3.5922,-3.4555,-3.3628,0.0,-3.214,-3.1472,-3.0758,-3.0216,-3.0487,-3.0578,-3.0578,0.0,0.0,-3.1625,-3.2052,-3.3134,-3.4517,-3.6139,-3.7688,-3.8975,-3.9865,-4.1311,-4.256,-4.3346,-4.4684,-4.5802,-4.6244,-4.705,-4.7403,-4.7183,-4.703,-4.6876,-4.6876,-4.6876,-4.7184,-4.7848,-4.7977,-4.8576,-4.975,-4.9863,-4.9569,-4.8817,-4.8655,-4.7561,-4.5634,-4.545,-4.5038,-4.4406,-4.4383,-4.4411,-4.4411,-4.4411,-4.4411,-4.4411,-4.4411,-4.4411,-4.4411,-4.4411,-4.4411,-4.4411,-4.4411,-4.4411,-4.4411,0.0,0.0,0.0,0.0,0.0,0.0,0.0,0.0,0.0,0.0,0.0,0.0,0.0,0.0,0.0,0.0,0.0,0.0,0.0,0.0,0.0,0.0,0.0,0.0,0.0,0.0,0.0,0.0,0.0,0.0,0.0,0.0,0.0,0.0,0.0,0.0,0.0,0.0,0.0,0.0,0.0,0.0,-4.4889,-4.491,-4.4373,-4.3628,-4.3628,-4.2974,0.0,0.0,-4.0653,-3.9247,-3.7496,-3.6476,-3.5762,-3.4703,-3.3713,0.0,-3.1725,-3.0925,0.0,0.0,-3.0871,-3.0769,-3.0668,-3.1352,-3.2285,-3.2705,-3.3859,-3.537,-3.7566,-3.8725,-3.979,0.0,-4.2242,-4.3363,-4.4616,-4.529,-4.6056,-4.715,-4.7437,-4.7521,-4.7251,-4.703,-4.6876,-4.6876,-4.6876,-4.7216,-4.7977,-4.8382,-4.9062,-5.0066,-5.0021,-4.9725,-4.9262,-4.8095,-4.6914,-4.5793,-4.5216,-4.4676,-4.4411,-4.4411,-4.4411,-4.4411,-4.4411,-4.4411,-4.4411,-4.4411,-4.4411,-4.4411,-4.4411,-4.4411,-4.4411,-4.4411,-4.4411,-4.4411,0.0,0.0,0.0,0.0,0.0,0.0,0.0,0.0,0.0,0.0,0.0,0.0,0.0,0.0,0.0,0.0,0.0,0.0,0.0,0.0,0.0,0.0,0.0,0.0,0.0,0.0,0.0,0.0,0.0,0.0,0.0,0.0,0.0,0.0,0.0,0.0,0.0,0.0,0.0,0.0,0.0,0.0,-4.478,-4.4964,-4.4541,-4.3848,-4.3671,-4.3174,0.0,0.0,-4.106,-4.0115,-3.8011,-3.7204,-3.6908,-3.5843,-3.4716,-3.353,-3.2401,0.0,0.0,-3.105,-3.1425,-3.161,-3.1329,-3.2442,-3.3551,-3.3729,-3.4716,-3.6332,-3.8602,-3.9521,-4.0513,-4.2376,-4.3015,-4.3771,-4.5184,-4.5551,-4.6127,-4.7337,-4.7638,-4.7571,-4.737,-4.7098,-4.6961,-4.6876,-4.6876,-4.7297,-4.8236,-4.8754,-4.9289,-5.0043,-4.9928,-4.9519,-4.8661,-4.7317,-4.6314,-4.5689,-4.4926,-4.4597,-4.4504,-4.4411,-4.4411,-4.4411,-4.4411,-4.4411,-4.4411,-4.4411,-4.4411,-4.4411,-4.4411,-4.4411,-4.4411,-4.4411,-4.4411,-4.4411,0.0,0.0,0.0,0.0,0.0,0.0,0.0,0.0,0.0,0.0,0.0,0.0,0.0,0.0,0.0,0.0,0.0,0.0,0.0,0.0,0.0,0.0,0.0,0.0,0.0,0.0,0.0,0.0,0.0,0.0,0.0,0.0,0.0,0.0,0.0,0.0,0.0,0.0,0.0,0.0,0.0,0.0,-4.5389,-4.532,-4.4947,-4.439,-4.3789,0.0,0.0,0.0,-4.106,-4.0255,-3.8782,-3.7979,0.0,-3.678,-3.5642,0.0,0.0,0.0,-3.2052,-3.1472,-3.2467,-3.3368,-3.2971,-3.4528,-3.5895,-3.52,-3.6032,-3.748,-3.9326,-4.0154,-4.1169,-4.2966,-4.3329,-4.363,-4.445,-4.5184,-4.5969,-4.6742,-4.7337,-4.7704,0.0,-4.7386,-4.7098,-4.6876,-4.6876,-4.7508,-4.8916,-4.9013,-4.9277,-4.9884,-4.9931,-4.8856,-4.6564,-4.6725,-4.6137,-4.4876,-4.5046,-4.4954,-4.4797,-4.4504,-4.4411,-4.4411,-4.4411,-4.4411,-4.4411,-4.4411,-4.4411,-4.4411,-4.4411,-4.4411,-4.4411,-4.4411,-4.4411,-4.4411,0.0,0.0,0.0,0.0,0.0,0.0,0.0,0.0,0.0,0.0,0.0,0.0,0.0,0.0,0.0,0.0,0.0,0.0,0.0,0.0,0.0,0.0,0.0,0.0,0.0,0.0,0.0,0.0,0.0,0.0,0.0,0.0,0.0,0.0,0.0,0.0,0.0,0.0,0.0,0.0,0.0,0.0,-4.5632,-4.5372,-4.4964,-4.4446,0.0,0.0,0.0,0.0,-4.1327,-4.0842,-3.8986,0.0,0.0,-3.6336,-3.5575,-3.4897,0.0,0.0,-3.2388,-3.2195,-3.2682,-3.3325,-3.3448,-3.4929,-3.6148,-3.5787,-3.6716,-3.8193,-3.9953,-4.0449,-4.1197,-4.2996,-4.3329,-4.3551,-4.4373,-4.5184,-4.5969,-4.6673,-4.7471,0.0,0.0,0.0,0.0,-4.7098,-4.7431,-4.8042,-4.8981,-4.892,-4.9213,-4.9852,-4.8708,-4.7689,-4.674,-4.6151,-4.5566,-4.4797,-4.469,-4.4597,-4.4504,-4.4411,-4.4411,-4.4411,-4.4411,-4.4411,-4.4411,-4.4411,-4.4411,-4.4411,-4.4411,-4.4411,-4.4411,-4.4411,-4.4411,-4.4411,0.0,0.0,0.0,0.0,0.0,0.0,0.0,0.0,0.0,0.0,0.0,0.0,0.0,0.0,0.0,0.0,0.0,0.0,0.0,0.0,0.0,0.0,0.0,0.0,0.0,0.0,0.0,0.0,0.0,0.0,0.0,0.0,0.0,0.0,0.0,0.0,0.0,0.0,0.0,0.0,0.0,0.0,-4.5786,-4.5649,-4.5161,0.0,0.0,0.0,0.0,0.0,0.0,-4.1311,-3.952,-3.8531,-3.7796,-3.6794,-3.6229,-3.5642,-3.4262,-3.3972,-3.3776,-3.2987,-3.3881,-3.4946,-3.4719,-3.5981,-3.7151,-3.6522,-3.7118,-3.8359,-3.9939,-4.0449,-4.1197,-4.2996,-4.3329,-4.3472,-4.4004,-4.4737,-4.5536,-4.6324,-4.7118,-4.7488,0.0,0.0,0.0,-4.7541,-4.7561,-4.7951,-4.8881,-4.8573,-4.8495,-4.8938,-4.7789,-4.6929,-4.6314,-4.5837,-4.5518,-4.5167,-4.4769,-4.4676,-4.4676,-4.4504,-4.4537,-4.4734,-4.4734,-4.4874,-4.5085,-4.5085,-4.4945,-4.4734,-4.4734,-4.4607,-4.4411,-4.4411,-4.4411,-4.4411,0.0,0.0,0.0,0.0,0.0,0.0,0.0,0.0,0.0,0.0,0.0,0.0,0.0,0.0,0.0,0.0,0.0,0.0,0.0,0.0,0.0,0.0,0.0,0.0,0.0,0.0,0.0,0.0,0.0,0.0,0.0,0.0,0.0,0.0,0.0,0.0,0.0,0.0,0.0,0.0,0.0,0.0,-4.5887,-4.6137,0.0,0.0,0.0,0.0,0.0,0.0,0.0,0.0,0.0,-3.9466,-3.8708,-3.8113,-3.7505,-3.6652,-3.4924,-3.5515,-3.6052,-3.3897,-3.5921,-3.798,-3.6741,-3.7811,-3.871,-3.7395,-3.7421,-3.8189,0.0,0.0,-4.1281,-4.3076,-4.3329,-4.3329,-4.3329,-4.4004,-4.4812,0.0,0.0,0.0,0.0,0.0,0.0,-4.815,0.0,-4.73,-4.8669,-4.7976,-4.7387,-4.7174,-4.7118,-4.6609,-4.5504,-4.579,-4.588,-4.588,-4.535,-4.5167,-4.5167,-4.4668,-4.4818,-4.538,-4.538,-4.5717,-4.6293,-4.6293,-4.5928,-4.538,-4.538,-4.5029,-4.4509,-4.4467,-4.4467,-4.4453,0.0,0.0,0.0,0.0,0.0,0.0,0.0,0.0,0.0,0.0,0.0,0.0,0.0,0.0,0.0,0.0,0.0,0.0,0.0,0.0,0.0,0.0,0.0,0.0,0.0,0.0,0.0,0.0,0.0,0.0,0.0,0.0,0.0,0.0,0.0,0.0,0.0,0.0,0.0,0.0,0.0,0.0,-4.6637,0.0,0.0,0.0,0.0,0.0,0.0,0.0,0.0,0.0,0.0,-3.9235,-3.8708,-3.8113,-3.7505,-3.6842,-3.6198,-3.6264,-3.6505,-3.6165,-3.6964,-3.7926,-3.7934,-3.8336,-3.872,-3.872,-3.8555,-3.8959,0.0,0.0,0.0,-4.3566,-4.3675,0.0,-4.3596,-4.4097,0.0,-4.4812,0.0,-4.6191,-4.67,-4.6687,0.0,0.0,-4.7809,-4.7572,-4.7849,-4.7509,-4.7282,-4.7189,-4.6535,-4.6135,-4.579,-4.57,-4.5595,-4.5609,-4.5809,-4.5852,-4.5867,-4.6054,-4.6161,-4.6302,-4.6137,-4.6139,-4.6293,-4.6293,-4.6195,-4.6055,-4.6055,-4.5956,-4.5759,-4.5268,-4.5099,-4.5029,0.0,0.0,0.0,0.0,0.0,0.0,0.0,0.0,0.0,0.0,0.0,0.0,0.0,0.0,0.0,0.0,0.0,0.0,0.0,0.0,0.0,0.0,0.0,0.0,0.0,0.0,0.0,0.0,0.0,0.0,0.0,0.0,0.0,0.0,0.0,0.0,0.0,0.0,0.0,0.0,0.0,0.0,0.0,0.0,0.0,0.0,0.0,0.0,0.0,0.0,0.0,-4.1008,-4.0146,-3.9364,-3.8708,-3.8412,0.0,-3.7298,-3.6716,-3.7277,-3.7852,-3.7457,-3.8182,-3.9019,-3.8917,-3.8986,-3.9087,-3.8898,-3.881,0.0,0.0,0.0,0.0,0.0,0.0,0.0,-4.369,-4.3879,-4.4173,0.0,-4.5337,0.0,-4.6514,-4.6796,-4.698,0.0,-4.7313,-4.7354,-4.7577,-4.6924,-4.6624,-4.6624,-4.6135,-4.6026,-4.6301,-4.6104,-4.6249,-4.6524,-4.6605,-4.6684,-4.6698,-4.6771,-4.6988,-4.7244,0.0,-4.7024,-4.7278,-4.7094,-4.694,-4.6687,-4.6687,-4.6532,-4.6251,-4.5886,-4.5745,-4.5757,0.0,0.0,0.0,0.0,0.0,0.0,0.0,0.0,0.0,0.0,0.0,0.0,0.0,0.0,0.0,0.0,0.0,0.0,0.0,0.0,0.0,0.0,0.0,0.0,0.0,0.0,0.0,0.0,0.0,0.0,0.0,0.0,0.0,0.0,0.0,0.0,0.0,0.0,0.0,0.0,0.0,0.0,0.0,0.0,0.0,0.0,0.0,0.0,0.0,0.0,-4.1769,-4.1276,-4.0715,-3.9809,-3.8929,-3.8855,-3.8409,-3.7826,-3.7071,-3.8367,-3.9536,-3.835,-3.9394,-4.053,-3.9645,-3.9681,-3.9634,-3.8837,0.0,-3.9648,-4.0953,0.0,-4.2304,-4.3922,0.0,-4.3769,-4.3769,-4.3578,-4.3976,-4.5231,-4.5462,-4.5769,-4.6379,-4.6992,-4.6993,-4.62,-4.6411,-4.6806,-4.7377,-4.6476,-4.5924,-4.6011,-4.6011,-4.6316,-4.6954,-4.6954,-4.723,-4.7782,-4.7666,-4.76,-4.7615,-4.743,-4.7677,-4.8193,-4.7885,0.0,-4.8495,-4.8308,-4.7911,-4.7433,-4.7433,-4.7109,-4.663,-4.6546,-4.6503,-4.6419,0.0,0.0,0.0,0.0,0.0,0.0,0.0,0.0,0.0,0.0,0.0,0.0,0.0,0.0,0.0,0.0,0.0,0.0,0.0,0.0,0.0,0.0,0.0,0.0,0.0,0.0,0.0,0.0,0.0,0.0,0.0,0.0,0.0,0.0,0.0,0.0,0.0,0.0,0.0,0.0,0.0,0.0,0.0,0.0,0.0,0.0,0.0,0.0,0.0,0.0,-4.2045,-4.1769,-4.0783,-4.0036,-3.9466,-3.8943,-3.8713,-3.8625,-3.8538,-3.9144,-3.9901,-4.0136,-4.0432,-4.0702,-4.053,-4.0187,0.0,0.0,0.0,-4.0502,-4.2792,-4.2761,0.0,-4.5,0.0,0.0,0.0,0.0,-4.4409,0.0,0.0,0.0,0.0,0.0,0.0,0.0,0.0,-4.655,-4.6462,-4.6135,-4.6127,-4.665,-4.6664,-4.6969,-4.7608,-4.7622,-4.7666,-4.7796,-4.8209,-4.8456,-4.8485,-4.8729,-4.8948,-4.9049,-4.8738,0.0,-4.8795,-4.8795,-4.8738,-4.8653,-4.8653,-4.8581,-4.8425,-4.7897,-4.7516,-4.7319,0.0,0.0,0.0,0.0,0.0,0.0,0.0,0.0,0.0,0.0,0.0,0.0,0.0,0.0,0.0,0.0,0.0,0.0,0.0,0.0,0.0,0.0,0.0,0.0,0.0,0.0,0.0,0.0,0.0,0.0,0.0,0.0,0.0,0.0,0.0,0.0,0.0,0.0,0.0,0.0,0.0,0.0,0.0,0.0,0.0,0.0,0.0,0.0,0.0,0.0,-4.2222,-4.1754,-4.0783,-4.0106,-3.961,-3.9379,-3.9249,-3.9305,-3.9301,-3.977,-4.0336,-4.0631,-4.0702,-4.0702,-4.0702,0.0,0.0,0.0,0.0,-4.1853,-4.3436,0.0,0.0,0.0,0.0,0.0,0.0,0.0,0.0,0.0,0.0,0.0,0.0,0.0,0.0,0.0,0.0,-4.7022,-4.6417,-4.6366,-4.6664,-4.7303,-4.7332,-4.7637,-4.8261,-4.8275,-4.8435,-4.8769,-4.9074,-4.9219,-4.9233,-4.9455,-4.9488,-4.9488,-4.9207,0.0,-4.9108,-4.9009,-4.8895,-4.8895,-4.8895,-4.8895,-4.8852,-4.8566,-4.8353,-4.8254,0.0,0.0,0.0,0.0,0.0,0.0,0.0,0.0,0.0,0.0,0.0,0.0,0.0,0.0,0.0,0.0,0.0,0.0,0.0,0.0,0.0,0.0,0.0,0.0,0.0,0.0,0.0,0.0,0.0,0.0,0.0,0.0,0.0,0.0,0.0,0.0,0.0,0.0,0.0,0.0,0.0,0.0,0.0,0.0,0.0,0.0,0.0,0.0,0.0,0.0,-4.2459,-4.1722,-4.0904,-4.0301,-3.9824,-3.9681,-3.9668,-3.9664,-3.9729,-4.0199,-4.0774,-4.0916,-4.1029,-4.11,-4.11,-4.1128,0.0,0.0,-4.2053,-4.3139,-4.3961,0.0,0.0,0.0,0.0,0.0,0.0,0.0,0.0,0.0,0.0,0.0,0.0,0.0,0.0,0.0,0.0,0.0,-4.6947,-4.6949,-4.7317,-4.797,-4.7985,-4.829,-4.8928,-4.8928,-4.9175,-4.9669,-4.9669,-4.9669,-4.9669,-4.9669,-4.9669,-4.9669,-4.9502,0.0,0.0,-4.9192,-4.9093,-4.9093,-4.9093,-4.9093,-4.9093,-4.9093,-4.8994,-4.8937,0.0,0.0,0.0,0.0,0.0,0.0,0.0,0.0,0.0,0.0,0.0,0.0,0.0,0.0,0.0,0.0,0.0,0.0,0.0,0.0,0.0,0.0,0.0,0.0,0.0,0.0,0.0,0.0,0.0,0.0,0.0,0.0,0.0,0.0,0.0,0.0,0.0,0.0,0.0,0.0,0.0,0.0,0.0,0.0,0.0,0.0,0.0,0.0,0.0,0.0,0.0,-4.1869,-4.1393,-4.0768,-4.0121,-3.9595,0.0,0.0,-3.9679,-4.021,-4.09,-4.1461,-4.2005,-4.24,-4.24,0.0,0.0,-4.2467,-4.3056,-4.3921,-4.5211,-4.4982,0.0,0.0,0.0,0.0,0.0,0.0,0.0,0.0,0.0,0.0,0.0,0.0,0.0,0.0,0.0,0.0,-4.8087,-4.7852,-4.7985,-4.8624,-4.8638,-4.8943,-4.9582,-4.9596,-4.9611,-4.9669,-4.9669,-4.9669,-4.9669,-4.9669,-4.9669,-4.9669,-4.9669,0.0,0.0,-4.9683,-4.9683,-4.9683,-4.9683,-4.9683,-4.9683,-4.9683,-4.9488,-4.9291,0.0,0.0,0.0,0.0,0.0,0.0,0.0,0.0,0.0,0.0,0.0,0.0,0.0,0.0,0.0,0.0,0.0,0.0,0.0,0.0,0.0,0.0,0.0,0.0,0.0,0.0,0.0,0.0,0.0,0.0,0.0,0.0,0.0,0.0,0.0,0.0,0.0,0.0,0.0,0.0,0.0,0.0,0.0,0.0,0.0,0.0,0.0,0.0,0.0,0.0,0.0,0.0,-4.1111,-4.0562,0.0,0.0,-4.0061,-4.0353,-4.0766,-4.1028,-4.1449,-4.2076,-4.279,-4.3248,-4.3248,0.0,0.0,-4.3799,-4.4396,-4.5096,-4.6047,-4.5995,-4.6012,0.0,0.0,0.0,0.0,0.0,0.0,0.0,0.0,0.0,0.0,0.0,0.0,0.0,0.0,0.0,-4.9754,-4.901,-4.8814,-4.9277,-4.9291,-4.9422,-4.9669,-4.9669,-4.9669,-4.9669,-5.009,-5.0278,-5.0278,-5.067,-5.0641,-5.0278,-5.0278,0.0,0.0,-4.9669,-4.9669,-4.9669,-4.9669,-4.9669,-4.9669,-4.9669,-4.9683,-4.9585,0.0,0.0,0.0,0.0,0.0,0.0,0.0,0.0,0.0,0.0,0.0,0.0,0.0,0.0,0.0,0.0,0.0,0.0,0.0,0.0,0.0,0.0,0.0,0.0,0.0,0.0,0.0,0.0,0.0,0.0,0.0,0.0,0.0,0.0,0.0,0.0,0.0,0.0,0.0,0.0,0.0,0.0,0.0,0.0,0.0,0.0,0.0,0.0,0.0,0.0,0.0,0.0,0.0,0.0,0.0,0.0,-4.0451,-4.0783,-4.1641,-4.2025,-4.2396,-4.3322,-4.4065,-4.4601,0.0,0.0,0.0,-4.5154,-4.5758,-4.6375,-4.6885,-4.6768,-4.6665,0.0,0.0,-4.5587,0.0,0.0,0.0,0.0,0.0,0.0,0.0,0.0,0.0,0.0,0.0,0.0,0.0,-5.0176,-4.9779,-4.9863,-4.997,-4.9973,-4.9973,-5.0148,-5.0249,-5.0264,-5.0728,-5.096,-5.0975,-5.1425,-5.1381,-5.0946,-5.0757,0.0,0.0,-4.9756,-4.9669,-4.9669,-4.9669,-4.9669,-4.9669,-4.9669,-4.9669,-4.9669,0.0,0.0,0.0,0.0,0.0,0.0,0.0,0.0,0.0,0.0,0.0,0.0,0.0,0.0,0.0,0.0,0.0,0.0,0.0,0.0,0.0,0.0,0.0,0.0,0.0,0.0,0.0,0.0,0.0,0.0,0.0,0.0,0.0,0.0,0.0,0.0,0.0,0.0,0.0,0.0,0.0,0.0,0.0,0.0,0.0,0.0,0.0,0.0,0.0,0.0,0.0,0.0,0.0,0.0,0.0,0.0,-4.0522,-4.0962,-4.2273,-4.3117,-4.401,-4.5212,-4.6062,-4.6588,0.0,0.0,0.0,-4.6584,-4.7111,-4.7563,-4.7563,-4.7088,-4.6819,-4.7481,-4.6465,0.0,0.0,0.0,0.0,0.0,0.0,0.0,0.0,0.0,0.0,0.0,0.0,0.0,0.0,-5.1143,-5.1008,-5.0101,-5.0519,-5.067,-5.067,-5.128,-5.1599,-5.1599,-5.1614,-5.1614,-5.1614,-5.1614,-5.1614,0.0,0.0,0.0,0.0,-4.9944,-4.9669,-4.9669,-4.9669,-4.9669,-4.9669,-4.9669,-4.9669,-4.9669,0.0,0.0,0.0,0.0,0.0,0.0,0.0,0.0,0.0,0.0,0.0,0.0,0.0,0.0,0.0,0.0,0.0,0.0,0.0,0.0,0.0,0.0,0.0,0.0,0.0,0.0,0.0,0.0,0.0,0.0,0.0,0.0,0.0,0.0,0.0,0.0,0.0,0.0,0.0,0.0,0.0,0.0,0.0,0.0,0.0,0.0,0.0,0.0,0.0,0.0,0.0,0.0,0.0,0.0,0.0,0.0,0.0,0.0,-4.3594,-4.4434,-4.5246,-4.6039,-4.6766,-4.7281,-4.7281,0.0,0.0,-4.7867,-4.7418,-4.7084,-4.75,-4.7027,-4.6665,-4.688,-4.6942,-4.6969,0.0,0.0,0.0,0.0,0.0,0.0,0.0,0.0,0.0,0.0,0.0,0.0,0.0,-5.2367,-5.1896,-5.0759,-5.1075,-5.1323,-5.1323,-5.1512,-5.1614,-5.1628,-5.2064,-5.2267,-5.2281,-5.2717,-5.2673,0.0,0.0,0.0,0.0,-5.1091,-5.1004,-5.096,-5.0525,-5.0365,-5.0307,-4.9843,-4.9669,-4.9741,0.0,0.0,0.0,0.0,0.0,0.0,0.0,0.0,0.0,0.0,0.0,0.0,0.0,0.0,0.0,0.0,0.0,0.0,0.0,0.0,0.0,0.0,0.0,0.0,0.0,0.0,0.0,0.0,0.0,0.0,0.0,0.0,0.0,0.0,0.0,0.0,0.0,0.0,0.0,0.0,0.0,0.0,-4.6057,0.0,0.0,0.0,0.0,0.0,0.0,0.0,0.0,0.0,0.0,0.0,0.0,0.0,-4.3525,0.0,0.0,-4.5634,-4.6511,-4.7188,-4.7665,0.0,0.0,0.0,0.0,0.0,-4.7553,-4.7098,-4.7522,-4.7265,-4.7065,-4.7311,-4.7496,0.0,0.0,0.0,0.0,0.0,0.0,0.0,0.0,0.0,0.0,0.0,0.0,0.0,0.0,-5.3232,-5.2877,-5.2067,-5.2077,-5.2195,-5.2282,-5.2413,-5.253,-5.2632,-5.3026,-5.3216,-5.3231,-5.3625,-5.3492,0.0,0.0,0.0,0.0,-5.1715,-5.1614,-5.1585,-5.1193,-5.1033,-5.0975,-5.0569,-5.0264,-5.0148,0.0,0.0,0.0,0.0,0.0,0.0,0.0,0.0,0.0,0.0,0.0,0.0,0.0,0.0,0.0,0.0,0.0,0.0,0.0,0.0,0.0,0.0,0.0,0.0,0.0,0.0,0.0,0.0,-5.169,-5.169,-5.169,0.0,0.0,0.0,0.0,0.0,0.0,0.0,0.0,0.0,0.0,0.0,0.0,0.0,0.0,0.0,0.0,0.0,0.0,0.0,0.0,0.0,0.0,0.0,0.0,0.0,0.0,0.0,0.0,0.0,0.0,0.0,0.0,0.0,0.0,0.0,0.0,0.0,0.0,0.0,-4.7604,-4.7604,-4.7804,-4.8435,-4.8065,0.0,0.0,0.0,0.0,0.0,0.0,0.0,0.0,0.0,0.0,0.0,0.0,0.0,0.0,-5.3709,-5.3952,-5.3952,-5.3362,-5.3275,-5.3449,-5.3715,-5.3993,-5.4304,-5.4304,-5.4304,-5.4304,-5.4304,-5.42,0.0,0.0,0.0,0.0,-5.1991,-5.1759,-5.1744,-5.1701,-5.1686,-5.1686,-5.1628,-5.1251,-5.083,0.0,0.0,0.0,0.0,0.0,0.0,0.0,0.0,0.0,0.0,0.0,0.0,0.0,0.0,0.0,0.0,0.0,0.0,0.0,0.0,0.0,0.0,0.0,0.0,0.0,0.0,0.0,-5.169,-5.169,-5.169,-5.169,-5.169,0.0,0.0,0.0,0.0,0.0,0.0,0.0,0.0,0.0,0.0,0.0,0.0,0.0,0.0,-4.6334,-4.6531,0.0,0.0,0.0,0.0,0.0,0.0,0.0,0.0,-4.5834,-4.648,-4.6988,0.0,-4.8419,-4.8573,-4.8219,0.0,0.0,0.0,0.0,0.0,0.0,0.0,0.0,0.0,0.0,0.0,0.0,0.0,0.0,0.0,0.0,0.0,0.0,0.0,0.0,0.0,0.0,0.0,0.0,0.0,0.0,-5.4865,-5.4854,-5.4854,-5.4565,-5.4229,-5.4082,-5.4127,-5.42,-5.4304,-5.4304,-5.4304,-5.4304,-5.4304,-5.4304,0.0,0.0,0.0,-5.3862,-5.3524,-5.3362,-5.3318,-5.2631,-5.2339,-5.2281,-5.1802,-5.1527,-5.1483,0.0,0.0,0.0,0.0,0.0,0.0,0.0,0.0,0.0,0.0,0.0,0.0,0.0,0.0,0.0,0.0,0.0,0.0,0.0,0.0,0.0,0.0,0.0,0.0,0.0,0.0,0.0,0.0,0.0,-5.169,0.0,0.0,0.0,0.0,0.0,0.0,0.0,0.0,0.0,0.0,-4.9177,0.0,0.0,0.0,0.0,0.0,-4.748,-4.7619,0.0,-4.6371,-4.6106,-4.6088,0.0,0.0,0.0,0.0,-4.6773,-4.7204,-4.7881,-4.8327,-4.862,-4.862,-4.8343,-4.8158,0.0,0.0,0.0,0.0,0.0,0.0,0.0,0.0,0.0,0.0,0.0,0.0,0.0,0.0,0.0,0.0,0.0,0.0,0.0,0.0,0.0,0.0,0.0,0.0,0.0,-5.5194,-5.5194,-5.5194,-5.5093,-5.4875,-5.4743,-5.4539,-5.4539,-5.4743,-5.4743,-5.4743,-5.4743,-5.4743,-5.4641,0.0,0.0,0.0,-5.4304,-5.4097,-5.4097,-5.4068,-5.3524,-5.3392,-5.3348,-5.2807,-5.2501,-5.2355,0.0,0.0,0.0,0.0,0.0,0.0,0.0,0.0,0.0,0.0,0.0,0.0,0.0,0.0,0.0,0.0,0.0,0.0,0.0,0.0,0.0,0.0,0.0,0.0,0.0,0.0,0.0,0.0,0.0,0.0,0.0,0.0,0.0,0.0,0.0,0.0,0.0,0.0,0.0,0.0,-4.9368,0.0,0.0,0.0,0.0,0.0,0.0,0.0,0.0,-4.8396,-4.775,-4.7093,-4.6913,0.0,0.0,0.0,0.0,0.0,-4.8435,-4.862,-4.862,-4.862,-4.8543,-4.8481,0.0,0.0,0.0,0.0,0.0,0.0,0.0,0.0,0.0,0.0,0.0,0.0,0.0,0.0,0.0,0.0,0.0,0.0,0.0,0.0,0.0,0.0,0.0,0.0,0.0,-5.5194,-5.5194,-5.5194,-5.5194,-5.5194,-5.5194,-5.4991,-5.4991,-5.5194,-5.5194,-5.5194,-5.5194,-5.5194,-5.5093,-5.489,0.0,0.0,-5.4406,-5.4406,-5.4421,-5.4406,-5.4304,-5.4304,-5.4304,-5.3993,-5.3686,-5.3217,0.0,0.0,0.0,0.0,0.0,0.0,0.0,0.0,0.0,0.0,0.0,0.0,0.0,0.0,0.0,0.0,0.0,0.0,0.0,0.0,0.0,0.0,0.0,0.0,0.0,0.0,0.0,0.0,0.0,0.0,-5.169,-5.169,-5.169,0.0,0.0,0.0,0.0,-5.0857,-5.0198,-4.9188,-4.9161,0.0,0.0,0.0,0.0,0.0,0.0,0.0,0.0,-4.9793,-4.9227,-4.8465,-4.7845,0.0,0.0,0.0,0.0,0.0,-4.8435,-4.862,-4.862,-4.862,-4.8189,-4.7912,0.0,0.0,0.0,0.0,0.0,0.0,0.0,0.0,0.0,0.0,0.0,0.0,0.0,0.0,0.0,0.0,0.0,0.0,0.0,0.0,0.0,0.0,0.0,0.0,0.0,-5.5194,-5.5194,-5.5194,-5.5194,-5.5194,-5.5194,-5.5194,-5.5194,-5.5194,-5.5194,-5.5194,-5.5194,-5.5194,-5.5194,-5.5093,0.0,-5.5093,-5.5078,-5.4773,-5.4686,-5.4671,-5.4421,-5.4304,-5.4304,-5.4304,-5.4142,-5.4083,0.0,0.0,0.0,0.0,0.0,0.0,0.0,0.0,0.0,0.0,0.0,0.0,0.0,0.0,0.0,0.0,0.0,0.0,0.0,0.0,0.0,0.0,0.0,0.0,0.0,0.0,0.0,0.0,0.0,-5.169,-5.169,-5.169,-5.169,-5.169,0.0,0.0,0.0,-5.0422,-4.9797,-4.904,0.0,0.0,0.0,0.0,0.0,0.0,0.0,0.0,0.0,0.0,-4.9555,-4.882,-4.8481,0.0,0.0,0.0,0.0,0.0,-4.8527,-4.862,-4.862,-4.862,-4.8373,-4.8235,-4.8543,0.0,0.0,0.0,0.0,0.0,0.0,0.0,0.0,0.0,0.0,0.0,0.0,0.0,0.0,0.0,0.0,0.0,0.0,0.0,0.0,0.0,0.0,0.0,0.0,0.0,-5.5194,-5.5194,-5.5194,-5.5194,-5.5194,-5.5194,-5.5194,-5.5194,-5.5194,-5.5194,-5.5194,-5.5194,-5.5194,-5.5194,0.0,-5.5194,-5.5194,-5.5093,-5.4991,-5.4991,-5.486,-5.4743,-5.4758,-5.4656,-5.4436,-5.4304,0.0,0.0,0.0,0.0,0.0,0.0,0.0,0.0,0.0,0.0,0.0,0.0,0.0,0.0,0.0,0.0,0.0,0.0,0.0,0.0,0.0,0.0,0.0,0.0,0.0,0.0,0.0,-5.3153,-5.2529,-5.2243,-5.2225,-5.2047,-5.2014,0.0,0.0,0.0,0.0,-5.0373,-4.9898,-4.952,0.0,0.0,0.0,0.0,0.0,0.0,0.0,0.0,0.0,0.0,0.0,0.0,0.0,0.0,0.0,-4.8466,-4.862,-4.862,-4.862,-4.862,-4.862,-4.862,0.0,-4.862,-4.862,0.0,0.0,0.0,0.0,0.0,0.0,0.0,0.0,0.0,0.0,0.0,0.0,0.0,0.0,0.0,0.0,0.0,0.0,0.0,0.0,0.0,0.0,0.0,0.0,0.0,-5.5194,-5.5194,-5.5194,-5.5194,-5.5194,-5.5194,-5.5194,-5.5194,-5.5194,-5.5194,-5.5194,-5.5194,-5.5194,-5.5194,-5.5194,-5.5194,-5.5194,-5.5194,-5.5194,-5.5194,-5.5194,-5.5194,-5.5194,-5.4991,-5.4758,-5.4524,0.0,0.0,0.0,0.0,0.0,0.0,0.0,0.0,0.0,0.0,0.0,0.0,0.0,0.0,0.0,0.0,0.0,0.0,0.0,0.0,0.0,0.0,0.0,0.0,0.0,-5.3974,-5.3938,-5.3938,-5.3885,-5.3849,-5.3831,-5.3118,-5.2874,-5.2874,0.0,0.0,0.0,-5.1315,-5.0997,-5.0525,-5.0018,0.0,0.0,0.0,0.0,0.0,0.0,0.0,0.0,0.0,0.0,0.0,0.0,0.0,-4.8558,-4.8604,-4.862,-4.862,-4.862,-4.862,-4.862,-4.862,0.0,0.0,-4.862,-4.862,0.0,0.0,0.0,0.0,0.0,0.0,0.0,0.0,0.0,0.0,0.0,0.0,0.0,0.0,0.0,0.0,0.0,0.0,0.0,0.0,0.0,0.0,0.0,0.0,0.0,-5.5194,-5.5194,-5.5194,-5.5194,-5.5194,-5.5194,-5.5194,-5.5194,-5.5194,-5.5194,-5.5194,-5.5194,-5.5194,-5.5194,-5.5194,-5.5194,-5.5194,-5.5194,-5.5194,-5.5194,-5.5194,-5.5194,-5.5194,-5.5194,-5.5078,0.0,0.0,0.0,0.0,0.0,0.0,0.0,0.0,0.0,0.0,0.0,0.0,0.0,0.0,0.0,0.0,0.0,0.0,0.0,0.0,0.0,0.0,0.0,-5.3519,-5.3417,-5.3365,-5.3546,-5.4028,-5.4028,-5.4028,-5.401,-5.3846,0.0,0.0,0.0,0.0,0.0,-5.0322,-4.9921,-4.9513,-4.9308,-4.9523,0.0,0.0,0.0,0.0,0.0,0.0,0.0,0.0,-5.2433,0.0,0.0,0.0,-4.862,-4.862,-4.862,-4.862,-4.862,-4.862,-4.862,-4.862,0.0,0.0,0.0,0.0,0.0,0.0,0.0,0.0,0.0,0.0,0.0,0.0,0.0,0.0,0.0,0.0,0.0,0.0,0.0,0.0,0.0,0.0,0.0,0.0,0.0,0.0,0.0,0.0,0.0,-5.5194,-5.5194,-5.5194,-5.5194,-5.5194,-5.5194,-5.5194,-5.5194,-5.5194,-5.5194,-5.5194,-5.5194,-5.5194,-5.5194,-5.5194,-5.5194,-5.5194,-5.5194,-5.5194,-5.5194,-5.5194,-5.5194,-5.5194,-5.5194,-5.5194,0.0,0.0,0.0,0.0,0.0,0.0,0.0,0.0,0.0,0.0,0.0,0.0,0.0,0.0,0.0,0.0,0.0,0.0,0.0,0.0,0.0,0.0,0.0,-5.2862,-5.2781,-5.2713,-5.3113,-5.4132,-5.4132,-5.4132,-5.4114,0.0,0.0,0.0,0.0,0.0,0.0,0.0,-4.974,-4.9506,-4.9333,-4.9734,0.0,0.0,0.0,0.0,0.0,0.0,0.0,0.0,0.0,0.0,0.0,0.0,0.0,0.0,-4.8789,-4.8666,-4.8897,-4.8958,-4.8958,0.0,0.0,0.0,0.0,0.0,0.0,0.0,0.0,0.0,0.0,0.0,0.0,0.0,0.0,0.0,0.0,0.0,0.0,0.0,0.0,0.0,0.0,0.0,0.0,0.0,0.0,0.0,0.0,0.0,0.0,0.0,-5.5194,-5.5194,-5.5194,-5.5194,-5.5194,-5.5194,-5.5194,-5.5194,-5.5194,-5.5194,-5.5194,-5.5194,-5.5194,-5.5194,-5.5194,-5.5194,-5.5194,-5.5194,-5.5194,-5.5194,-5.5194,-5.5194,-5.5194,-5.5194,0.0,0.0,0.0,0.0,0.0,0.0,0.0,0.0,0.0,0.0,0.0,0.0,0.0,0.0,0.0,0.0,0.0,0.0,0.0,0.0,0.0,0.0,0.0,-5.2084,-5.2102,-5.2084,-5.2857,-5.4371,-5.4389,-5.4389,-5.4371,-5.3033,0.0,0.0,0.0,0.0,0.0,0.0,0.0,-5.1133,-5.0388,-5.0541,-5.12,0.0,0.0,0.0,0.0,0.0,0.0,0.0,0.0,0.0,0.0,0.0,0.0,0.0,-4.9189,-4.8789,-4.9497,-4.9697,0.0,0.0,0.0,0.0,0.0,0.0,0.0,0.0,0.0,0.0,0.0,0.0,0.0,0.0,0.0,0.0,0.0,0.0,0.0,0.0,0.0,0.0,0.0,0.0,0.0,0.0,0.0,0.0,0.0,0.0,0.0,0.0,-5.5194,-5.5194,-5.5194,-5.5194,-5.5194,-5.5194,-5.5194,-5.5194,-5.5194,-5.5194,-5.5194,-5.5194,-5.5194,-5.5194,-5.5194,-5.5194,-5.5194,-5.5194,-5.5194,-5.5194,-5.5194,-5.5194,-5.5194,-5.5194,0.0,0.0,0.0,0.0,0.0,0.0,0.0,0.0,0.0,0.0,0.0,0.0,0.0,0.0,0.0,0.0,0.0,0.0,0.0,0.0,0.0,0.0,0.0,0.0,0.0,0.0,-5.2569,-5.2997,-5.3949,-5.4217,0.0,0.0,0.0,-5.2689,0.0,0.0,0.0,0.0,0.0,0.0,-4.9965,-5.0219,-5.0541,0.0,0.0,0.0,0.0,0.0,0.0,0.0,0.0,0.0,0.0,0.0,0.0,0.0,-5.0251,-5.0128,-5.0328,-5.0389,0.0,0.0,0.0,0.0,0.0,0.0,0.0,0.0,0.0,0.0,0.0,0.0,0.0,0.0,0.0,0.0,0.0,0.0,0.0,0.0,0.0,0.0,0.0,0.0,0.0,0.0,0.0,0.0,0.0,0.0,0.0,0.0,-5.5194,-5.5194,-5.5194,-5.5194,-5.5194,-5.5194,-5.5194,-5.5194,-5.5194,-5.5194,-5.5194,-5.5194,-5.5194,-5.5194,-5.5194,-5.5194,-5.5194,-5.5194,-5.5194,-5.5194,-5.5194,-5.5194,-5.5194,-5.5194,0.0,0.0,0.0,0.0,0.0,0.0,0.0,0.0,0.0,0.0,0.0,0.0,0.0,0.0,0.0,0.0,0.0,0.0,0.0,0.0,0.0,0.0,0.0,0.0,0.0,-5.2114,-5.1919,0.0,0.0,0.0,0.0,0.0,0.0,-5.1628,0.0,-5.0059,0.0,0.0,0.0,0.0,-4.9915,-5.0439,-5.1065,0.0,0.0,0.0,0.0,0.0,0.0,0.0,0.0,0.0,0.0,0.0,0.0,-5.1577,-5.107,-5.0845,-5.1265,0.0,0.0,0.0,0.0,0.0,0.0,0.0,0.0,0.0,0.0,0.0,0.0,0.0,0.0,0.0,0.0,0.0,0.0,0.0,0.0,0.0,0.0,0.0,0.0,0.0,0.0,0.0,0.0,0.0,0.0,0.0,0.0,0.0,-5.5194,-5.5194,-5.5194,-5.5194,-5.5194,-5.5194,-5.5194,-5.5194,-5.5194,-5.5194,-5.5194,-5.5194,-5.5194,-5.5194,-5.5194,-5.5194,-5.5194,-5.5194,-5.5194,-5.5466,-5.5735,-5.5381,-5.5466,-5.5735,0.0,0.0,0.0,0.0,0.0,0.0,0.0,0.0,0.0,0.0,0.0,0.0,0.0,0.0,0.0,0.0,0.0,0.0,0.0,0.0,0.0,0.0,0.0,0.0,0.0,0.0,0.0,0.0,0.0,0.0,0.0,0.0,-4.989,-4.989,0.0,-4.9001,0.0,0.0,0.0,0.0,-5.0236,-5.1099,-5.2317,-5.2469,0.0,0.0,0.0,0.0,0.0,0.0,0.0,0.0,0.0,0.0,0.0,-5.258,-5.1676,-5.1092,0.0,0.0,0.0,0.0,0.0,0.0,0.0,0.0,0.0,0.0,0.0,0.0,0.0,0.0,0.0,0.0,0.0,0.0,0.0,0.0,0.0,0.0,0.0,0.0,0.0,0.0,0.0,0.0,0.0,0.0,0.0,0.0,0.0,-5.5104,-5.5164,-5.5194,-5.5194,-5.5194,-5.5194,0.0,-5.5194,-5.5194,-5.5194,-5.5194,-5.5194,-5.5194,-5.5194,-5.5194,-5.5194,-5.528,-5.528,-5.5381,-5.5466,-5.6017,-5.6638,-5.5735,-5.6001,-5.6638,0.0,0.0,0.0,0.0,0.0,0.0,0.0,0.0,0.0,0.0,0.0,0.0,0.0,0.0,0.0,0.0,0.0,0.0,0.0,0.0,0.0,0.0,0.0,0.0,0.0,0.0,0.0,0.0,0.0,0.0,0.0,0.0,0.0,-4.989,0.0,-4.9001,0.0,0.0,0.0,0.0,-5.1352,-5.2012,-5.2435,-5.3636,-5.4194,0.0,0.0,0.0,0.0,0.0,0.0,0.0,0.0,-5.4859,-5.4566,-5.3097,-5.2479,-5.2387,0.0,0.0,0.0,0.0,0.0,0.0,0.0,0.0,0.0,0.0,0.0,0.0,0.0,0.0,0.0,0.0,0.0,0.0,0.0,0.0,0.0,0.0,0.0,0.0,0.0,0.0,0.0,0.0,0.0,0.0,0.0,0.0,0.0,-5.4416,-5.4925,-5.5194,-5.5194,-5.5194,-5.5194,0.0,-5.5194,-5.5194,-5.5194,-5.5194,-5.5194,-5.5194,-5.5194,-5.5194,-5.5295,-5.6001,-5.628,-5.6363,-5.7181,-5.7652,-5.773,-5.7559,-5.7637,-5.773,0.0,0.0,0.0,0.0,0.0,0.0,0.0,0.0,0.0,0.0,0.0,0.0,0.0,0.0,0.0,0.0,0.0,0.0,0.0,0.0,0.0,0.0,0.0,0.0,0.0,0.0,0.0,0.0,0.0,0.0,0.0,0.0,0.0,-4.9453,0.0,-4.9526,0.0,0.0,0.0,0.0,-5.2418,-5.3095,-5.3534,-5.4685,-5.5141,-5.5226,-5.597,0.0,0.0,0.0,0.0,0.0,0.0,0.0,-5.4968,-5.3449,-5.2877,-5.2788,0.0,0.0,0.0,0.0,0.0,0.0,0.0,0.0,0.0,0.0,0.0,0.0,0.0,0.0,0.0,0.0,0.0,0.0,0.0,0.0,0.0,0.0,0.0,0.0,0.0,0.0,0.0,0.0,0.0,0.0,0.0,-5.3832,-5.4206,-5.4206,-5.4536,-5.488,-5.5194,-5.5194,-5.5194,-5.5194,-5.5194,-5.5194,-5.5194,-5.5194,-5.5511,-5.607,-5.5511,-5.5735,-5.6557,-5.6638,-5.6911,-5.7371,-5.7916,-5.8376,-5.8754,-5.8284,-5.8376,-5.8754,0.0,0.0,0.0,0.0,0.0,0.0,0.0,0.0,0.0,0.0,0.0,0.0,0.0,0.0,0.0,0.0,0.0,0.0,0.0,0.0,0.0,0.0,0.0,0.0,0.0,0.0,0.0,0.0,0.0,0.0,0.0,0.0,0.0,-4.9221,0.0,0.0,0.0,0.0,0.0,0.0,0.0,0.0,-5.4871,-5.5615,-5.5902,-5.6004,-5.6731,-5.6985,-5.707,-5.7679,0.0,0.0,0.0,0.0,-5.5051,-5.3852,-5.3129,-5.2788,0.0,0.0,0.0,0.0,0.0,0.0,0.0,0.0,0.0,0.0,0.0,0.0,0.0,0.0,0.0,0.0,0.0,0.0,0.0,0.0,0.0,0.0,0.0,0.0,0.0,0.0,0.0,0.0,0.0,0.0,-5.3219,-5.3832,-5.4206,-5.4206,-5.4326,-5.464,-5.5179,-5.5194,-5.528,-5.5466,-5.5651,-5.5605,-5.5545,-5.5605,-5.6191,-5.6981,-5.6077,-5.6638,-5.8101,-5.7371,-5.7652,-5.8376,-5.8558,-5.9129,-5.9794,-5.8934,-5.9129,-5.9778,0.0,0.0,0.0,0.0,0.0,0.0,0.0,0.0,0.0,0.0,0.0,0.0,0.0,0.0,0.0,0.0,0.0,0.0,-5.4762,0.0,0.0,-5.2405,-5.1951,0.0,0.0,0.0,0.0,0.0,0.0,0.0,0.0,0.0,0.0,0.0,0.0,0.0,0.0,0.0,0.0,0.0,0.0,0.0,-5.5649,-5.6376,-5.6664,-5.6748,-5.7492,-5.7746,-5.7763,-5.7865,-5.7881,0.0,0.0,0.0,-5.5133,-5.4147,-5.3346,0.0,0.0,0.0,0.0,0.0,0.0,0.0,0.0,0.0,0.0,0.0,0.0,0.0,0.0,0.0,0.0,0.0,0.0,0.0,0.0,0.0,0.0,0.0,0.0,0.0,0.0,0.0,0.0,0.0,0.0,0.0,-5.3174,-5.3832,-5.4206,-5.4206,-5.476,-5.5104,-5.5194,-5.5194,-5.5651,-5.646,-5.7276,-5.7449,-5.6918,-5.7464,-5.7292,-5.6684,-5.7386,-5.7823,-5.8193,-5.886,-5.9323,-5.9499,-6.0361,-6.0818,-6.0919,-6.0734,-6.0818,-6.0919,0.0,0.0,0.0,0.0,0.0,0.0,0.0,0.0,0.0,0.0,0.0,0.0,0.0,0.0,0.0,-5.6573,-5.5957,-5.5341,-5.4943,-5.4581,-5.4038,-5.3378,-5.3396,0.0,0.0,0.0,0.0,0.0,0.0,0.0,0.0,-5.1719,-5.1539,0.0,0.0,0.0,0.0,0.0,0.0,0.0,0.0,0.0,0.0,0.0,0.0,0.0,0.0,0.0,0.0,0.0,-5.7881,-5.7735,-5.6844,0.0,0.0,0.0,-5.3346,0.0,0.0,0.0,0.0,0.0,0.0,0.0,0.0,0.0,0.0,0.0,0.0,0.0,0.0,0.0,0.0,0.0,0.0,0.0,0.0,0.0,0.0,0.0,0.0,0.0,0.0,0.0,0.0,0.0,0.0,-5.4147,-5.3773,-5.4042,-5.4206,-5.4206,-5.4491,-5.482,-5.5194,-5.5194,-5.5635,-5.6638,-5.7637,-5.7898,-5.7724,-5.8568,-5.8962,-5.9115,-5.8351,-5.8754,-5.9778,-5.9691,-5.9968,-6.0447,-6.0919,-6.1102,-6.1102,-6.1102,-6.1102,-6.1102,0.0,0.0,0.0,0.0,0.0,0.0,0.0,0.0,0.0,0.0,0.0,0.0,0.0,0.0,0.0,0.0,-5.6645,-5.5975,-5.5233,-5.5178,-5.4923,-5.4251,-5.4657,-5.4607,-5.4008,0.0,0.0,0.0,0.0,0.0,-5.2289,-5.3092,-5.2993,0.0,-5.3467,0.0,0.0,0.0,0.0,0.0,0.0,0.0,0.0,0.0,0.0,0.0,0.0,0.0,0.0,0.0,0.0,-5.8129,-5.7666,-5.6909,0.0,0.0,0.0,0.0,0.0,0.0,0.0,0.0,0.0,0.0,0.0,0.0,0.0,0.0,0.0,0.0,0.0,0.0,0.0,0.0,0.0,0.0,0.0,0.0,0.0,0.0,0.0,0.0,0.0,0.0,0.0,0.0,0.0,-5.4985,-5.4476,-5.4461,-5.4545,-5.4812,-5.4812,-5.5137,-5.5918,-5.6198,-5.6654,-5.7371,-5.8391,-5.8844,-5.8844,-5.9603,-6.0348,-6.0995,-5.9532,-5.9691,-6.1019,-6.0259,-6.0447,-6.1102,-6.1102,-6.1102,-6.1102,-6.1102,-6.1102,-6.1186,0.0,0.0,0.0,0.0,0.0,0.0,0.0,0.0,0.0,0.0,0.0,0.0,-5.5776,-5.5975,-5.6319,-5.7134,-5.7152,-5.679,-5.5993,-5.5939,-5.5631,-5.4876,-5.4907,0.0,-5.4008,0.0,0.0,0.0,0.0,0.0,-5.5024,-5.3994,-5.3822,-5.4448,-5.5243,-5.5598,-5.5649,0.0,0.0,0.0,0.0,0.0,0.0,0.0,0.0,0.0,0.0,0.0,0.0,0.0,0.0,-5.9082,-5.9684,-5.9315,-5.8587,0.0,0.0,0.0,0.0,0.0,0.0,0.0,0.0,0.0,0.0,0.0,0.0,0.0,0.0,0.0,0.0,0.0,0.0,0.0,0.0,0.0,0.0,0.0,0.0,0.0,0.0,0.0,0.0,0.0,0.0,0.0,0.0,-5.5179,-5.5149,-5.5149,-5.5605,-5.6495,-5.6495,-5.696,-5.7916,-5.8844,-5.9411,-5.9427,-6.0447,-6.0919,-6.0935,-6.1019,-6.1035,-6.1069,-6.1035,-6.1019,-6.1119,-6.1019,-6.1019,-6.1102,-6.1102,-6.1102,-6.1102,-6.1102,-6.1252,-6.1383,0.0,0.0,0.0,0.0,0.0,0.0,0.0,0.0,0.0,0.0,0.0,0.0,0.0,-5.6446,-5.688,-5.717,-5.7188,-5.708,-5.679,-5.6772,-5.6645,-5.6391,-5.6373,-5.6255,-5.6067,0.0,0.0,0.0,0.0,-5.3849,-5.4175,-5.416,-5.4346,-5.46,-5.4871,-5.4989,-5.504,-5.5784,0.0,0.0,0.0,0.0,0.0,0.0,0.0,0.0,0.0,0.0,0.0,0.0,0.0,0.0,-6.0013,-5.9527,-5.8687,-5.8101,0.0,0.0,0.0,0.0,0.0,0.0,0.0,0.0,0.0,0.0,0.0,0.0,0.0,0.0,0.0,0.0,0.0,0.0,0.0,0.0,0.0,0.0,0.0,0.0,0.0,0.0,0.0,0.0,0.0,0.0,0.0,0.0,-5.61,-5.6735,-5.7276,-5.7699,-5.7637,-5.773,-5.8101,-5.9129,-5.9603,-5.9603,-6.0633,-6.1102,-6.1102,-6.1102,-6.1102,-6.1102,-6.1102,-6.1102,-6.1102,-6.1102,-6.1102,-6.1102,-6.1102,-6.1102,-6.1102,-6.1102,-6.1252,-6.1383,0.0,0.0,0.0,0.0,0.0,0.0,0.0,0.0,0.0,0.0,0.0,0.0,0.0,0.0,-5.7188,-5.7188,-5.7188,-5.7188,-5.7188,-5.7188,-5.7188,-5.7188,-5.7188,-5.7087,-5.6915,0.0,0.0,0.0,0.0,0.0,0.0,0.0,-5.4583,-5.4583,-5.4329,-5.4499,0.0,0.0,0.0,-5.6089,0.0,0.0,-5.6782,0.0,0.0,0.0,0.0,0.0,0.0,0.0,0.0,0.0,-6.0791,-6.0455,-5.9851,-5.8921,0.0,0.0,0.0,0.0,0.0,0.0,0.0,0.0,0.0,0.0,0.0,0.0,0.0,0.0,0.0,0.0,0.0,0.0,0.0,0.0,0.0,0.0,0.0,0.0,0.0,0.0,0.0,0.0,0.0,0.0,0.0,0.0,-5.7371,-5.7993,-5.8526,-5.8959,-5.917,-5.9274,-5.9186,-5.9849,-6.0141,-6.0071,-6.0734,-6.1102,-6.1102,-6.1102,-6.1102,-6.1102,-6.1102,-6.1102,-6.1102,-6.1102,-6.1102,-6.1102,-6.1102,-6.1102,-6.1102,-6.1186,-6.1334,-6.1383,0.0,0.0,0.0,0.0,0.0,0.0,0.0,0.0,0.0,0.0,0.0,0.0,0.0,0.0,0.0,-5.7188,-5.7188,-5.7188,-5.7188,-5.7188,-5.7188,-5.7188,-5.7188,-5.6933,-5.6366,0.0,0.0,0.0,0.0,0.0,0.0,0.0,-5.4566,0.0,-5.3856,-5.4346,-5.5767,0.0,-5.6748,-5.6765,0.0,-5.6799,-5.6884,0.0,0.0,0.0,-5.8744,-5.9505,0.0,-6.0131,0.0,0.0,0.0,0.0,-6.2206,-6.1333,0.0,0.0,0.0,0.0,0.0,0.0,0.0,0.0,0.0,0.0,0.0,0.0,0.0,0.0,0.0,0.0,0.0,0.0,0.0,0.0,0.0,0.0,0.0,0.0,0.0,0.0,0.0,0.0,0.0,0.0,0.0,-5.8812,-5.8812,-5.8902,-5.933,-6.0214,-6.1235,-6.1628,-6.1383,-6.1383,-6.1318,-6.1102,-6.1102,-6.1102,-6.1102,-6.1102,-6.1102,-6.1102,-6.1102,-6.1102,-6.1102,-6.1102,-6.1102,-6.1102,-6.1102,-6.1102,-6.1102,-6.1318,-6.1383,-6.1465,0.0,0.0,0.0,0.0,0.0,0.0,0.0,0.0,0.0,0.0,0.0,0.0,0.0,-5.7188,-5.7188,-5.7188,-5.7188,-5.7188,-5.7188,-5.7188,-5.7188,-5.7188,-5.7188,-5.7138,-5.6966,0.0,0.0,0.0,0.0,0.0,0.0,0.0,0.0,0.0,-5.438,-5.482,-5.57,-5.5344,0.0,0.0,-5.6596,-5.6799,0.0,0.0,0.0,0.0,0.0,-5.986,-6.0977,0.0,-6.1467,-6.2127,0.0,0.0,-6.2381,0.0,0.0,0.0,-6.0119,0.0,0.0,0.0,0.0,0.0,0.0,0.0,0.0,0.0,0.0,0.0,0.0,0.0,0.0,0.0,0.0,0.0,0.0,0.0,0.0,0.0,0.0,0.0,0.0,0.0,0.0,0.0,-5.9242,-5.9854,-5.9854,-6.0653,-6.1218,-6.1251,-6.1676,-6.1773,-6.1383,-6.1383,-6.1318,-6.1102,-6.1102,-6.1102,-6.1102,-6.1102,-6.1102,-6.1102,-6.1102,-6.1102,-6.1102,-6.1102,-6.1102,-6.1102,-6.1102,-6.1102,-6.1119,-6.1186,-6.1334,-6.1628,0.0,0.0,0.0,0.0,0.0,0.0,0.0,0.0,0.0,0.0,0.0,0.0,0.0,-5.7188,-5.7188,-5.7188,-5.7188,-5.7188,-5.7188,-5.7188,-5.7188,-5.7188,-5.7188,-5.7087,-5.6811,0.0,0.0,0.0,0.0,0.0,0.0,0.0,0.0,0.0,0.0,0.0,0.0,0.0,0.0,0.0,-5.7087,0.0,0.0,-5.8643,-5.9285,0.0,0.0,0.0,-6.1704,-6.14,-6.1789,0.0,0.0,0.0,0.0,0.0,0.0,0.0,-6.1086,0.0,0.0,0.0,0.0,0.0,0.0,-5.8186,0.0,0.0,0.0,0.0,0.0,0.0,0.0,0.0,0.0,0.0,0.0,0.0,0.0,0.0,0.0,0.0,0.0,0.0,0.0,-5.9616,-6.0586,-6.1119,-6.1119,-6.182,-6.211,-6.1967,-6.211,-6.2014,-6.1611,-6.1547,-6.14,-6.1252,-6.1102,-6.1102,-6.1102,-6.1102,-6.1102,-6.1102,-6.1102,-6.1102,-6.1102,-6.1102,-6.1102,-6.1102,-6.1102,-6.1102,-6.1102,-6.1169,-6.14,-6.1628,0.0,0.0,0.0,0.0,0.0,0.0,0.0,0.0,0.0,0.0,0.0,0.0,0.0,-5.7188,-5.7188,-5.7188,-5.7188,-5.7188,-5.7188,-5.7188,-5.7188,-5.7188,-5.7188,-5.6966,-5.642,0.0,0.0,0.0,0.0,0.0,0.0,0.0,0.0,0.0,0.0,0.0,0.0,0.0,0.0,-5.8271,-5.8271,-5.8998,0.0,0.0,-6.0689,-6.1298,-6.1298,-6.1772,-6.2296,-6.1637,-6.1856,0.0,0.0,0.0,0.0,0.0,-6.2381,0.0,0.0,-5.9991,-5.8755,0.0,0.0,0.0,-5.8178,-5.969,-6.0986,0.0,0.0,0.0,0.0,0.0,0.0,0.0,0.0,0.0,0.0,0.0,0.0,0.0,0.0,0.0,0.0,-5.9059,-5.9657,-6.1052,-6.1951,-6.2381,-6.2381,-6.2381,-6.2381,-6.2381,-6.2381,-6.2285,-6.1997,-6.1773,-6.1628,-6.1383,-6.1186,-6.1102,-6.1102,-6.1102,-6.1102,-6.1102,-6.1102,-6.1102,-6.1102,-6.1102,-6.1102,-6.1102,-6.1102,-6.1102,-6.1102,-6.1318,-6.1383,-6.1465,-5.2452,0.0,0.0,0.0,0.0,0.0,0.0,0.0,0.0,0.0,0.0,0.0,0.0,0.0,-5.7188,-5.7188,-5.7188,-5.7188,-5.7188,-5.7188,-5.7188,-5.7188,-5.7188,-5.7138,-5.7036,-5.6491,0.0,0.0,0.0,0.0,0.0,0.0,0.0,0.0,0.0,0.0,0.0,0.0,0.0,-6.0639,-6.0639,0.0,-6.0165,-6.0825,-6.1163,-6.1298,-6.1298,-6.1772,-6.2364,-6.2229,-6.2279,-6.2381,0.0,0.0,0.0,-6.2381,0.0,0.0,0.0,0.0,0.0,0.0,0.0,0.0,-5.7563,-5.9313,-6.0986,0.0,0.0,0.0,0.0,0.0,0.0,0.0,0.0,0.0,0.0,0.0,0.0,0.0,0.0,0.0,0.0,-6.0813,-6.1183,-6.2059,-6.2302,-6.2381,-6.2381,-6.2381,-6.2381,-6.2381,-6.2381,-6.2285,-6.1997,-6.1773,-6.1628,-6.1383,-6.1186,-6.1102,-6.1102,-6.1102,-6.1102,-6.1102,-6.1102,-6.1102,-6.1102,-6.1102,-6.1102,-6.1102,-6.1102,-6.1102,-6.1102,-6.1186,-6.1318,-6.1628,-5.2498,0.0,0.0,0.0,0.0,0.0,0.0,0.0,0.0,0.0,0.0,0.0,0.0,0.0,0.0,-5.7188,-5.7188,-5.7188,-5.7188,-5.7188,-5.7188,-5.7188,-5.7188,-5.7188,-5.7188,-5.6915,-5.6758,0.0,0.0,0.0,0.0,0.0,0.0,0.0,0.0,0.0,0.0,0.0,-6.0926,-6.1264,-6.0858,0.0,-6.1247,-6.1298,-6.1535,-6.1789,-6.1434,-6.1535,-6.1907,-6.2262,-6.2381,0.0,0.0,-6.2381,-6.2381,0.0,-6.2381,-6.2381,0.0,0.0,0.0,-6.0035,0.0,0.0,0.0,-6.0534,-6.1692,0.0,0.0,0.0,0.0,0.0,0.0,0.0,0.0,0.0,0.0,0.0,0.0,0.0,0.0,0.0,0.0,-6.1298,-6.1603,-6.233,-6.2381,-6.2381,-6.2381,-6.2381,-6.2381,-6.2381,-6.2381,-6.2381,-6.2189,-6.187,-6.1628,-6.1547,-6.1252,-6.1102,-6.1102,-6.1102,-6.1102,-6.1102,-6.1102,-6.1102,-6.1102,-6.1102,-6.1102,-6.1102,-6.1102,-6.1102,-6.1102,-6.1252,-6.14,-6.1709,-5.2498,0.0,0.0,0.0,0.0,0.0,0.0,0.0,0.0,0.0,0.0,0.0,0.0,0.0,0.0,0.0,-5.7188,-5.7188,-5.7188,-5.7188,-5.7188,-5.7188,-5.7188,-5.7188,-5.7188,-5.7351,-5.7201,0.0,0.0,0.0,0.0,0.0,0.0,0.0,0.0,0.0,0.0,0.0,0.0,-6.145,0.0,-6.1281,-6.2313,-6.1586,-6.167,-6.2076,-6.1332,-6.118,-6.14,-6.1975,-6.2279,-6.2381,-6.2381,-6.2381,0.0,0.0,0.0,0.0,0.0,0.0,0.0,0.0,0.0,-6.1298,0.0,0.0,0.0,0.0,0.0,0.0,0.0,0.0,0.0,0.0,0.0,0.0,0.0,0.0,0.0,0.0,0.0,0.0,0.0,-6.1518,-6.1755,-6.2347,-6.2381,-6.2381,-6.2381,-6.2381,-6.2381,-6.2381,-6.2381,-6.2381,-6.2381,-6.1967,-6.1709,-6.1709,-6.1252,-6.1102,-6.1102,-6.0953,-6.0904,-6.0887,-6.0755,-6.0688,-6.0688,-6.0688,-6.0771,-6.0904,-6.1053,-6.1102,-6.1102,-6.1252,-6.1465,-6.1692,-5.2498,-5.2498,0.0,0.0,0.0,0.0,0.0,0.0,0.0,0.0,0.0,0.0,0.0,0.0,0.0,0.0,0.0,0.0,-5.7188,0.0,-5.7188,-5.7188,-5.7188,-5.7188,-5.7188,-5.7895,-5.8205,-5.8153,0.0,0.0,0.0,0.0,0.0,0.0,-5.8947,0.0,0.0,0.0,-6.1687,0.0,-6.2161,-6.2229,0.0,-6.1586,-6.1349,-6.1315,-6.052,-6.0689,-6.1315,0.0,-6.1856,-6.2381,0.0,-6.2381,-6.2381,-6.2381,0.0,0.0,0.0,0.0,0.0,0.0,-6.1298,0.0,0.0,0.0,0.0,0.0,0.0,0.0,0.0,0.0,0.0,0.0,0.0,0.0,0.0,0.0,0.0,0.0,0.0,0.0,0.0,0.0,-6.2296,-6.2381,-6.2381,-6.2381,-6.2381,-6.2381,-6.2381,-6.2381,-6.2381,-6.2381,-6.2381,-6.1967,-6.1709,-6.1709,-6.1252,-6.1102,-6.1086,-6.0423,-6.0125,-6.0092,-5.9429,-5.9148,-5.9148,-5.9148,-5.9545,-6.0191,-6.0854,-6.1102,-6.1102,-6.1102,-6.14,-6.1609,-5.2498,-5.2498,0.0,0.0,0.0,0.0,0.0,0.0,0.0,0.0,0.0,0.0,0.0,0.0,0.0,0.0,0.0,-5.7188,0.0,0.0,-5.7188,-5.7188,-5.7641,-5.7895,-5.7895,-5.8691,-5.9108,-5.9108,-5.9009,0.0,0.0,0.0,0.0,0.0,-5.9455,0.0,-6.0639,0.0,0.0,0.0,0.0,0.0,0.0,-6.1247,-6.0757,-5.9996,-6.008,-6.0047,-6.0047,0.0,-6.1129,0.0,0.0,0.0,0.0,0.0,0.0,0.0,0.0,0.0,0.0,0.0,0.0,0.0,-6.1941,0.0,-6.2262,0.0,0.0,0.0,0.0,0.0,0.0,0.0,0.0,0.0,0.0,0.0,0.0,0.0,0.0,0.0,0.0,0.0,0.0,0.0,0.0,-6.2381,-6.2381,-6.2381,-6.2381,-6.2381,-6.2381,-6.2381,-6.2381,-6.203,-6.1854,-6.1709,-6.0967,-6.0604,-6.044,-5.9694,-5.9363,-5.9347,-5.9032,-5.8899,-5.8899,-5.8899,-5.9082,-5.9396,-5.9694,-6.0357,-6.1102,-6.1252,-6.1198,-6.1023,-5.2498,0.0,0.0,0.0,0.0,0.0,0.0,0.0,0.0,0.0,0.0,0.0,-5.7496,-5.7532,0.0,0.0,-5.7858,-5.7858,0.0,0.0,-5.7532,0.0,0.0,0.0,-5.8402,-5.9416,-5.9941,-5.9941,0.0,0.0,0.0,0.0,0.0,0.0,0.0,-6.0282,-6.101,0.0,0.0,-6.0796,-6.1112,-6.0714,-5.986,-6.0452,-5.986,-5.8778,-5.9302,-5.9285,-5.9099,-5.9624,-6.0334,0.0,-6.0977,0.0,0.0,0.0,0.0,0.0,-6.2144,0.0,0.0,0.0,0.0,0.0,0.0,0.0,0.0,0.0,0.0,0.0,0.0,0.0,0.0,0.0,0.0,0.0,0.0,0.0,0.0,0.0,0.0,0.0,0.0,0.0,0.0,0.0,-6.1958,-6.2093,-6.2093,-6.2279,-6.2381,-6.2381,-6.2381,-6.2296,-6.2093,-6.1807,-6.153,-6.1186,-6.0395,-5.9921,-5.9759,-5.8933,-5.8601,-5.8585,-5.8369,-5.8303,-5.8303,-5.8303,-5.8419,-5.8681,-5.8585,-5.9461,-6.067,-6.0719,-6.0648,-6.0537,-5.2498,-5.2498,0.0,0.0,0.0,0.0,0.0,0.0,0.0,0.0,0.0,0.0,0.0,0.0,0.0,0.0,0.0,-5.9524,-5.9524,0.0,-5.8365,0.0,0.0,-5.8402,0.0,-5.9959,-6.0774,-6.0774,0.0,0.0,0.0,0.0,0.0,0.0,0.0,-6.0683,-6.3267,-6.182,-6.1614,-6.2272,-6.1476,-6.0322,-5.9049,0.0,-5.8609,-5.7932,-5.7949,0.0,0.0,-5.9049,-5.9539,0.0,0.0,0.0,0.0,0.0,0.0,0.0,0.0,0.0,0.0,-6.0368,0.0,0.0,0.0,0.0,-6.0385,0.0,0.0,0.0,0.0,0.0,-5.8812,-5.8084,0.0,0.0,0.0,0.0,0.0,0.0,0.0,0.0,0.0,0.0,0.0,-6.0165,-6.0892,-6.1349,-6.1349,-6.2009,-6.2381,-6.2381,-6.2381,-6.2059,-6.1349,-6.1048,-6.06,-5.9833,-5.941,-5.9252,-5.9218,-5.825,-5.7823,-5.779,-5.7061,-5.6763,-5.6763,-5.6763,-5.7332,-5.8136,-5.7902,-5.8524,-5.9505,-5.9126,-5.9701,-6.0387,0.0,0.0,0.0,0.0,0.0,0.0,0.0,-5.621,0.0,0.0,0.0,0.0,0.0,0.0,-5.9307,0.0,0.0,-5.9615,-5.9615,-5.9361,0.0,0.0,0.0,-5.9995,0.0,0.0,0.0,0.0,0.0,0.0,0.0,0.0,0.0,0.0,0.0,-6.1349,0.0,0.0,0.0,0.0,0.0,-5.8693,-5.8271,0.0,0.0,-5.7881,-5.7881,-5.8051,0.0,-5.8271,-5.8761,-5.9387,-5.9387,-5.9894,-6.052,-6.052,-6.0672,0.0,0.0,0.0,-6.0436,-6.0165,0.0,0.0,0.0,0.0,0.0,0.0,0.0,0.0,0.0,0.0,-5.8778,-5.8017,-5.7881,-5.7797,0.0,0.0,0.0,0.0,0.0,0.0,0.0,0.0,0.0,-6.0097,-6.0351,-6.052,0.0,-6.074,-6.0875,-6.0875,-6.0875,-6.0757,-6.052,-6.041,-6.0215,-5.9826,-5.9014,-5.8625,-5.8452,-5.747,-5.7061,-5.7044,-5.6796,-5.668,-5.668,-5.6834,-5.706,-5.737,-5.743,-5.7974,-5.8769,-5.9035,-5.9209,-5.9228,-5.2498,0.0,0.0,0.0,0.0,0.0,0.0,0.0,0.0,0.0,-5.8076,0.0,-5.9198,0.0,-6.0158,0.0,-6.0466,-6.0466,-6.0466,-6.0194,0.0,-6.0031,-6.0538,0.0,0.0,0.0,0.0,0.0,0.0,-6.1636,0.0,0.0,0.0,0.0,0.0,0.0,0.0,0.0,-6.1494,0.0,0.0,-5.8685,0.0,0.0,-5.8351,-5.7881,0.0,-5.8068,-5.8287,-5.8287,-5.8778,-5.9404,-5.9404,-5.9725,-6.0097,-6.0097,-6.0097,-6.0047,-5.9793,-5.9725,0.0,-5.9387,-5.9319,0.0,-5.9319,0.0,0.0,0.0,0.0,0.0,0.0,0.0,-5.8846,-5.8372,-5.8068,-5.7881,0.0,-5.7881,0.0,0.0,0.0,0.0,0.0,0.0,-5.9319,-5.9319,-5.9556,-5.9725,0.0,0.0,-6.0097,-6.0097,-6.0097,-5.9979,-5.9725,-5.9725,-5.9515,-5.9111,-5.8396,-5.7933,-5.7763,-5.705,-5.668,-5.668,-5.668,-5.6757,-5.6834,-5.6911,-5.7063,-5.7214,-5.7289,-5.7666,-5.8228,-5.8468,-5.8411,-5.8244,0.0,0.0,0.0,0.0,-5.3947,0.0,0.0,0.0,-5.7532,0.0,-5.8474,-5.9108,-6.0647,-6.0846,-6.119,-6.1951,-6.2023,0.0,-6.2023,-6.1299,0.0,0.0,-6.0864,-6.0864,-6.0864,0.0,0.0,0.0,0.0,0.0,0.0,0.0,0.0,0.0,-6.1981,0.0,-6.3333,-6.3262,-6.2824,-6.2039,-6.0582,-5.9966,-5.9966,-5.9966,-5.9215,-5.8078,-5.8005,-5.8423,-5.9066,-5.9066,-5.9522,-6.0097,-6.0097,-6.0097,-6.0097,-6.0097,-6.0097,-5.9945,-5.9218,-5.9015,-5.8829,-5.8068,0.0,0.0,0.0,0.0,-5.8101,0.0,0.0,0.0,0.0,0.0,0.0,-5.8981,-5.8355,-5.7881,-5.7881,0.0,0.0,0.0,0.0,0.0,0.0,-5.7881,-5.7881,-5.7881,-5.8558,0.0,0.0,0.0,-5.9996,-5.9996,-5.9996,-5.9658,-5.8964,-5.8964,-5.8592,-5.7898,-5.7514,-5.7289,-5.7289,-5.6911,-5.6757,-5.6757,-5.6757,-5.6834,-5.6987,-5.7063,-5.7289,-5.7588,-5.7439,-5.7588,-5.7881,-5.7439,-5.7439,-5.7662,-5.2498,-5.2987,-5.3748,0.0,-5.5432,-5.5776,0.0,0.0,0.0,0.0,-5.9452,-6.0357,-6.0756,-6.1335,-6.1788,-6.2005,-6.2023,0.0,0.0,0.0,0.0,-6.1697,-6.1697,-6.1697,-6.1697,-6.1915,-6.2023,-6.2023,0.0,0.0,-6.1748,0.0,0.0,0.0,0.0,0.0,-6.4082,-6.2905,-6.2003,-6.1254,-6.037,-5.9966,0.0,0.0,-6.0141,-6.025,-5.9736,-5.9682,-5.9827,-5.9827,-5.9945,-6.0097,-6.0097,-6.0097,-6.0097,-6.0097,-6.0097,-5.9945,-5.9218,-5.9015,-5.8829,-5.8068,-5.7881,-5.7881,0.0,0.0,0.0,0.0,0.0,0.0,0.0,0.0,0.0,-5.8355,-5.8017,-5.7881,0.0,0.0,0.0,-5.7881,0.0,0.0,-5.7881,-5.7881,-5.7881,-5.7881,-5.8068,0.0,0.0,0.0,0.0,-5.8457,-5.8457,-5.8355,-5.8169,-5.8169,-5.8084,-5.7898,-5.7662,-5.7514,-5.7514,-5.7289,-5.7139,-5.7139,-5.7139,-5.7214,-5.7214,-5.7364,-5.7514,-5.7588,-5.7735,-5.7808,-5.7881,-5.7808,-5.7808,-5.7808,-5.3548,0.0,0.0,-5.5848,0.0,0.0,-5.6518,0.0,0.0,-5.8891,-6.0031,0.0,-6.1299,-6.1752,-6.2023,-6.2023,-6.2023,0.0,-6.2023,0.0,0.0,-6.2023,-6.2023,-6.2023,-6.2023,-6.2023,0.0,-6.2023,0.0,0.0,-6.2023,0.0,0.0,0.0,0.0,-6.31,0.0,-6.2992,-6.2148,-6.143,-6.1063,0.0,0.0,-6.0867,-6.1379,-6.204,-6.1652,-6.1536,-6.1559,-6.1559,-6.1783,-6.2041,-6.2041,-6.1615,-6.1081,-6.1081,-6.0636,-6.0013,-5.959,-5.9252,-5.8913,-5.849,-5.8135,-5.7881,-5.7881,-5.7881,-5.7881,0.0,0.0,0.0,0.0,0.0,0.0,0.0,0.0,0.0,0.0,0.0,0.0,0.0,-5.7881,0.0,-5.7881,-5.7881,-5.7881,-5.7881,0.0,0.0,0.0,0.0,0.0,-5.7881,-5.7881,-5.7881,-5.7881,-5.7881,-5.7881,-5.7881,-5.7662,-5.7588,-5.7588,-5.7364,-5.7289,-5.7289,-5.7289,-5.7364,-5.7439,-5.7588,-5.7662,-5.7735,-5.7881,-5.7881,-5.7881,-5.7881,-5.7881,-5.7881,0.0,0.0,0.0,0.0,0.0,0.0,0.0,-5.8039,0.0,-5.9651,0.0,-6.1245,-6.1933,-6.2023,-6.2023,-6.2023,0.0,-6.2023,-6.2023,-6.2023,-6.2023,-6.2023,-6.2023,-6.2023,-6.2023,-6.2023,-6.2023,0.0,0.0,0.0,0.0,0.0,0.0,0.0,0.0,0.0,0.0,-6.3255,-6.2838,0.0,-6.2023,-6.2023,-6.2023,-6.2132,-6.2717,-6.3482,-6.3528,-6.3623,-6.3618,-6.3618,-6.4056,-6.4601,-6.4601,-6.3729,-6.2729,-6.2729,-6.1757,-6.0653,-6.0476,-5.9926,-5.9417,-5.9167,-5.8649,-5.8179,-5.8179,-5.815,-5.8154,-5.8154,-5.8082,-5.8213,0.0,0.0,0.0,0.0,0.0,0.0,0.0,0.0,0.0,0.0,0.0,0.0,-5.7874,-5.7903,-5.7881,0.0,0.0,0.0,0.0,0.0,0.0,-5.7881,-5.7881,0.0,-5.7881,0.0,-5.7881,-5.7881,-5.7735,-5.7662,-5.7662,-5.7439,-5.7364,-5.7364,-5.7364,-5.7514,-5.7662,-5.7662,-5.7735,-5.7881,-5.7881,-5.7881,-5.7881,-5.7881,-5.7881,-5.7881,0.0,0.0,0.0,0.0,0.0,-5.7424,-5.8094,-5.8872,-5.9687,-6.0484,-6.1299,-6.186,-6.2005,-6.2023,-6.2023,-6.2023,-6.2023,0.0,0.0,0.0,0.0,-6.2023,-6.2023,-6.2023,-6.2023,-6.2023,-6.2023,-6.2023,-6.2023,-6.2023,0.0,0.0,0.0,0.0,0.0,0.0,-6.2313,-6.3635,0.0,-6.2023,-6.2023,-6.2023,-6.2078,-6.2748,-6.3506,-6.4278,-6.4946,-6.4885,-6.4408,-6.4408,-6.4478,-6.4601,-6.4601,-6.4427,-6.4183,-6.4183,-6.4009,-6.3572,-6.2324,-6.1937,-6.1461,-6.0214,-5.9779,-5.9717,-5.9717,-5.9665,-5.9644,-5.9644,-5.918,-5.8737,-5.8875,0.0,0.0,0.0,0.0,0.0,0.0,0.0,0.0,0.0,0.0,-5.8462,0.0,0.0,0.0,0.0,0.0,0.0,0.0,0.0,0.0,0.0,-5.7881,0.0,0.0,0.0,-5.7881,-5.7881,-5.7881,-5.7808,-5.7808,-5.7808,-5.7808,-5.7808,-5.7808,-5.7808,-5.7808,-5.7808,-5.7881,-5.7881,-5.7881,-5.7881,-5.7881,-5.7881,-5.7881,-5.7881,0.0,0.0,0.0,0.0,0.0,0.0,0.0,-5.9532,0.0,-6.0701,-6.1516,-6.2023,-6.2023,-6.2023,-6.2023,-6.2023,-6.2023,-6.2023,-6.2023,-6.2023,-6.2023,-6.2023,-6.2023,0.0,-6.2023,-6.2023,-6.2023,-6.2023,-6.2023,-6.2023,-6.2023,0.0,0.0,0.0,0.0,-6.2404,0.0,0.0,0.0,-6.2023,-6.2023,-6.2023,-6.206,-6.244,-6.3345,-6.445,-6.483,-6.5286,-6.576,-6.576,-6.576,-6.576,-6.576,-6.5486,-6.5141,-6.5141,-6.4873,-6.4444,-6.3729,-6.3293,-6.2753,-6.2035,-6.1554,-6.115,-6.0784,-6.0666,-6.0522,-6.0072,-5.9709,-5.9569,-5.9951,-6.0665,0.0,0.0,0.0,0.0,0.0,0.0,0.0,0.0,0.0,0.0,0.0,0.0,0.0,0.0,0.0,0.0,0.0,0.0,0.0,0.0,0.0,0.0,0.0,0.0,0.0,-5.7881,-5.7881,-5.7881,-5.7881,-5.7881,-5.7881,-5.7881,-5.7881,-5.7881,-5.7881,-5.7881,-5.7881,-5.7881,-5.7881,-5.7881,-5.7881,-5.7881,-5.7881,-5.7881,0.0,-5.732,0.0,0.0,-5.7465,0.0,-6.0023,-6.0131,-6.028,-6.1079,-6.1661,-6.2023,-6.2023,-6.2023,-6.2023,-6.2023,-6.2023,-6.2023,-6.2023,-6.2023,-6.2023,-6.2023,-6.2023,-6.2023,-6.2023,-6.2023,-6.2023,0.0,-6.2023,-6.1933,-6.177,0.0,0.0,0.0,0.0,0.0,0.0,0.0,-6.2748,-6.2023,-6.2023,-6.2023,-6.2041,-6.2204,-6.3146,-6.4414,-6.4577,-6.5573,-6.6804,-6.6804,-6.6804,-6.6804,-6.6804,-6.6391,-6.5949,-6.5949,-6.5551,-6.5008,-6.4873,-6.4432,-6.3907,-6.3773,-6.3225,-6.2564,-6.1823,-6.1651,-6.1379,-6.0583,-6.0299,-6.035,-6.0774,-6.1659,0.0,0.0,0.0,0.0,0.0,0.0,0.0,0.0,0.0,0.0,-5.8871,0.0,0.0,0.0,0.0,0.0,0.0,0.0,0.0,0.0,0.0,-5.7335,-5.8137,0.0,-5.7881,0.0,-5.7881,-5.7881,-5.7881,-5.7881,-5.7881,-5.7881,-5.7881,-5.7881,-5.7881,-5.7881,-5.7881,-5.7881,-5.7881,-5.7881,-5.7881,-5.7881,-5.7881,-5.7881,0.0,0.0,0.0,0.0,0.0,0.0,0.0,-6.0866,-6.1587,-6.2443,-6.2219,-6.2023,-6.2023,-6.2023,-6.2023,-6.2023,-6.2023,-6.2023,-6.2023,-6.2023,-6.2023,-6.2023,-6.2023,-6.2023,-6.2023,-6.2023,-6.2023,0.0,0.0,-6.1643,-6.0937,-6.1679,0.0,0.0,0.0,0.0,0.0,-6.2856,-6.2748,-6.2023,-6.2023,-6.2023,-6.2096,-6.2802,-6.3617,-6.4486,-6.5229,-6.6044,-6.6804,-6.6804,-6.6804,-6.6804,-6.6804,-6.6727,-6.6668,-6.6668,-6.6668,-6.6452,-6.576,-6.5561,-6.5297,-6.4682,-6.4385,-6.4073,-6.3289,-6.3059,-6.2779,-6.1984,-6.1315,-6.0747,-6.0199,-6.1229,-6.2009,0.0,0.0,0.0,0.0,0.0,0.0,-6.0927,0.0,0.0,0.0,-5.8641,0.0,0.0,0.0,0.0,0.0,0.0,0.0,-5.8573,0.0,-5.8015,-5.8823,-5.8192,-5.7881,-5.7881,-5.7881,-5.7881,-5.7881,-5.7881,-5.7881,-5.7881,-5.7881,-5.7881,-5.7881,-5.7881,-5.7881,-5.7881,-5.7881,-5.7881,-5.7881,-5.7881,-5.7881,-5.7881,0.0,0.0,0.0,0.0,0.0,0.0,0.0,-6.1619,-6.2345,-6.3475,-6.2892,-6.2308,-6.2005,-6.2023,-6.2023,-6.2023,-6.2023,-6.2023,-6.2023,-6.2023,-6.2023,-6.2023,-6.2023,-6.2023,-6.2023,-6.2023,-6.2023,0.0,0.0,-6.186,-6.1553,-6.186,0.0,0.0,0.0,-6.2313,-6.2041,-6.2349,-6.2295,-6.2023,-6.2023,-6.2023,-6.206,-6.2367,-6.2983,-6.378,-6.4577,-6.5392,-6.6152,-6.6641,-6.6804,-6.6804,-6.6804,-6.6804,-6.6804,-6.6804,-6.6804,-6.6745,-6.6452,-6.6373,-6.6312,-6.5967,-6.5518,-6.4927,-6.4117,-6.3574,-6.2965,-6.2186,-6.1766,-6.1505,-6.1257,-6.2076,-6.2731,0.0,0.0,0.0,0.0,0.0,0.0,0.0,0.0,-6.113,0.0,0.0,0.0,0.0,0.0,0.0,0.0,0.0,0.0,-5.8105,0.0,-5.8276,-5.9561,-5.8858,-5.8511,-5.8528,-5.8082,-5.7881,-5.7881,-5.7881,-5.7881,-5.7881,-5.7881,-5.7881,-5.7881,-5.7881,-5.7881,-5.7881,-5.7881,-5.7881,-5.7881,-5.7881,-5.7881,-5.7881,-5.8732,0.0,-5.8791,0.0,-5.9648,-6.0665,-6.1542,-6.2354,-6.3187,-6.4075,-6.3587,-6.2892,-6.2273,-6.2238,-6.2132,-6.2005,-6.2023,-6.2023,-6.2023,-6.2023,-6.2023,-6.2023,-6.2023,0.0,-6.2023,-6.2023,-6.2023,-6.2023,-6.2023,-6.1897,-6.1661,0.0,0.0,0.0,-6.2023,-6.2023,-6.2023,-6.2023,-6.2023,-6.2023,-6.2023,-6.2023,-6.2023,-6.2023,-6.2512,-6.3255,-6.3834,-6.4559,-6.5374,-6.6188,-6.6442,-6.6496,-6.6732,-6.6804,-6.6804,-6.6804,-6.6804,-6.6804,-6.6804,-6.6804,-6.6804,-6.6804,-6.6207,-6.5392,-6.4577,-6.3762,-6.2965,-6.2186,-6.2023,-6.2023,-6.2023,-6.2458,-6.2911,-6.3146,0.0,0.0,0.0,0.0,0.0,0.0,-6.2023,-6.1697,-6.0883,0.0,0.0,0.0,0.0,0.0,0.0,0.0,0.0,0.0,0.0,0.0,0.0,-5.9561,-5.923,-5.923,-5.8528,-5.8209,-5.8209,-5.8027,-5.7881,-5.7881,-5.7881,-5.7881,-5.7881,-5.7881,-5.7881,-5.7881,-5.7881,-5.7881,-5.7881,-5.7881,-5.7881,-5.7881,-5.9122,-5.9196,-5.9196,-5.9196,-6.0548,-6.1655,-6.1675,-6.3101,-6.419,-6.419,-6.419,-6.3822,-6.2794,-6.2695,-6.253,-6.206,-6.2023,-6.2023,-6.2023,-6.2023,-6.2023,0.0,0.0,-6.2023,-6.2023,-6.2023,-6.2023,-6.2023,0.0,0.0,-6.0828,0.0,-6.1245,-6.2023,-6.2023,-6.2023,-6.2023,-6.2023,-6.2023,-6.2023,-6.2023,-6.2023,-6.2023,-6.2023,-6.2512,-6.3182,-6.32,-6.3726,-6.4541,-6.5337,-6.5609,-6.5754,-6.6551,-6.6804,-6.6804,-6.6804,-6.6804,-6.6804,-6.6804,-6.6804,-6.6804,-6.6804,-6.6207,-6.5392,-6.4577,-6.3762,-6.2965,-6.2186,-6.2023,-6.2023,-6.2023,-6.2023,-6.2277,-6.3056,0.0,0.0,0.0,0.0,0.0,-6.2023,-6.2023,-6.1697,-6.0883,0.0,0.0,0.0,0.0,0.0,0.0,0.0,0.0,-5.9508,-5.8948,0.0,-6.0968,-6.0344,-5.9984,-5.9966,-5.923,-5.8892,-5.8892,-5.8209,-5.7881,-5.7881,-5.7881,-5.7881,-5.7881,-5.7881,-5.7881,-5.7881,-5.7881,-5.7881,-5.7881,-5.7881,-5.7881,-5.7881,-5.9628,-5.9681,-5.9681,-5.9681,-6.0569,-6.1495,-6.21,-6.3102,-6.4009,-6.4614,-6.4689,-6.4445,-6.3779,-6.3389,-6.3141,0.0,-6.2663,-6.2479,0.0,-6.2185,-6.2023,-6.2023,-6.2023,-6.2023,-6.2023,-6.2023,-6.2023,-6.2023,0.0,0.0,0.0,-6.1643,-6.177,-6.2023,-6.2023,-6.2023,-6.2023,-6.2023,-6.2023,-6.2023,-6.2023,-6.2023,-6.2023,-6.2023,-6.2168,-6.2458,-6.2983,-6.3345,-6.3689,-6.4504,-6.4776,-6.483,-6.5084,-6.5917,-6.6804,-6.6804,-6.6804,-6.6804,-6.6804,-6.6406,-6.5989,-6.5989,-6.4957,-6.3889,-6.3635,-6.2965,-6.2313,-6.206,-6.2023,-6.2023,-6.2023,-6.2023,-6.2096,-6.2349,-6.2639,0.0,0.0,0.0,0.0,-6.2078,-6.2023,-6.1915,0.0,-6.1136,0.0,0.0,0.0,0.0,0.0,0.0,0.0,0.0,-5.9366,0.0,-6.1674,-6.0986,-6.0669,-6.0686,-5.9966,-5.9644,-5.9644,-5.8909,-5.8581,-5.8581,-5.8082,-5.7881,-5.7881,-5.7881,-5.7881,-5.7881,-5.7881,-5.7881,-5.7881,-5.7881,-5.7881,-5.7881,-5.9885,-5.9885,-5.9885,-5.9885,-6.0568,-6.1269,-6.1837,-6.2633,-6.3467,-6.4301,-6.4415,-6.4403,-6.4464,-6.4153,0.0,-6.3442,-6.3141,-6.2951,-6.2951,-6.2713,-6.2446,-6.2273,-6.2273,-6.2185,-6.2005,0.0,0.0,-6.2023,-6.2023,-6.2023,-6.2023,-6.2023,-6.2023,-6.2023,-6.2023,-6.2023,-6.2023,-6.2023,-6.2023,-6.2023,-6.2023,-6.2023,-6.2023,-6.2023,-6.2023,-6.2078,-6.2567,-6.2748,-6.2875,-6.3671,-6.3943,-6.3997,-6.4287,-6.5084,-6.5899,-6.5899,-6.5899,-6.5899,-6.5899,-6.5537,-6.5138,-6.5138,-6.416,-6.311,-6.282,-6.2367,-6.2023,-6.2023,-6.2023,-6.2023,-6.2023,-6.2023,-6.2023,-6.2023,-6.2422,-6.2567,-6.2078,0.0,0.0,0.0,0.0,0.0,0.0,-6.1571,-6.1136,0.0,0.0,0.0,0.0,0.0,0.0,-5.9561,-5.9615,0.0,-6.2005,-6.1561,-6.1372,-6.139,-6.0686,-6.0219,-5.9966,-5.9495,-5.9297,-5.9297,-5.8858,-5.8668,-5.8668,-5.8668,-5.8668,-5.8668,-5.8668,-5.8668,-5.8668,-5.8668,-5.8668,-5.8668,-5.9885,-5.9885,0.0,0.0,-6.0511,0.0,-6.1079,-6.1799,-6.2614,-6.341,-6.3524,-6.3865,-6.4718,-6.4813,-6.4464,-6.3575,0.0,0.0,0.0,-6.3397,-6.3234,-6.2794,-6.2745,-6.2512,-6.2096,-6.206,-6.2005,-6.2023,-6.2023,-6.2023,-6.2023,-6.2023,-6.2023,-6.2023,-6.2023,-6.2023,-6.2023,-6.2023,-6.2023,-6.2023,-6.2023,-6.2023,-6.2023,-6.2023,-6.2023,-6.2023,-6.2023,-6.2023,-6.2132,-6.2856,-6.311,-6.3237,-6.3997,-6.4233,-6.4251,-6.4359,-6.4396,-6.4396,-6.4396,-6.4359,-6.4305,-6.4305,-6.3708,-6.2911,-6.2186,-6.2023,-6.2023,-6.2023,-6.2023,-6.2023,-6.2023,-6.2023,-6.2023,-6.2023,-6.2023,-6.2023,-6.2023,0.0,0.0,0.0,0.0,0.0,0.0,-6.2023,-6.1697,0.0,0.0,0.0,0.0,0.0,-5.8909,-5.9669,-5.9687,-6.0448,-6.2005,-6.2023,-6.2023,-6.2023,-6.1372,-6.0729,-6.0174,-6.0093,-6.0093,-6.0048,-6.0048,-5.9966,-5.9966,-5.9966,-5.9966,-5.9966,-5.9966,-5.9966,-5.9966,-5.9966,-5.9966,-5.9966,0.0,0.0,-5.9885,-5.9885,-6.0056,-6.0378,-6.1003,-6.1269,-6.1705,-6.2576,-6.269,-6.3012,-6.3827,-6.3922,-6.4098,-6.452,-6.423,-6.399,-6.399,-6.3656,-6.3352,-6.3234,-6.3215,-6.3187,-6.3047,-6.2695,-6.236,-6.2023,-6.2023,-6.2023,-6.2023,-6.2023,-6.2023,-6.2023,-6.2023,-6.2023,-6.2023,-6.2023,-6.2023,-6.2023,-6.2023,-6.2023,-6.2023,-6.2023,-6.2023,-6.2023,-6.2023,-6.2023,-6.2041,-6.2223,-6.2295,-6.2331,-6.253,-6.2585,-6.282,-6.4033,-6.4396,-6.4396,-6.4396,-6.3943,-6.3472,-6.3472,-6.2875,-6.2241,-6.206,-6.2023,-6.2023,-6.2023,-6.2023,-6.2023,-6.2023,-6.2023,-6.2023,-6.2023,-6.2023,-6.2023,-6.2023,-6.2023,0.0,0.0,-6.2023,-6.2023,-6.2023,-6.2023,-6.1933,0.0,0.0,0.0,0.0,-6.0357,-6.0321,-6.052,-6.0538,-6.1009,-6.2005,-6.2023,-6.2023,-6.2023,-6.1822,-6.1692,-6.1505,-6.0986,-6.0789,-6.0729,-6.0219,-5.9966,-5.9966,-5.9966,-5.9966,-5.9966,-5.9966,-5.9966,-5.9966,-5.9966,-5.9966,-5.9966,-5.9885,-5.9885,-5.9885,-5.9885,-5.9885,-6.0037,-6.0473,-6.0549,-6.0852,-6.1705,-6.1818,-6.2122,-6.2974,-6.305,-6.3259,-6.3732,-6.4236,-6.4502,-6.4502,-6.4251,-6.3971,-6.3803,-6.3761,-6.3656,-6.3397,-6.3141,-6.2873,-6.2613,-6.2446,-6.2308,-6.2308,-6.2096,-6.2023,-6.2023,-6.2023,-6.2023,-6.2023,-6.2023,-6.2023,-6.2023,-6.2023,-6.2023,-6.2023,-6.2023,-6.2023,-6.2023,-6.2023,-6.2023,-6.2023,-6.2023,-6.2023,-6.2023,-6.2023,-6.2023,-6.2186,-6.3056,-6.3309,-6.3309,-6.3309,-6.2983,-6.2657,-6.2657,-6.2331,-6.2023,-6.2023,-6.2023,-6.2023,-6.2023,-6.2023,-6.2023,-6.2023,-6.2023,-6.2023,-6.2023,-6.2023,-6.2023,-6.2023,-6.2023,0.0,-6.2023,-6.2023,-6.2023,-6.2023,-6.2023,-6.2023,-6.2023,-6.2023,0.0,-6.139,-6.1009,-6.081,-6.081,-6.081,-6.1208,-6.2005,-6.1661,-6.1281,-6.0919,-6.0919,-6.0919,-6.0919,-6.0537,-6.0352,-6.0334,-5.9974,-5.9799,-5.9799,-5.9799,-5.9799,-5.9799,-5.9799,-5.9799,-5.9799,-5.9799,-5.9799,-5.9799,-5.9885,-5.9885,-5.9885,-5.9885,-5.9885,-5.9885,-5.9885,-5.9885,-6.0151,-6.0814,-6.0909,-6.125,-6.2122,-6.2216,-6.2273,-6.2406,-6.3713,-6.4528,-6.4528,-6.4528,-6.4348,-6.3952,-6.4026,-6.3903,-6.3451,-6.3475,-6.3505,-6.3397,-6.2999,-6.2825,-6.2794,-6.2412,-6.2185,-6.2096,-6.2096,-6.206,-6.2023,-6.2023,-6.2023,-6.2023,-6.2023,-6.2023,-6.2023,-6.2023,-6.2023,-6.2023,-6.2023,-6.2023,-6.2023,-6.2023,-6.2023,-6.2023,-6.2023,-6.2023,-6.2023,-6.2023,-6.2023,-6.2023,-6.2023,-6.2023,-6.2023,-6.2023,-6.2023,-6.2023,-6.2023,-6.2023,-6.2023,-6.2023,-6.2023,-6.2023,-6.2023,-6.2023,-6.2023,-6.2023,-6.2023,-6.2023,-6.2023,0.0,-6.2023,-6.2023,-6.2023,-6.2023,-6.2023,-6.2023,-6.2023,-6.2023,-6.2023,-6.1969,-6.1842,-6.119,-6.0756,-6.0629,-6.0629,-6.0955,-6.1643,-6.0973,-6.0285,-5.9615,-5.9615,-5.9615,-5.9615,-5.9615,-5.9615,-5.9615,-5.9615,-5.9615,-5.9615,-5.9615,-5.9615,-5.9615,-5.9615,-5.9615,-5.9615,-5.9615,-5.9615,-5.9615,-5.9885,-5.9885,-5.9885,-5.9885,-5.9885,-5.9885,-5.9885,-5.9885,-5.9923,-6.0056,-6.0075,-6.0397,-6.1212,-6.1288,-6.1591,-6.2349,-6.2652,-6.2804,-6.2804,-6.2804,-6.2769,-6.2662,-6.3324,-6.3629,-6.3574,-6.3894,-6.3846,-6.3397,-6.3307,-6.3307,-6.3261,-6.3234,-6.2951,-6.2613,-6.2613,-6.2342,-6.2023,-6.2023,-6.2023,-6.2023,-6.2023,-6.2023,-6.2023,-6.2023,-6.2023,-6.2023,-6.2023,-6.2023,-6.2023,-6.2023,-6.2023,-6.2023,-6.2023,-6.2023,-6.2023,-6.2023,-6.2023,-6.2023,-6.2023,-6.2023,-6.2023,-6.2023,-6.2023,-6.2023,-6.2023,-6.2023,-6.2023,-6.2023,-6.2023,-6.2023,-6.2023,-6.2023,-6.2023,-6.2023,-6.2023,-6.2023,-6.2023,0.0,-6.2023,-6.2023,-6.2023,-6.2023,-6.2023,-6.2023,-6.2023,-6.2023,-6.2023,-6.1716,-6.1027,-6.0883,-6.0502,-5.9814,-5.9796,-5.985,-5.9977,-5.985,-5.9724,-5.9615,-5.9615,-5.9615,-5.9615,-5.9615,-5.9615,-5.9615,-5.9615,-5.9615,-5.9615,-5.9615,-5.9615,-5.9615,-5.9615,-5.9615,-5.9615,-5.9615,-5.9615,-5.9615,-5.9885,-5.9885,-5.9885,-5.9885,-5.9885,-5.9885,-5.9885,-5.9885,-5.9885,-5.9885,-5.9885,-6.0037,-6.0397,-6.0435,-6.0605,-6.1022,-6.1041,-6.1041,-6.1041,-6.1913,-6.2406,-6.2406,-6.2766,-6.2955,-6.2955,-6.3139,-6.3107,-6.2878,-6.262,-6.2477,-6.2496,-6.265,-6.2631,-6.2437,-6.2909,-6.297,-6.2745,-6.2745,-6.2613,-6.2412,-6.2412,-6.2238,-6.2023,-6.2023,-6.2023,-6.2023,-6.2023,-6.2023,-6.2023,-6.2023,-6.2023,-6.2023,-6.2023,-6.2023,-6.2023,-6.2023,-6.2023,-6.2023,-6.2023,-6.2023,-6.2023,-6.2023,-6.2023,-6.2023,-6.2023,-6.2023,-6.2023,-6.2023,-6.2023,-6.2023,-6.2023,-6.2023,-6.2023,-6.2023,-6.2023,0.0,0.0,-6.2023,-6.2023,-6.2023,-6.2023,-6.2023,-6.2023,-6.2023,-6.2023,-6.2023,-6.1607,-6.1208,-6.0828,-5.9995,-5.9343,-5.8981,-5.9379,-5.9398,-5.8963,-5.8963,-5.8746,-5.8311,-5.8311,-5.8311,-5.8311,-5.8311,-5.8311,-5.8311,-5.8311,-5.8311,-5.8311,-5.8311,-5.8311,-5.8311,-5.8311,-5.8311,-5.8311,-5.8311,-5.8311,-5.8311,-5.9885,-5.9885,-5.9885,-5.9885,-5.9885,-5.9885,-5.9885,-5.9885,-5.9885,-5.9885,-5.9885,-5.9885,-5.9885,-5.9885,-5.9885,-5.9885,-5.9885,-5.9885,-5.9885,-6.1098,-6.1818,-6.1818,-6.2008,-6.2197,-6.2406,-6.2406,-6.2406,-6.2406,-6.2032,-6.1864,-6.1883,-6.2152,-6.2164,-6.2116,-6.2712,-6.2929,-6.2859,-6.3044,-6.291,-6.2616,-6.28,-6.2663,-6.2308,-6.2167,-6.2132,-6.2132,-6.206,-6.2023,-6.2023,-6.2023,-6.2023,-6.2023,-6.2023,-6.2023,-6.2023,-6.2023,-6.2023,-6.2023,-6.2023,-6.2023,-6.2023,-6.2023,-6.2023,-6.2023,-6.2023,-6.2023,-6.2023,-6.2023,-6.2023,-6.2023,-6.2023,-6.2023,-6.2023,-6.2023,0.0,0.0,0.0,-6.2023,-6.2023,-6.2023,-6.2023,-6.2023,-6.2023,-6.2023,-6.1933,-6.1752,-6.1172,-6.0647,-6.0267,-5.9072,-5.8311,-5.813,-5.8728,-5.8746,-5.813,-5.8112,-5.7804,-5.7188,-5.7188,-5.7188,-5.7188,-5.7188,-5.7188,-5.7188,-5.7188,-5.7188,-5.7188,-5.7188,-5.7188,-5.7188,-5.7188,-5.7188,-5.7188,-5.7188,-5.7188,-5.7188,-5.9885,-5.9885,-5.9885,-5.9885,-5.9885,-5.9885,-5.9885,-5.9885,-5.9885,-5.9885,-5.9885,-5.9885,-5.9885,-5.9885,-5.9885,-5.9885,-5.9885,-5.9885,-5.9885,-6.0018,-6.0075,-6.0075,-6.0795,-6.1572,-6.2387,-6.2406,-6.2406,-6.2406,-6.2372,-6.2372,-6.2372,-6.2375,-6.2162,-6.1728,-6.1803,-6.1562,-6.1236,-6.196,-6.2276,-6.2287,-6.3074,-6.3307,-6.328,-6.2825,-6.2645,-6.2613,-6.215,-6.2023,-6.2023,-6.2023,-6.2023,-6.2023,-6.2023,-6.2023,-6.2023,-6.2023,-6.2023,-6.2023,-6.2023,-6.2023,-6.2023,-6.2023,-6.2023,-6.2023,-6.2023,-6.2023,-6.2023,-6.2023,-6.2023,-6.2023,-6.2023,-6.2023,-6.2023,-6.2023,0.0,0.0,-6.2023,-6.2023,-6.2023,-6.2023,-6.2023,-6.2023,-6.2023,-6.2023,-6.1697,-6.0955,-6.0846,-6.0158,-5.8655,-5.8456,-5.8058,-5.7315,-5.7351,-5.7351,-5.7279,-5.7279,-5.7261,-5.7188,-5.7188,-5.7188,-5.7188,-5.7188,-5.7188,-5.7188,-5.7188,-5.7188,-5.7188,-5.7188,-5.7188,-5.7188,-5.7188,-5.7188,-5.7188,-5.7188,-5.7188,-5.7188,-5.9885,-5.9885,-5.9885,-5.9885,-5.9885,-5.9885,-5.9885,-5.9885,-5.9885,-5.9885,-5.9885,-5.9885,-5.9885,-5.9885,-5.9885,-5.9885,-5.9885,-5.9885,-5.9885,-5.9885,-5.9885,-5.9885,-6.0189,-6.0511,-6.0833,-6.0852,-6.0852,-6.0852,-6.0852,-6.0852,-6.0852,-6.1363,-6.1504,-6.1366,-6.1913,-6.2032,-6.1883,-6.2184,-6.2142,-6.1921,-6.2201,-6.2164,-6.1904,-6.1725,-6.1948,-6.2373,-6.2203,-6.242,-6.2843,-6.253,-6.2427,-6.2394,-6.2096,-6.2023,-6.2023,-6.2023,-6.2023,-6.2023,-6.2023,-6.2023,-6.2023,-6.2023,-6.2023,-6.2023,-6.2023,-6.2023,-6.2023,-6.2023,-6.2023,-6.2023,-6.2023,-6.2023,-6.2023,-6.2023,0.0,-6.2023,-6.2023,-6.2023,-6.2023,-6.2023,-6.2023,-6.2023,-6.2023,-6.1571,-6.1136,-6.0828,-5.9887,-5.9054,-5.8438,-5.7931,-5.7514,-5.7206,-5.7188,-5.7188,-5.7188,-5.7188,-5.7188,-5.7188,-5.7188,-5.7188,-5.7188,-5.7188,-5.7188,-5.7188,-5.7188,-5.7188,-5.7188,-5.7188,-5.7188,-5.7188,-5.7188,-5.7188,-5.7188,-5.7188,-5.7188,-5.7188,-5.9885,-5.9885,-5.9885,-5.9885,-5.9885,-5.9885,-5.9885,-5.9885,-5.9885,-5.9885,-5.9885,-5.9885,-5.9885,-5.9885,-5.9885,-5.9885,-5.9885,-5.9885,-5.9885,-5.9885,-5.9885,-5.9885,-5.9885,-5.9885,-5.9885,-5.9885,-5.9885,-5.9885,-5.9885,-5.9885,-5.9904,-6.0454,-6.0719,-6.0738,-6.1345,-6.161,-6.1629,-6.1894,-6.1798,-6.1562,-6.1789,-6.1731,-6.1435,-6.127,-6.1563,-6.2029,-6.1856,-6.2164,-6.2584,-6.2261,-6.2351,-6.2505,-6.2164,-6.2263,-6.2446,-6.2446,-6.2308,-6.222,-6.222,-6.2096,-6.2023,-6.2023,-6.2023,-6.2023,-6.2023,-6.2023,-6.2023,-6.2023,-6.2023,-6.2023,-6.2023,-6.2023,-6.2023,-6.2023,-6.2023,-6.2023,-6.2023,-6.2023,-6.2023,-6.2023,-6.1788,-6.1643,-6.1643,-6.0919,-6.0321,-6.0086,-5.9017,-5.8293,-5.8039,-5.7496,-5.7188,-5.7188,-5.7188,-5.7188,-5.7188,-5.7188,-5.7188,-5.7188,-5.7188,-5.7188,-5.7188,-5.7188,-5.7188,-5.7188,-5.7188,-5.7188,-5.7188,-5.7188,-5.7188,-5.7188,-5.7188,-5.7188,-5.7188,-5.7188,-5.7188,-5.7188,-5.9885,-5.9885,-5.9885,-5.9885,-5.9885,-5.9885,-5.9885,-5.9885,-5.9885,-5.9885,-5.9885,-5.9885,-5.9885,-5.9885,-5.9885,-5.9885,-5.9885,-5.9885,-5.9885,-5.9885,-5.9885,-5.9885,-5.9885,-5.9885,-5.9885,-5.9885,-5.9885,-5.9885,-5.9885,-5.9885,-5.9885,-5.9885,-5.9885,-5.9885,-5.9885,-5.9885,-5.9942,-6.0738,-6.1079,-6.1155,-6.2027,-6.2387,-6.2353,-6.1883,-6.1673,-6.1634,-6.1167,-6.1014,-6.1014,-6.1014,-6.1533,-6.2227,-6.2164,-6.2747,-6.3379,-6.3379,-6.3075,-6.2677,-6.2677,-6.2342,-6.2005,-6.2005,-6.2023,-6.2023,-6.2023,-6.2023,-6.2023,-6.2023,-6.2023,-6.2023,-6.2023,-6.2023,-6.2023,-6.2023,-6.2023,-6.2023,-6.2023,-6.2005,-6.2005,-6.2005,-6.1299,-6.081,-6.081,-6.0068,-5.9271,-5.8456,-5.8402,-5.8039,-5.7243,-5.7188,-5.7188,-5.7188,-5.7188,-5.7188,-5.7188,-5.7188,-5.7188,-5.7188,-5.7188,-5.7188,-5.7188,-5.7188,-5.7188,-5.7188,-5.7188,-5.7188,-5.7188,-5.7188,-5.7188,-5.7188,-5.7188,-5.7188,-5.7188,-5.7188,-5.7188,-5.7188,-5.9885,-5.9885,-5.9885,-5.9885,-5.9885,-5.9885,-5.9885,-5.9885,-5.9885,-5.9885,-5.9885,-5.9885,-5.9885,-5.9885,-5.9885,-5.9885,-5.9885,-5.9885,-5.9885,-5.9885,-5.9885,-5.9885,-5.9885,-5.9885,-5.9885,-5.9885,-5.9885,-5.9885,-5.9885,-5.9885,-5.9885,-5.9885,-5.9885,-5.9885,-5.9885,-5.9885,-5.9904,-6.0151,-6.0245,-6.0264,-6.053,-6.0643,-6.0643,-6.0471,-6.0796,-6.1269,-6.1108,-6.1467,-6.1939,-6.1595,-6.1644,-6.179,-6.1435,-6.1515,-6.1719,-6.1719,-6.163,-6.1495,-6.1495,-6.1809,-6.2114,-6.2004,-6.2023,-6.2023,-6.2023,-6.2023,-6.2023,-6.2023,-6.2023,-6.2023,-6.2023,-6.2023,-6.2023,-6.2023,-6.2023,-6.2023,-6.2023,-6.1534,-6.1172,-6.1172,-6.0466,-5.9977,-5.9977,-5.9235,-5.8655,-5.842,-5.7876,-5.7442,-5.7206,-5.7188,-5.7188,-5.7188,-5.7188,-5.7188,-5.7188,-5.7188,-5.7188,-5.7188,-5.7188,-5.7188,-5.7188,-5.7188,-5.7188,-5.7188,-5.7188,-5.7188,-5.7188,-5.7188,-5.7188,-5.7188,-5.7188,-5.7188,-5.7188,-5.7188,-5.7188,-5.7188,-5.9885,-5.9885,-5.9885,-5.9885,-5.9885,-5.9885,-5.9885,-5.9885,-5.9885,-5.9885,-5.9885,-5.9885,-5.9885,-5.9885,-5.9885,-5.9885,-5.9885,-5.9885,-5.9885,-5.9885,-5.9885,-5.9885,-5.9885,-5.9885,-5.9885,-5.9885,-5.9885,-5.9885,-5.9885,-5.9885,-5.9885,-5.9885,-5.9885,-5.9885,-5.9885,-5.9885,-5.9885,-5.9885,-5.9885,-5.9885,-5.9885,-5.9885,-5.9885,-5.9885,-6.0189,-6.0624,-6.0624,-6.0966,-6.1368,-6.1068,-6.1204,-6.1487,-6.1541,-6.1555,-6.1555,-6.1555,-6.1435,-6.127,-6.127,-6.1478,-6.1715,-6.1618,-6.2073,-6.2497,-6.2308,-6.2273,-6.222,-6.206,-6.2023,-6.2023,-6.2023,-6.2023,-6.2023,-6.2023,-6.1752,-6.1553,-6.1553,-6.0846,-6.0339,-6.0339,-5.9633,-5.9126,-5.9126,-5.8402,-5.7931,-5.7931,-5.746,-5.7188,-5.7188,-5.7188,-5.7188,-5.7188,-5.7188,-5.7188,-5.7188,-5.7188,-5.7188,-5.7188,-5.7188,-5.7188,-5.7188,-5.7188,-5.7188,-5.7188,-5.7188,-5.7188,-5.7188,-5.7188,-5.7188,-5.7188,-5.7188,-5.7188,-5.7188,-5.7188,-5.7188,-5.7188,-5.9885,-5.9885,-5.9885,-5.9885,-5.9885,-5.9885,-5.9885,-5.9885,-5.9885,-5.9885,-5.9885,-5.9885,-5.9885,-5.9885,-5.9885,-5.9885,-5.9885,-5.9885,-5.9885,-5.9885,-5.9885,-5.9885,-5.9885,-5.9885,-5.9885,-5.9885,-5.9885,-5.9885,-5.9885,-5.9885,-5.9885,-5.9885,-5.9885,-5.9885,-5.9885,-5.9885,-5.9885,-5.9885,-5.9885,-5.9885,-5.9885,-5.9885,-5.9885,-5.9885,-5.9885,-5.9885,-5.9885,-5.9885,-5.9885,-5.9885,-6.0378,-6.1117,-6.1932,-6.2197,-6.2197,-6.2197,-6.1878,-6.1544,-6.1544,-6.1266,-6.1013,-6.1013,-6.2166,-6.3193,-6.2652,-6.2524,-6.2462,-6.1967,-6.1896,-6.1896,-6.1896,-6.1896,-6.1896,-6.1896,-6.128,-6.0755,-6.0755,-6.0013,-5.9506,-5.9506,-5.8782,-5.8293,-5.8293,-5.7623,-5.7188,-5.7188,-5.7188,-5.7188,-5.7188,-5.7188,-5.7188,-5.7188,-5.7188,-5.7188,-5.7188,-5.7188,-5.7188,-5.7188,-5.7188,-5.7188,-5.7188,-5.7188,-5.7188,-5.7188,-5.7188,-5.7188,-5.7188,-5.7188,-5.7188,-5.7188,-5.7188,-5.7188,-5.7188,-5.7188,-5.7188,-5.7188,-5.9885,-5.9885,-5.9885,-5.9885,-5.9885,-5.9885,-5.9885,-5.9885,-5.9885,-5.9885,-5.9885,-5.9885,-5.9885,-5.9885,-5.9885,-5.9885,-5.9885,-5.9885,-5.9885,-5.9885,-5.9885,-5.9885,-5.9885,-5.9885,-5.9885,-5.9885,-5.9885,-5.9885,-5.9885,-5.9885,-5.9885,-5.9885,-5.9885,-5.9885,-5.9885,-5.9885,-5.9885,-5.9885,-5.9885,-5.9885,-5.9885,-5.9885,-5.9885,-5.9885,-5.9885,-5.9885,-5.9885,-5.9885,-5.9885,-5.9885,-6.0018,-6.0189,-6.0378,-6.0435,-6.0435,-6.0435,-6.035,-6.0282,-6.0282,-6.0683,-6.1085,-6.1085,-6.1859,-6.241,-6.1558,-6.1355,-6.1355,-6.1218,-6.1237,-6.1237,-6.1237,-6.1237,-6.1237,-6.1237,-6.0743,-6.0408,-6.0408,-5.9383,-5.8655,-5.8655,-5.7949,-5.746,-5.746,-5.7297,-5.7188,-5.7188,-5.7188,-5.7188,-5.7188,-5.7188,-5.7188,-5.7188,-5.7188,-5.7188,-5.7188,-5.7188,-5.7188,-5.7188,-5.7188,-5.7188,-5.7188,-5.7188,-5.7188,-5.7188,-5.7188,-5.7188,-5.7188,-5.7188,-5.7188,-5.7188,-5.7188,-5.7188,-5.7188,-5.7188,-5.7188,-5.7188,-5.9885,-5.9885,-5.9885,-5.9885,-5.9885,-5.9885,-5.9885,-5.9885,-5.9885,-5.9885,-5.9885,-5.9885,-5.9885,-5.9885,-5.9885,-5.9885,-5.9885,-5.9885,-5.9885,-5.9885,-5.9885,-5.9885,-5.9885,-5.9885,-5.9885,-5.9885,-5.9885,-5.9885,-5.9885,-5.9885,-5.9885,-5.9885,-5.9885,-5.9885,-5.9885,-5.9885,-5.9885,-5.9885,-5.9885,-5.9885,-5.9885,-5.9885,-5.9885,-5.9885,-5.9918,-5.995,-5.9918,-5.9885,-5.9885,-5.995,-5.9918,-5.9885,-5.995,-5.995,-5.995,-5.9918,-5.9918,-5.995,-5.9918,-6.0207,-6.053,-6.053,-6.0871,-6.1212,-6.1288,-6.1353,-6.127,-6.1057,-6.1014,-6.1014,-6.1014,-6.1014,-6.1014,-6.1014,-6.0278,-5.9758,-5.9758,-5.8646,-5.7822,-5.7822,-5.746,-5.7188,-5.7188,-5.7188,-5.7188,-5.7188,-5.7188,-5.7188,-5.7188,-5.7188,-5.7188,-5.7188,-5.7188,-5.7188,-5.7188,-5.7188,-5.7188,-5.7188,-5.7188,-5.7188,-5.7188,-5.7188,-5.7188,-5.7188,-5.7188,-5.7188,-5.7188,-5.7188,-5.7188,-5.7188,-5.7188,-5.7188,-5.7188,-5.7188,-5.7188,-5.7188,-5.9885,-5.9885,-5.9885,-5.9885,-5.9885,-5.9885,-5.9885,-5.9885,-5.9885,-5.9885,-5.9885,-5.9885,-5.9885,-5.9885,-5.9885,-5.9885,-5.9885,-5.9885,-5.9885,-5.9885,-5.9885,-5.9885,-5.9885,-5.9885,-5.9885,-5.9885,-5.9885,-5.9885,-5.9885,-5.9885,-5.9885,-5.9885,-5.9885,-5.9885,-5.9885,-5.9885,-5.9885,-5.9885,-5.9885,-5.9885,-5.9885,-5.9885,-5.9885,-5.9885,-5.995,-5.9982,-5.9918,-5.9885,-5.9918,-5.9963,-5.995,-5.9918,-5.9982,-5.9963,-5.9963,-5.9918,-5.995,-5.9982,-5.9918,-5.9885,-5.9885,-5.9885,-5.9885,-6.016,-6.1149,-6.1394,-6.1261,-6.0882,-6.0799,-6.0799,-6.0799,-6.0799,-6.0799,-6.0799,-5.9881,-5.9081,-5.8989,-5.8014,-5.7289,-5.7188,-5.7188,-5.7188,-5.7188,-5.7188,-5.7188,-5.7188,-5.7188,-5.7188,-5.7188,-5.7188,-5.7188,-5.7188,-5.7188,-5.7188,-5.7188,-5.7188,-5.7188,-5.7188,-5.7188,-5.7188,-5.7188,-5.7188,-5.7188,-5.7188,-5.7188,-5.7188,-5.7188,-5.7188,-5.7188,-5.7188,-5.7188,-5.7188,-5.7188,-5.7188,-5.7188,-5.7188,-5.9885,-5.9885,-5.9885,-5.9885,-5.9885,-5.9885,-5.9885,-5.9885,-5.9885,-5.9885,-5.9885,-5.9885,-5.9885,-5.9885,-5.9885,-5.9885,-5.9885,-5.9885,-5.9885,-5.9885,-5.9885,-5.9885,-5.9885,-5.9885,-5.9885,-5.9885,-5.9885,-5.9885,-5.9885,-5.9885,-5.9885,-5.9885,-5.9885,-5.9885,-5.9885,-5.9885,-5.9885,-5.9885,-5.9885,-5.9885,-5.9885,-5.9885,-5.9885,-5.9885,-5.9885,-5.9918,-5.9885,-5.9885,-5.9885,-5.9918,-5.9918,-5.9885,-5.9918,-5.9918,-5.9918,-5.9885,-5.9885,-5.9918,-5.9885,-5.9885,-5.9885,-5.9885,-5.9885,-5.9942,-6.0104,-6.0141,-6.0108,-6.0055,-6.0055,-6.0055,-6.0055,-6.0055,-6.0055,-6.0055,-5.9533,-5.9059,-5.8712,-5.8186,-5.7642,-5.7239,-5.7188,-5.7188,-5.7188,-5.7188,-5.7188,-5.7188,-5.7188,-5.7188,-5.7188,-5.7188,-5.7188,-5.7188,-5.7188,-5.7188,-5.7188,-5.7188,-5.7188,-5.7188,-5.7188,-5.7188,-5.7188,-5.7188,-5.7188,-5.7188,-5.7188,-5.7188,-5.7188,-5.7188,-5.7188,-5.7188,-5.7188,-5.7188,-5.7188,-5.7188,-5.7188,-5.7188,-5.9885,-5.9885,-5.9885,-5.9885,-5.9885,-5.9885,-5.9885,-5.9885,-5.9885,-5.9885,-5.9885,-5.9885,-5.9885,-5.9885,-5.9885,-5.9885,-5.9885,-5.9885,-5.9885,-5.9885,-5.9885,-5.9885,-5.9885,-5.9885,-5.9885,-5.9885,-5.9885,-5.9885,-5.9885,-5.9885,-5.9885,-5.9885,-5.9918,-5.995,-5.995,-5.9982,-5.9994,-5.9994,-5.9994,-5.995,-5.995,-5.995,-5.9885,-5.9885,-5.9918,-5.995,-5.995,-5.9918,-5.9885,-5.995,-5.9918,-5.9885,-5.995,-5.995,-5.995,-5.9918,-5.9918,-5.995,-5.9918,-5.9885,-5.9885,-5.9885,-5.9885,-5.9885,-5.9885,-5.9918,-5.995,-5.9918,-5.9885,-5.9885,-5.9885,-5.9885,-5.9885,-5.9885,-5.9505,-5.914,-5.8969,-5.8568,-5.8113,-5.7642,-5.737,-5.7188,-5.7188,-5.7188,-5.7188,-5.7188,-5.7188,-5.7188,-5.7188,-5.7188,-5.7188,-5.7188,-5.7188,-5.7188,-5.7188,-5.7188,-5.7188,-5.7188,-5.7188,-5.7188,-5.7188,-5.7188,-5.7188,-5.7188,-5.7188,-5.7188,-5.7188,-5.7188,-5.7188,-5.7188,-5.7188,-5.7188,-5.7188,-5.7188,-5.7188,-5.7188]}]]